     2              OBSERVATION DATA    GPS                 RINEX VERSION / TYPE
teqc 1998Mar9 19980907 20:16:57UTC                          PGM / RUN BY / DATE
                                                            COMMENT
BIT 2 OF LLI FLAGS DATA COLLECTED UNDER A-S CONDITION       COMMENT
BIT 2 OF LLI FLAGS DATA COLLECTED UNDER A-S CONDITION       COMMENT
Original Marker Name: LOMA VERDE RESET 1961                 COMMENT
Campaign Name: Ventura Basin 1992                           COMMENT
4-Character Station Name: LOVE                              COMMENT
6-Character Antenna Code: TRMSST                            COMMENT
Vertical Measurement Point: BGP                             COMMENT
Vertical Offset to Rinex Ref. Point: 0.0597                 COMMENT
Radial Measurement Point: NGP                               COMMENT
Radial Offset to Rinex Ref. Point: 0.2334                   COMMENT
Antenna Height from Field Measurement: 1.2010 m             COMMENT
Original XYZ: -2524833.8332 -4617696.4697 3592369.2844      COMMENT
New XYZ position is based on association with SCEC monument COMMENT
E1E9J0Z4+0011. Position of that monument is believed to be  COMMENT
valid to within 1 m horizontally; vertical accuracy         COMMENT
should be no worse than 3-times this value.                 COMMENT
                                                            COMMENT
Revised Rinex header created by UCSD GPS archive for        COMMENT
GSAC on 15-Apr-1999 (1999:105) 02:15:26 GMT                 COMMENT
For assistance contact dagnew@ucsd.edu or hjohnson@ucsd.edu COMMENT
                                                            COMMENT
LOMA VERDE RESET 1961                                       MARKER NAME
UNKNOWN OBSERVER MIT                                        OBSERVER / AGENCY
618 TRIMBLE 4000 SST NP 4.53 / SP 4.20                      REC # / TYPE / VERS
S/N UNKNOWN TR 4000SST L1/L2 GEO                            ANT # / TYPE
 -2524830.0000 -4617691.0000  3592367.0000                  APPROX POSITION XYZ
        1.1184        0.0000        0.0000                  ANTENNA: DELTA H/E/N
     1     1     0                                          WAVELENGTH FACT L1/2
     3    C1    L1    L2                                    # / TYPES OF OBSERV
     0                                                      INTERVAL
  1992     5    28     0     1   45.000000                  TIME OF FIRST OBS
  1992     5    28    15    23   15.000000                  TIME OF LAST OBS
                                                            END OF HEADER
 92  5 28  0  1 45.0000000  0  4G24G20G12G13
  20476587.117          -0.70018        -0.18433
  23714351.3134         -0.72255        -0.36971
  21111359.4064         -0.96557        -0.03273
  22686194.430          -0.31616        -0.11631
 92  5 28  0  2 15.0000000  0  4G24G20G12G13
  20469852.8834     -35388.28848    -27574.90963
  23690246.9454    -126671.46245    -98704.71161
  21111620.750        1376.516 7      1073.30323
  22693789.266       39912.327 6     31100.60321
 92  5 28  0  2 30.0000000  0  4G24G20G12G13
  20466529.0784     -52855.98148    -41186.09062
  23678202.7584    -189960.34845   -148020.65461
  21111800.313        2315.565 7      1805.01823
  22697591.414       59897.199 6     46673.20721
 92  5 28  0  2 45.0000000  0  4G24G20G12G13
  20463233.3834     -70172.68648    -54679.61563
  23666164.7194    -253217.92445   -197312.20761
  21112009.2424       3421.36647      2666.66963
  22701398.914       79900.957 6     62260.52921
 92  5 28  0  3  0.0000000  0  4G24G20G12G13
  20459966.7424     -87339.69848    -68056.50262
  23654134.492     -316442.636 5   -246578.13821
  21112252.4144       4694.98747      3659.09263
  22705209.086       99924.645 6     77863.39021
 92  5 28  0  3 15.0000000  0  4G24G20G12G13
  20456728.3364    -104354.97848    -81315.15363
  23642110.2734    -379631.03845   -295815.79461
  21112527.070        6139.580 7      4784.73623
  22709024.383      119971.446 6     93484.24821
 92  5 28  0  3 30.0000000  0  4G24G20G12G13
  20453518.9844    -121223.44448    -94459.40663
  23630091.391     -442786.408 5   -345027.69321
  21112834.3054       7751.48547      6040.75163
  22712842.4144     140037.86846    109120.39561
 92  5 28  0  3 45.0000000  0  5G24G20G12G13G16
  20450338.3134    -137936.41048   -107482.48463
  23618081.4454    -505900.29445   -394207.28461
  21113174.609        9538.796 7      7433.44523
  22716666.4774     160132.02046    124778.15361
  24306291.2734         -0.09355
 92  5 28  0  4  0.0000000  0  5G24G20G12G13G16
  20447186.3444    -154501.64648   -120390.45462
  23606077.227     -568983.426 5   -443362.89821
  21113545.5084      11490.47347      8954.21863
  22720492.7274     180242.55846    140448.67461
  24294786.7274     -60447.55445
 92  5 28  0  4 15.0000000  0  5G24G20G12G13G16
  20444062.3594    -170916.25248   -133181.04863
  23594077.398     -632033.588 5   -492492.82321
  21113947.922       13608.341 7     10604.49123
  22724322.930      200371.013 6    156133.15921
  24283288.1024    -120881.84545
 92  5 28  0  4 30.0000000  0  5G24G20G12G13G16
  20440968.8444    -187174.35748   -145849.69263
  23582089.4304    -695042.38645   -541590.52561
  21114385.055       15900.305 7     12390.42523
  22728159.4924     220525.91046    171838.24861
  24271790.500     -181297.739 5
 92  5 28  0  4 45.0000000  0  5G24G20G12G13G16
  20437903.6484    -203283.58148   -158402.32662
  23570105.4064    -758014.10046   -590659.32561
  21114854.297       18361.757 7     14308.42523
  22731997.7344     240702.29646    187560.07061
  24260296.609     -241699.751 5
 92  5 28  0  5  0.0000000  0  5G24G20G12G13G16
  20434866.6254    -219243.81148   -170838.86262
  23558130.1644    -820946.75445   -639697.69061
  21115352.766       20994.438 7     16359.84823
  22735842.148      260902.044 6    203300.11521
  24248803.9614    -302087.19745        -0.00471
 92  5 28  0  5 15.0000000  0  5G24G20G12G13G16
  20431858.5234    -235053.93848   -183158.43062
  23546162.3834    -883838.83145   -688704.43261
  21115887.3444      23799.31847     18545.45663
  22739691.430      281126.278 6    219059.23821
  24237315.938     -362459.387 5    -47043.07921
 92  5 28  0  5 30.0000000  0  5G24G20G12G13G16
  20428876.9454    -250722.00148   -195367.30162
  23534199.813     -946700.464 5   -737687.45921
  21116451.641       26766.026 7     20857.16223
  22743541.297      301364.655 6    234829.38221
  24225827.6334    -422827.28845    -94082.81561
 92  5 28  0  5 45.0000000  0  5G24G20G12G13G16
  20425922.4924    -266241.99048   -207460.79663
  23522243.8284   -1009525.08545   -786641.64661
  21117047.609       29900.664 7     23299.72223
  22747396.5704     321623.25646    250615.28261
  24214343.711     -483185.888 5   -141115.30321
 92  5 28  0  6  0.0000000  0  5G24G20G12G13G16
  20422998.7584    -281608.05848   -219434.34562
  23510297.3754   -1072309.89846   -835564.81561
  21117677.5634      33205.60547     25874.98863
  22751256.320      341904.608 6    266418.90021
  24202859.7974    -543527.93445   -188134.90461
 92  5 28  0  6 15.0000000  0  5G24G20G12G13G16
  20420102.8754    -296822.09548   -231289.42963
  23498356.7504   -1135057.32146   -884458.84361
  21118338.9924      36677.85647     28580.62763
  22755119.0234     362205.69446    282237.91161
  24191380.7584    -603852.98145   -235141.24461
 92  5 28  0  6 30.0000000  0  5G24G20G12G13G16
  20417237.4144    -311881.13948   -243023.74263
  23486422.0944   -1197765.15746   -933322.02361
  21119031.711       40319.622 7     31418.35323
  22758986.758      382528.573 6    298073.89021
  24179905.195     -664156.382 5   -282130.74221
 92  5 28  0  6 45.0000000  0  5G24G20G12G13G16
  20414399.9304    -326795.07548   -254644.98162
  23474495.953    -1260444.475 6   -982162.99221
  21119754.734       44119.360 7     34379.17223
  22762856.2734     402861.74146    313917.89061
  24168433.5004    -724446.60345   -329109.94661
 92  5 28  0  7  0.0000000  0  5G24G20G12G13G16
  20411590.4694    -341557.76448   -266148.36863
  23462575.2504   -1323088.31646  -1030976.31461
  21120508.4454      48083.49447     37468.09363
  22766729.3054     423211.70146    329774.96961
  24156964.438     -784717.510 5   -376074.11821
 92  5 28  0  7 15.0000000  0  5G24G20G12G13G16
  20408811.6024    -356162.88348   -277528.97062
  23450662.3984   -1385688.57046  -1079755.67361
  21121295.0234      52219.61147     40691.02863
  22770605.2584     443585.92846    345650.97761
  24145497.0084    -844962.66145   -423018.21861
 92  5 28  0  7 30.0000000  0  5G24G20G12G13G16
  20406061.2974    -370616.10148   -288791.21363
  23438756.797    -1448252.276 6  -1128506.55221
  21122114.188       56520.345 7     44042.23623
  22774485.852      463977.089 6    361540.15821
  24134036.7504    -905187.15745   -469946.21761
 92  5 28  0  7 45.0000000  0  5G24G20G12G13G16
  20403339.7814    -384914.55048   -299932.85463
  23426859.367    -1510773.170 6  -1177224.08121
  21122965.648       60991.643 7     47526.34923
  22778371.0314     484391.25546    377447.27761
  24122582.516     -965382.681 5   -516851.65321
 92  5 28  0  8  0.0000000  0  5G24G20G12G13G16
  20400648.7504    -399055.38648   -310951.68063
  23414972.0554   -1573245.75546  -1225903.95261
  21123849.8674      65638.62647     51147.36363
  22782260.7734     504833.63846    393376.38461
  24111133.867    -1025542.174 5   -563729.00321
 92  5 28  0  8 15.0000000  0  5G24G20G12G13G16
  20397986.8284    -413046.51148   -321853.84663
  23403091.109    -1635676.486 6  -1274551.22521
  21124765.703       70454.451 7     54899.94223
  22786155.719      525297.435 6    409322.17121
  24099692.9534   -1085673.65245   -610584.51761
 92  5 28  0  8 30.0000000  0  5G24G20G12G13G16
  20395352.0944    -426892.43048   -332642.86863
  23391219.656    -1698064.662 6  -1323165.34021
  21125713.563       75439.437 7     58784.32923
  22790052.8594     545782.98146    425284.90861
  24088254.703    -1145779.199 5   -657419.85121
 92  5 28  0  8 45.0000000  0  5G24G20G12G13G16
  20392744.1564    -440594.94748   -343320.14863
  23379355.570    -1760408.301 6  -1371744.73521
  21126695.1724      80595.07147     62801.69463
  22793956.8594     566291.84846    441265.81761
  24076819.4454   -1205857.16745   -704233.68961
 92  5 28  0  9  0.0000000  0  5G24G20G12G13G16
  20390163.3914    -454156.42848   -353887.53162
  23367500.695    -1822707.347 6  -1420289.39021
  21127710.180       85921.026 7     66951.77123
  22797863.250      586823.822 6    457264.74921
  24065395.875    -1265910.190 5   -751028.07821
 92  5 28  0  9 15.0000000  0  5G24G20G12G13G16
  20387610.1724    -467575.22048   -364343.72562
  23355654.188    -1884959.341 6  -1468797.38421
  21128754.867       91419.247 7     71236.08423
  22801775.875      607380.773 6    473283.11921
  24053970.125    -1325936.051 5   -797801.30521
 92  5 28  0  9 30.0000000  0  5G24G20G12G13G16
  20385082.9454    -480857.83448   -374693.80463
  23343815.8524   -1947172.45846  -1517275.07661
  21129832.063       97081.104 7     75647.91023
  22805690.5554     627954.13946    489314.28961
  24042551.820    -1385942.287 5   -844559.25921
 92  5 28  0  9 45.0000000  0  5G24G20G12G13G16
  20382581.8594    -493998.34648   -384933.15662
  23331987.242    -2009340.249 6  -1565717.45421
  21130943.1884     102912.82747     80192.09662
  22809609.563      648550.216 6    505363.15121
  24031138.5864   -1445920.03445   -891295.01661
 92  5 28  0 10  0.0000000  0  5G24G20G12G13G16
  20380107.9924    -507001.69648   -395065.63263
  23320163.3914   -2071466.58746  -1614127.53561
  21132083.609      108909.993 7     84865.19822
  22813532.2584     669164.85046    521426.48061
  24019730.3134   -1505873.97945   -938012.22561
 92  5 28  0 10 15.0000000  0  5G24G20G12G13G16
  20377660.6414    -519859.49648   -405084.69263
  23308348.4144   -2133547.15846  -1662501.94361
  21133257.063      115076.384 7     89670.16222
  22817459.250      689801.876 6    537507.26321
  24008325.055    -1565802.221 5   -984709.39621
 92  5 28  0 10 30.0000000  0  5G24G20G12G13G16
  20375240.9064    -532572.30648   -414990.76962
  23296544.1884   -2195583.39146  -1710841.80761
  21134462.6024     121410.14647     94605.54862
  22821390.9924     710459.23146    553603.86861
  23996925.891    -1625708.727 5  -1031389.63021
 92  5 28  0 10 45.0000000  0  5G24G20G12G13G16
  20372851.2664    -545135.35948   -424780.15463
  23284748.211    -2257571.449 6  -1759144.14121
  21135699.8364     127914.84447     99674.13262
  22825325.969      731140.534 6    569719.15121
  23985532.4384   -1685587.82645  -1078048.52961
 92  5 28  0 11  0.0000000  0  5G24G20G12G13G16
  20370489.5554    -557543.50848   -434448.83562
  23272961.852    -2319509.274 6  -1807407.32321
  21136971.352      134592.063 7    104877.14622
  22829267.148      751847.408 6    585854.35521
  23974141.797    -1745438.363 5  -1124685.15121
 92  5 28  0 11 15.0000000  0  5G24G20G12G13G16
  20368157.2034    -569801.76948   -444000.72263
  23261184.500    -2381401.420 6  -1855634.92021
  21138273.953      141436.816 7    110210.70422
  22833211.211      772575.032 6    602005.74021
  23962757.1024   -1805265.03145  -1171303.18161
 92  5 28  0 11 30.0000000  0  5G24G20G12G13G16
  20365853.7424    -581909.70748   -453435.47263
  23249414.8754   -2443246.66546  -1903825.96761
  21139607.063      148449.896 7    115675.43022
  22837159.672      793324.212 6    618173.90321
  23951377.305    -1865063.191 5  -1217899.00521
 92  5 28  0 11 45.0000000  0  5G24G20G12G13G16
  20363576.6024    -593868.69048   -462754.15863
  23237655.4774   -2505045.86646  -1951981.13361
  21140974.367      155629.981 7    121270.28422
  22841111.898      814093.852 6    634358.01321
  23940002.9224   -1924833.42745  -1264473.07061
 92  5 28  0 12  0.0000000  0  5G24G20G12G13G16
  20361330.5634    -605677.00448   -471955.43263
  23225903.7814   -2566798.34546  -2000099.89461
  21142371.344      162977.281 7    126995.43822
  22845068.523      834884.353 6    650558.38921
  23928634.656    -1984575.246 5  -1311024.99421
 92  5 28  0 12 15.0000000  0  5G24G20G12G13G16
  20359110.2504    -617340.75948   -481044.06462
  23214160.305    -2628512.604 6  -2048188.87321
  21143800.453      170482.883 7    132843.94622
  22849026.6174     855686.79646    666768.04561
  23917270.016    -2044299.852 5  -1357563.50021
 92  5 28  0 12 30.0000000  0  5G24G20G12G13G16
  20356921.6024    -628846.26348   -490009.38863
  23202426.4774   -2690173.30046  -2096236.10961
  21145261.688      178161.766 7    138827.47522
  22852989.547      876516.248 6    682998.77421
  23905912.445    -2103990.385 5  -1404075.47121
 92  5 28  0 12 45.0000000  0  5G24G20G12G13G16
  20354760.8204    -640198.87448   -498855.56963
  23190701.4454   -2751786.55246  -2144246.38361
  21146755.914      186007.478 7    144941.00423
  22856958.2974     897366.39046    699245.61061
  23894557.313    -2163648.978 5  -1450562.54221
 92  5 28  0 13  0.0000000  0  5G24G20G12G13G16
  20352629.3594    -651398.82648   -507582.79762
  23178986.180    -2813352.716 6  -2192219.96521
  21148279.305      194018.998 7    151183.72522
  22860929.4844     918236.11746    715507.70761
  23883212.375    -2223273.376 5  -1497022.96621
 92  5 28  0 13 14.9990000  0  5G24G20G12G13G16
  20350528.8394    -662438.72448   -516185.31163
  23167280.370    -2874860.163 6  -2240147.78821
  21149837.065      202202.757 7    157560.66322
  22864905.3084     939131.05846    731789.46361
  23871876.7924   -2282852.21145  -1543447.89761
 92  5 28  0 13 29.9990000  0  5G24G20G12G13G16
  20348456.5264    -673331.04348   -524672.82562
  23155584.167    -2936329.282 6  -2288045.75321
  21151424.808      210547.299 7    164062.88722
  22868884.644      960041.484 6    748083.26821
  23860541.612    -2342403.682 5  -1589851.50821
 92  5 28  0 13 44.9990000  0  5G24G20G12G13G16
  20346413.6984    -684063.02248   -533035.39663
  23143895.9404   -2997746.49946  -2335903.27061
  21153044.964      219061.193 7    170697.06822
  22872868.4564     980975.28546    764395.30561
  23849217.331    -2401916.294 5  -1636224.82921
 92  5 28  0 13 59.9990000  0  5G24G20G12G13G16
  20344402.5734    -694632.64848   -541271.46063
  23132219.4334   -3059111.54546  -2383720.13261
  21154697.503      227744.131 7    177462.97922
  22876856.1124    1001932.56446    780725.61961
  23837896.8004   -2461393.35345  -1682570.48161
 92  5 28  0 14 14.9990000  0  5G24G20G12G13G16
  20342422.0194    -705040.39148   -549381.38663
  23120550.5584   -3120423.07246  -2431495.30361
  21156382.190      236596.985 7    184361.28922
  22880848.808     1022914.355 6    797075.04721
  23826587.511    -2520833.297 5  -1728887.19221
 92  5 28  0 14 29.9990000  0  5G24G20G12G13G16
  20340472.0974    -715287.86348   -557366.41763
  23108895.198    -3181679.256 6  -2479227.34021
  21158099.440      245621.278 7    191393.18522
  22884847.331     1043921.821 6    813444.47121
  23815282.089    -2580231.026 5  -1775171.01321
 92  5 28  0 14 44.9990000  0  5G24G20G12G13G16
  20338550.8944    -725381.14448   -565231.30363
  23097248.175    -3242885.683 6  -2526920.60921
  21159848.667      254810.733 7    198553.78222
  22888848.2304    1064949.10146    829829.34961
  23803987.823    -2639589.753 5  -1821424.43121
 92  5 28  0 14 59.9990000  0  5G24G20G12G13G16
  20336660.2064    -735320.86848   -572976.53462
  23085610.167    -3304040.434 6  -2574573.61221
  21161627.753      264166.901 7    205844.28322
  22892852.6054    1085997.55746    846230.71261
  23792699.6514   -2698908.65345  -1867646.83761
 92  5 28  0 15 14.9990000  0  5G24G20G12G13G16
  20334796.6054    -745109.15248   -580603.75763
  23073983.878    -3365141.502 6  -2622184.78221
  21163440.815      273691.315 7    213265.88822
  22896862.300     1107068.765 6    862649.81921
  23781420.2764   -2758189.93045  -1913839.90661
 92  5 28  0 15 29.9990000  0  5G24G20G12G13G16
  20332964.1364    -754744.13748   -588111.53263
  23062366.253    -3426187.301 6  -2669752.89621
  21165285.347      283385.168 7    220819.51922
  22900877.394     1128164.414 6    879087.96121
  23770147.276    -2817433.674 5  -1960003.74921
 92  5 28  0 15 44.9990000  0  5G24G20G12G13G16
  20331157.964     -764234.214 8   -595506.38322
  23050760.433    -3487184.841 6  -2717283.39421
  21167161.722      293241.005 7    228499.36922
  22904893.831     1149276.898 6    895539.22321
  23758878.8944   -2876645.79445  -2006142.93161
 92  5 28  0 15 59.9990000  0  5G24G20G12G13G16
  20329380.5504    -773572.81648   -602783.20663
  23039163.784    -3548124.485 6  -2764768.77821
  21169068.589      303267.899 7    236312.51822
  22908918.933     1170415.573 6    912010.89621
  23747617.9564   -2935815.85445  -2052249.34961
 92  5 28  0 16 14.9990000  0  5G24G20G12G13G16
  20327631.370     -782764.008 8   -609945.16323
  23027577.753    -3609008.725 6  -2812211.00421
  21171009.901      313462.897 7    244256.65222
  22912944.753     1191577.460 6    928500.64321
  23736366.019    -2994942.453 5  -2098321.90221
 92  5 28  0 16 29.9990000  0  5G24G20G12G13G16
  20325908.4804    -791818.02548   -617000.23263
  23016001.206    -3669846.323 6  -2859616.87121
  21172979.495      323816.837 7    252324.63822
  22916975.386     1212753.679 6    945001.57621
  23725120.573    -3054030.696 5  -2144364.56321
 92  5 28  0 16 44.9990000  0  5G24G20G12G13G16
  20324214.4724    -800722.64848   -623938.89263
  23004435.558    -3730627.022 6  -2906978.40821
  21174981.378      334339.327 7    260523.95622
  22921008.823     1233953.869 6    961521.18221
  23713887.2694   -3113072.75945  -2190371.24461
 92  5 28  0 16 59.9990000  0  5G24G20G12G13G16
  20322547.1984    -809479.55748   -630762.44963
  22992878.308    -3791352.579 6  -2954296.96821
  21177017.058      345028.393 7    268853.08522
  22925046.9334    1255176.03346    978057.90461
  23702659.5194   -3172074.99245  -2236346.88161
 92  5 28  0 17 14.9990000  0  5G24G20G12G13G16
  20320909.0504    -818092.51348   -637473.83463
  22981332.5734   -3852027.87946  -3001576.36361
  21179080.761      355878.394 7    277307.61322
  22929088.683     1276414.893 6    994607.65321
  23691438.5584   -3231043.55745  -2282296.28961
 92  5 28  0 17 29.9990000  0  5G24G20G12G13G16
  20319298.8154    -826552.88948   -644066.32663
  22969794.800    -3912647.210 6  -3048812.16021
  21181176.925      366894.550 7    285891.60622
  22933135.253     1297675.769 6   1011174.55121
  23680225.2374   -3289970.15345  -2328212.98161
 92  5 28  0 17 44.9990000  0  5G24G20G12G13G16
  20317717.0264    -834861.82848   -650540.81763
  22958271.823    -3973212.338 6  -3096005.71121
  21183305.347      378074.800 7    294603.46822
  22937184.011     1318956.533 6   1027756.94221
  23669019.065    -3348854.210 5  -2374096.54221
 92  5 28  0 17 59.9990000  0  5G24G20G12G13G16
  20316165.2374    -843021.80448   -656899.22863
  22946755.831    -4033723.627 6  -3143157.31621
  21185462.050      389418.242 7    303442.49622
  22941236.956     1340256.553 6   1044354.33221
  23657823.4174   -3407697.37245  -2419948.23161
 92  5 28  0 18 14.9990000  0  5G24G20G12G13G16
  20314641.3944    -851028.96548   -663138.56963
  22935252.425    -4094178.524 6  -3190264.96821
  21187653.339      400926.955 7    312410.30222
  22945294.308     1361578.188 6   1060968.57821
  23646632.1594   -3466499.13245  -2465767.65661
 92  5 28  0 18 29.9990000  0  5G24G20G12G13G16
  20313146.128     -858883.257 8   -669258.78723
  22923758.980    -4154578.238 6  -3237329.62521
  21189875.472      412599.116 7    321505.47222
  22949356.2064    1382919.75446   1077598.34161
  23635447.5734   -3525262.38645  -2511557.07961
 92  5 28  0 18 44.9990000  0  5G24G20G12G13G16
  20311680.4644    -866587.96548   -675262.44463
  22912275.761    -4214924.514 6  -3284352.65521
  21192124.808      424432.581 7    330726.33422
  22953420.9954    1404279.08346   1094241.96561
  23624272.5504   -3583991.50545  -2557319.92161
 92  5 28  0 18 59.9990000  0  5G24G20G12G13G16
  20310242.3784    -874144.11348   -681150.34563
  22900802.003    -4275215.652 6  -3331332.69721
  21194407.792      436428.449 7    340073.73922
  22957488.9954    1425657.29646   1110900.28761
  23613103.8084   -3642686.97845  -2603056.52861
 92  5 28  0 19 14.9990000  0  5G24G20G12G13G16
  20308833.6674    -881543.74548   -686916.28563
  22889342.409    -4335441.829 6  -3378262.13821
  21196724.292      448596.073 7    349554.98322
  22961561.9014    1447064.11746   1127580.90961
  23601944.1904   -3701335.63545  -2648756.66261
 92  5 28  0 19 29.9990000  0  5G24G20G12G13G16
  20307456.8474    -888780.92448   -692555.64063
  22877895.097    -4395594.727 6  -3425134.46721
  21199073.948      460943.213 7    359176.10822
  22965643.0504    1468507.24646   1144289.82061
  23590794.0974   -3759926.79045  -2694412.00661
 92  5 28  0 19 44.9990000  0  5G24G20G12G13G16
  20306107.8474    -895871.23848   -698080.55463
  22866459.120    -4455687.246 6  -3471959.75121
  21201454.511      473456.630 7    368926.80322
  22969727.2304    1489973.58946   1161016.81861
  23579651.597    -3818475.850 5  -2740034.52521
 92  5 28  0 19 59.9990000  0  5G24G20G12G13G16
  20304785.5894    -902819.12448   -703494.48563
  22855036.4724   -4515721.56146  -3518739.67961
  21203868.237      486133.539 7    378804.89122
  22973816.230     1511460.685 6   1177759.99921
  23568517.542    -3876985.080 5  -2785626.02821
 92  5 28  0 20 14.9990000  0  5G24G20G12G13G16
  20303490.4174    -909621.98348   -708795.40963
  22843622.7924   -4575695.90346  -3565472.88761
  21206312.050      498975.174 7    388811.34122
  22977910.722     1532969.913 6   1194520.41321
  23557390.769    -3935451.531 5  -2831184.18921
 92  5 28  0 20 29.9990000  0  5G24G20G12G13G16
  20302223.5194    -916283.47348   -713986.17563
  22832220.5814   -4635614.82846  -3612162.89761
  21208785.417      511976.601 7    398942.30222
  22982005.378     1554496.311 6   1211294.21521
  23546273.464    -3993875.962 5  -2876709.61721
 92  5 28  0 20 44.9990000  0  5G24G20G12G13G16
  20300983.9954    -922799.66448   -719063.71963
  22820830.456    -4695471.917 6  -3658804.72721
  21211290.230      525143.534 7    409202.22722
  22986106.9484    1576046.04246   1228086.19661
  23535165.253    -4052249.573 5  -2922195.44921
 92  5 28  0 20 59.9990000  0  5G24G20G12G13G16
  20299770.3154    -929175.91248   -724032.22263
  22809450.675    -4755270.344 6  -3705400.85121
  21213827.136      538472.454 7    419588.37522
  22990211.5344    1597615.54146   1244893.57361
  23524067.276    -4110574.928 5  -2967643.66921
 92  5 28  0 21 14.9990000  0  5G24G20G12G13G16
  20298582.6754    -935415.59048   -728894.30063
  22798081.8314   -4815014.99846  -3751955.06761
  21216393.730      551957.657 7    430096.30022
  22994318.120     1619199.285 6   1261712.04821
  23512977.1054   -4168855.93745  -3013057.32661
 92  5 28  0 21 29.9990000  0  5G24G20G12G13G16
  20297423.1364    -941508.66848   -733642.15363
  22786724.253    -4874698.334 6  -3798461.50721
  21218990.690      565606.460 7    440731.70822
  22998431.1124    1640804.70446   1278547.42061
  23501897.253    -4227084.657 5  -3058430.25521
 92  5 28  0 21 44.9990000  0  5G24G20G12G13G16
  20296291.3784    -947455.33348   -738275.91263
  22775377.534    -4934321.334 6  -3844920.93921
  21221618.448      579417.252 7    451493.33722
  23002546.644     1662430.450 6   1295398.63521
  23490825.784    -4285263.704 5  -3103764.46621
 92  5 28  0 21 59.9990000  0  5G24G20G12G13G16
  20295189.0034    -953249.64648   -742790.95963
  22764043.2694   -4993880.57546  -3891330.67261
  21224277.683      593393.148 7    462383.63022
  23006664.581     1684079.754 6   1312268.20221
  23479765.7614   -4343386.70945  -3149055.03761
 92  5 28  0 22 14.9990000  0  5G24G20G12G13G16
  20294114.3394    -958895.03048   -747189.95263
  22752720.948    -5053379.696 6  -3937693.57721
  21226967.917      607529.839 7    473399.20522
  23010788.073     1705748.644 6   1329153.03021
  23468714.214    -4401455.118 5  -3194303.04121
 92  5 28  0 22 29.9990000  0  5G24G20G12G13G16
  20293068.1444    -964395.72048   -751476.20763
  22741409.065    -5112822.708 6  -3984012.75321
  21229687.706      621822.652 7    484536.44122
  23014914.0584    1727432.53646   1346049.55361
  23457674.284    -4459472.958 5  -3239511.64421
 92  5 28  0 22 44.9990000  0  5G24G20G12G13G16
  20292047.7374    -969754.01148   -755651.49163
  22730108.558    -5172208.418 6  -4030287.27021
  21232438.753      636272.415 7    495795.97322
  23019043.425     1749132.465 6   1362958.57321
  23446641.6984   -4517441.96045  -3284682.20761
 92  5 28  0 22 59.9990000  0  5G24G20G12G13G16
  20291055.3554    -974967.13848   -759713.66463
  22718820.011    -5231533.828 6  -4076514.81321
  21235218.331      650881.632 7    507179.75522
  23023177.440     1770850.741 6   1379881.89021
  23435618.565    -4575362.702 5  -3329815.15721
 92  5 28  0 23 14.9990000  0  5G24G20G12G13G16
  20290091.2144    -980035.77248   -763663.25063
  22707541.925    -5290801.629 6  -4122697.46921
  21238029.230      665647.004 7    518685.22322
  23027312.4094    1792584.45346   1396817.23461
  23424606.7924   -4633239.12845  -3374913.57861
 92  5 28  0 23 29.9990000  0  5G24G20G12G13G16
  20289154.6594    -984961.05048   -767501.12363
  22696273.940    -5350013.143 6  -4168836.26221
  21240867.511      680566.605 7    530310.86922
  23031452.1834    1814331.83946   1413763.21961
  23413600.417    -4691073.746 5  -3419979.41521
 92  5 28  0 23 44.9990000  0  5G24G20G12G13G16
  20288244.6594    -989741.72648   -771226.32363
  22685017.464    -5409165.140 6  -4214928.67621
  21243736.206      695643.275 7    542058.90122
  23035592.940     1836095.930 6   1430722.23721
  23402602.9014   -4748862.51645  -3465009.53361
 92  5 28  0 23 59.9990000  0  5G24G20G12G13G16
  20287362.2144    -994377.38848   -774838.52663
  22673773.698    -5468253.945 6  -4260971.84521
  21246635.440      710879.945 7    553931.61122
  23039737.065     1857879.869 6   1447696.70021
  23391617.1674   -4806600.25245  -3509999.88761
 92  5 28  0 24 14.9990000  0  5G24G20G12G13G16
  20286507.6834    -998868.42448   -778338.03063
  22662541.253    -5527279.982 6  -4306966.11521
  21249564.792      726275.676 7    565928.26622
  23043885.7924    1879682.93946   1464686.08661
  23380640.5264   -4864288.16245  -3554951.41761
 92  5 28  0 24 29.9990000  0  5G24G20G12G13G16
  20285679.9094   -1003222.85148   -781731.09263
  22651320.230    -5586250.636 6  -4352917.21921
  21252523.097      741822.752 7    578042.84622
  23048038.5264    1901497.53146   1481684.45661
  23369669.190    -4921936.638 5  -3599872.22321
 92  5 28  0 24 44.9990000  0  5G24G20G12G13G16
  20284878.8004   -1007431.94748   -785010.90363
  22640110.315    -5645156.655 6  -4398817.96821
  21255512.081      757529.729 7    590282.02822
  23052192.933     1923332.482 6   1498698.68021
  23358707.7064   -4979538.06645  -3644756.36961
 92  5 28  0 24 59.9990000  0  5G24G20G12G13G16
  20284105.2374   -1011496.01648   -788177.71463
  22628913.409    -5703998.128 6  -4444668.41421
  21258532.448      773396.138 7    602645.44422
  23056350.581     1945187.343 6   1515728.41521
  23347754.3784   -5037094.62845  -3689605.54961
 92  5 28  0 25 14.9990000  0  5G24G20G12G13G16
  20283359.3864   -1015413.50048   -791230.29763
  22617727.331    -5762775.078 6  -4490468.59221
  21261582.331      789421.294 7    615132.55422
  23060513.753     1967062.012 6   1532773.59921
  23336810.9334   -5094603.05745  -3734417.22461
 92  5 28  0 25 29.9990000  0  5G24G20G12G13G16
  20282640.9804   -1019193.30348   -794175.59463
  22606554.534    -5821492.919 6  -4536222.70721
  21264659.558      805599.200 7    627738.69722
  23064680.7454    1988950.61646   1549829.62461
  23325875.7844   -5152066.69945  -3779194.00561
 92  5 28  0 25 44.9990000  0  5G24G20G12G13G16
  20281947.6444   -1022831.31548   -797010.40663
  22595394.003    -5880145.482 6  -4581925.96221
  21267768.940      821935.524 7    640468.27622
  23068849.097     2010858.824 6   1566900.93421
  23314953.253    -5209477.243 5  -3823929.40521
 92  5 28  0 25 59.9990000  0  5G24G20G12G13G16
  20281281.3004   -1026332.13547   -799738.31563
  22584243.378    -5938736.187 6  -4627581.01121
  21270907.034      838426.358 7    653318.25322
  23073021.355     2032782.884 6   1583984.59521
  23304038.2374   -5266835.66045  -3868624.18661
 92  5 28  0 26 14.9990000  0  5G24G20G12G13G16
  20280642.5264   -1029692.54447   -802356.81663
  22573106.573    -5997262.972 6  -4673186.24721
  21274074.792      855073.162 7    666289.76422
  23077195.5894    2054724.47546   1601081.92861
  23293131.480    -5324142.616 5  -3913278.86721
 92  5 28  0 26 29.9990000  0  5G24G20G12G13G16
  20280029.3474   -1032915.80147   -804868.44063
  22561981.323    -6055728.949 6  -4718744.10821
  21277271.105      871872.152 7    679379.86222
  23081375.425     2076680.147 6   1618190.18821
  23282233.5584   -5381401.28345  -3957895.92661
 92  5 28  0 26 44.9990000  0  5G24G20G12G13G16
  20279441.0194   -1036004.73447   -807275.39763
  22550866.370    -6114134.358 6  -4764254.77421
  21280497.362      888822.743 7    692588.09222
  23085555.3004    2098649.47646   1635309.13861
  23271347.058    -5438608.916 5  -4002473.22221
 92  5 28  0 26 59.9990000  0  5G24G20G12G13G16
  20278879.6284   -1038956.05647   -809575.12863
  22539764.206    -6172476.105 6  -4809715.82821
  21283752.417      905927.441 7    705916.40722
  23089737.7374    2120635.14946   1652440.80261
  23260473.6514   -5495758.97345  -4047005.65361
 92  5 28  0 27 14.9990000  0  5G24G20G12G13G16
  20278344.4094   -1041767.94948   -811766.21263
  22528674.1124   -6230752.17846  -4855125.71561
  21287036.565      923187.464 7    719365.74922
  23093924.823     2142638.519 6   1669586.25021
  23249612.159    -5552845.478 5  -4091488.56421
 92  5 28  0 27 29.9990000  0  5G24G20G12G13G16
  20277835.4404   -1044442.52748   -813850.29663
  22517596.409    -6288964.431 6  -4900485.86721
  21290350.003      940600.507 7    732934.33422
  23098115.9564    2164657.44146   1686743.84061
  23238759.034    -5609868.509 5  -4135922.01721
 92  5 28  0 27 44.9990000  0  5G24G20G12G13G16
  20277354.1754   -1046974.62248   -815823.35263
  22506532.3084   -6347109.98446  -4945794.04861
  21293693.917      958168.919 7    746623.98122
  23102309.2144    2186694.54046   1703915.55461
  23227919.308    -5666825.853 5  -4180304.28621
 92  5 28  0 27 59.9990000  0  5G24G20G12G13G16
  20276899.1674   -1049363.33648   -817684.68263
  22495479.1364   -6405190.85946  -4991051.83161
  21297064.847      975889.994 7    760432.58922
  23106506.745     2208747.404 6   1721099.59121
  23217093.425    -5723719.559 5  -4224636.96021
 92  5 28  0 28 14.9990000  0  5G24G20G12G13G16
  20276472.2304   -1051608.34947   -819434.04363
  22484438.745    -6463208.174 6  -5036260.08621
  21300465.394      993762.320 7    774359.05322
  23110706.761     2230814.680 6   1738294.83321
  23206277.698    -5780553.306 5  -4268922.91921
 92  5 28  0 28 29.9990000  0  5G24G20G12G13G16
  20276072.8864   -1053704.69648   -821067.55463
  22473412.175    -6521156.637 6  -5081414.69121
  21303896.980     1011790.369 7    788406.86322
  23114906.4644    2252901.40746   1755505.22261
  23195475.417    -5837321.066 5  -4313157.45521
 92  5 28  0 28 44.9990000  0  5G24G20G12G13G16
  20275702.5264   -1055650.52947   -822583.78363
  22462398.7614   -6579033.82846  -5126513.75661
  21307356.526     1029975.957 7    802577.42522
  23119115.753     2275009.293 6   1772732.12721
  23184686.167    -5894020.309 5  -4357338.61021
 92  5 28  0 28 59.9990000  0  5G24G20G12G13G16
  20275360.0114   -1057449.41547   -823985.50663
  22451396.784    -6636844.312 6  -5171560.84521
  21310846.722     1048314.196 7    816866.94522
  23123323.815     2297133.633 6   1789971.84921
  23173908.487    -5950659.128 5  -4401472.67521
 92  5 28  0 29 14.9990000  0  5G24G20G12G13G16
  20275045.5814   -1059101.70947   -825273.00663
  22440408.394    -6694588.310 6  -5216556.12421
  21314365.745     1066804.210 7    831274.72122
  23127539.776     2319273.862 6   1807223.93821
  23163141.792    -6007240.798 6  -4445562.20821
 92  5 28  0 29 29.9990000  0  5G24G20G12G13G16
  20274758.2304   -1060611.97147   -826449.83063
  22429433.651    -6752267.551 6  -5261500.94321
  21317912.925     1085443.665 7    845798.95122
  23131755.011     2341427.955 6   1824486.85021
  23152383.0894   -6063771.19446  -4489611.79261
 92  5 28  0 29 44.9990000  0  5G24G20G12G13G16
  20274498.8944   -1061975.08547   -827511.99163
  22418470.2614   -6809876.66546  -5306391.12061
  21321490.433     1104237.217 7    860443.25522
  23135972.9404    2363601.01346   1841764.51261
  23141636.034    -6120248.353 6  -4533619.88721
 92  5 28  0 29 59.9990000  0  5G24G20G12G13G16
  20274266.9564   -1063191.24747   -828459.64563
  22407521.6444   -6867414.57346  -5351225.81561
  21325095.839     1123185.515 7    875208.14122
  23140194.644     2385793.657 6   1859057.44821
  23130900.214    -6176672.602 6  -4577586.75421
 92  5 28  0 30 14.9990000  0  5G24G20G12G13G16
  20274062.7764   -1064269.75247   -829300.03463
  22396583.8474   -6924886.02546  -5396008.72761
  21328729.409     1142283.284 7    890089.49722
  23144421.7924    2408000.70946   1876361.61261
  23120172.737    -6233050.602 6  -4621517.59221
 92  5 28  0 30 29.9990000  0  5G24G20G12G13G16
  20273883.3624   -1065214.04048   -830035.83663
  22385661.2454   -6982291.12546  -5440739.94061
  21332392.105     1161529.763 7    905086.73322
  23148650.7064    2430221.72846   1893676.65461
  23109450.3314   -6289383.51446  -4665413.29661
 92  5 28  0 30 44.9990000  0  5G24G20G12G13G16
  20273728.9874   -1066019.62547   -830663.56363
  22374751.800    -7039624.434 6  -5485415.20021
  21336083.597     1180929.970 7    920203.75322
  23152883.370     2452462.029 6   1911006.72621
  23098741.730    -6345664.911 6  -4709268.85421
 92  5 28  0 30 59.9990000  0  5G24G20G12G13G16
  20273601.7534   -1066690.54547   -831186.35363
  22363853.2614   -7096889.12846  -5530037.00261
  21339801.362     1200479.945 7    935437.47522
  23157120.5114    2474717.74246   1928348.81461
  23088040.323    -6401899.336 6  -4753087.81121
 92  5 28  0 31 14.9990000  0  5G24G20G12G13G16
  20273498.8004   -1067226.60347   -831604.05463
  22352969.9874   -7154083.60346  -5574604.08461
  21343552.558     1220180.712 7    950788.69822
  23161356.558     2496990.279 6   1945704.01721
  23077347.378    -6458081.207 6  -4796865.82221
 92  5 28  0 31 29.9990000  0  5G24G20G12G13G16
  20273421.3394   -1067630.47447   -831918.75263
  22342099.8944   -7211209.83246  -5619117.99161
  21347330.5974    1240029.70247    966255.40862
  23165597.8394    2519277.26446   1963070.46561
  23066668.331    -6514207.680 6  -4840600.65821
 92  5 28  0 31 44.9990000  0  5G24G20G12G13G16
  20273372.4174   -1067896.10847   -832125.74363
  22331241.956    -7268264.462 6  -5663576.10221
  21351135.8154    1260029.43347    981839.58862
  23169843.612     2541581.591 6   1980450.42821
  23055999.487    -6570274.600 6  -4884289.09221
 92  5 28  0 31 59.9990000  0  5G24G20G12G13G16
  20273347.4484   -1068025.93847
  22320399.2764   -7325250.23946  -5707980.56761
  21354969.823     1280176.713 7    997538.74122
  23174089.4094    2563900.39846   1997841.67661
  23045338.948    -6626281.560 6  -4927930.80521
 92  5 28  0 32 14.9990000  0  5G24G20G12G13G16
  20273348.0814   -1068021.23547
  22309567.4874   -7382166.17346  -5752330.60361
  21358831.6444    1300472.25547   1013353.42162
  23178338.5974    2586234.30246   2015244.69661
  23034696.831    -6682226.283 6  -4971524.01521
 92  5 28  0 32 29.9990000  0  5G24G20G12G13G16
  20273376.6834   -1067880.34947
  22298748.878    -7439012.530 6  -5796626.42721
  21362720.9874    1320915.07047   1029282.86062
  23182592.3004    2608582.73946   2032659.04461
  23024062.222    -6738109.009 6  -5015068.91721
 92  5 28  0 32 44.9990000  0  5G24G20G12G13G16
  20273427.5654   -1067598.53047
  22287946.1204   -7495786.86546  -5840866.12761
  21366639.1204    1341506.99947   1045328.48662
  23186849.769     2630947.744 6   2050086.28821
  23013438.628    -6793923.984 6  -5058561.02821
 92  5 28  0 32 59.9990000  0  5G24G20G12G13G16
  20273509.6594   -1067171.85847   -831561.37963
  22277155.5344   -7552487.71646  -5885048.57061
  21370586.870     1362248.710 7   1061490.83622
  23191109.011     2653330.460 6   2067527.33121
  23002832.878    -6849669.841 6  -5101999.28021
 92  5 28  0 33 14.9990000  0  5G24G20G12G13G16
  20273616.8474   -1066604.21747   -831119.05963
  22266379.3944   -7609118.50246  -5929176.41961
  21374562.3154    1383136.25747   1077766.81362
  23195372.167     2675726.942 6   2084979.12021
  22992234.222    -6905349.253 6  -5145385.76121
 92  5 28  0 33 29.9990000  0  5G24G20G12G13G16
  20273751.8624   -1065900.92747   -830571.03963
  22255614.4724   -7665684.18346  -5973253.53161
  21378562.276     1404164.166 7   1094152.17322
  23199634.7534    2698132.05646   2102437.64561
  22981653.128    -6960966.776 6  -5188724.01721
 92  5 28  0 33 44.9990000  0  5G24G20G12G13G16
  20273912.1834   -1065058.31447   -829914.45763
  22244864.3864   -7722179.71946  -6017275.98661
  21382592.9094    1425336.84447   1110650.33062
  23203898.378     2720550.607 6   2119906.60421
  22971081.933    -7016519.426 6  -5232011.72121
 92  5 28  0 33 59.9990000  0  5G24G20G12G13G16
  20274100.3554   -1064072.28147   -829146.11963
  22234128.581    -7778599.355 6  -6061239.30221
  21386650.417     1446659.468 7   1127265.33722
  23208168.7694    2742987.86446   2137390.15561
  22960522.308    -7072001.984 6  -5275244.80821
 92  5 28  0 34 14.9990000  0  5G24G20G12G13G16
  20274313.5734   -1062946.64847   -828269.00463
  22223406.2694   -7834942.58146  -6105143.07061
  21390736.378     1468131.968 7   1143997.13922
  23212445.128     2765444.044 6   2154888.46321
  22949980.612    -7127412.786 6  -5318421.98021
 92  5 28  0 34 29.9990000  0  5G24G20G12G13G16
  20274553.7534   -1061686.11947   -827286.77563
  22212698.667    -7891214.287 6  -6148991.11221
  21394851.2224    1489748.83147   1160841.41162
  23216717.394     2787913.912 6   2172397.42821
  22939446.073    -7182757.778 6  -5361547.87521
 92  5 28  0 34 44.9990000  0  5G24G20G12G13G16
  20274819.0584   -1060293.70847   -826201.77763
  22202004.6594   -7947416.43746  -6192784.95661
  21398990.370     1511507.585 7   1177796.25522
  23220996.628     2810395.092 6   2189915.21521
  22928927.550    -7238037.641 6  -5404623.01921
 92  5 28  0 34 59.9990000  0  5G24G20G12G13G16
  20275108.9874   -1058770.17047   -825014.60263
  22191321.769    -8003548.452 6  -6236524.15121
  21403158.0264    1533407.93847   1194861.43762
  23225275.3004    2832887.84946   2207442.00461
  22918420.550    -7293250.915 6  -5447646.27221
 92  5 28  0 35 14.9990000  0  5G24G20G12G13G16
  20275422.5584   -1057114.78047   -823724.69063
  22180655.901    -8059605.763 6  -6280205.12521
  21407353.565     1555454.074 7   1212040.22222
  23229560.9404    2855396.21746   2224980.97861
  22907926.292    -7348394.056 6  -5490614.87621
 92  5 28  0 35 29.9990000  0  5G24G20G12G13G16
  20275762.6834   -1055332.81447   -822336.14663
  22170000.4564   -8115589.26046  -6323828.59261
  21411576.5584    1577644.30847   1229331.28862
  23233847.0974    2877919.12046   2242531.26261
  22897448.112    -7403467.093 6  -5533528.85621
 92  5 28  0 35 44.9990000  0  5G24G20G12G13G16
  20276126.2534   -1053421.89847   -820847.11863
  22159362.120    -8171495.599 6  -6367391.93121
  21415826.4564    1599981.45547   1246736.82362
  23238136.636     2900459.468 6   2260095.15321
  22886979.761    -7458467.989 6  -5576386.62021
 92  5 28  0 35 59.9990000  0  5G24G20G12G13G16
  20276513.2694   -1051389.09347   -819263.11563
  22148736.2064   -8227331.93546  -6410900.72061
  21420103.3004    1622457.81647
  23242427.636     2923009.848 6
  22876525.784    -7513405.052 6  -5619194.65021
 92  5 28  0 36 14.9990000  0  5G24G20G12G13G16
  20276923.4874   -1049231.07747   -817581.54663
  22138124.8314   -8283095.26246  -6454352.62561
  21424407.651     1645075.664 7   1281875.11322
  23246721.730     2945573.074 6   2295248.55321
  22866083.7224   -7568278.23946  -5661952.90661
 92  5 28  0 36 29.9990000  0  5G24G20G12G13G16
  20277357.7764   -1046947.72747   -815802.30963
  22127528.4874   -8338787.32246  -6497748.99561
  21428738.058     1667832.654 7   1299607.81622
  23251017.4014    2968146.81246   2312838.45161
  22855653.401    -7623091.212 6  -5704664.22621
 92  5 28  0 36 44.9990000  0  5G24G20G12G13G16
  20277818.9564   -1044533.46947   -813921.06963
  22116943.8234   -8394405.14346  -6541087.52061
  21433095.3154    1690731.20947   1317450.81362
  23255314.1904    2990733.81946   2330438.68461
  22845234.870    -7677841.677 6  -5747326.85921
 92  5 28  0 36 59.9990000  0  5G24G20G12G13G16
  20278302.7304   -1041987.39847   -811937.11663
  22106374.105    -8449949.023 6  -6584368.42221
  21437481.2064    1713770.24547   1335403.26562
  23259613.019     3013333.396 6   2348048.73721
  22834825.636    -7732530.881 6  -5789941.74721
 92  5 28  0 37 14.9990000  0  5G24G20G12G13G16
  20278812.5344   -1039307.70547   -809849.04163
  22095818.269    -8505418.081 6  -6627591.03021
  21441891.690     1736950.200 7   1353465.55922
  23263918.1674    3035946.11946   2365668.99361
  22824432.7844   -7787159.16346  -5832509.16461
 92  5 28  0 37 29.9990000  0  5G24G20G12G13G16
  20279348.2764   -1036494.66047   -807657.05963
  22085277.9334   -8560810.08246  -6670753.58661
  21446329.339     1760272.602 7   1371638.84422
  23268222.4644    3058573.91346   2383301.04061
  22814048.050    -7841724.077 6  -5875027.20421
 92  5 28  0 37 44.9990000  0  5G24G20G12G13G16
  20279908.6284   -1033545.90747   -805359.33063
  22074751.3394   -8616126.45446  -6713857.21861
  21450794.8004    1783735.47447   1389921.56862
  23272533.159     3081215.097 6   2400943.48521
  22803677.753    -7896226.284 6  -5917496.38221
 92  5 28  0 37 59.9990000  0  5G24G20G12G13G16
  20280495.4174   -1030463.54647   -802957.49063
  22064239.6204   -8671371.79046  -6756905.48661
  21455285.2454    1807333.61547   1408309.69362
  23276841.5974    3103864.59246   2418592.40861
  22793316.362    -7950669.262 6  -5959919.40421
 92  5 28  0 38 14.9990000  0  5G24G20G12G13G16
  20281108.7144   -1027243.64747   -800448.47663
  22053740.058    -8726541.602 6  -6799894.90621
  21459801.565     1831070.711 7   1426806.08422
  23281154.964     3126526.662 6   2436251.14521
  22782969.9174   -8005048.14046  -6002292.48661
 92  5 28  0 38 29.9990000  0  5G24G20G12G13G16
  20281746.9404   -1023887.05647   -797832.95163
  22043256.0194   -8781635.89346  -6842825.48661
  21464345.1124    1854946.30347   1445410.43462
  23285471.089     3149200.824 6   2453919.28421
  22772632.722    -8059357.996 6  -6044611.77521
 92  5 28  0 38 44.9990000  0  5G24G20G12G13G16
  20282411.4564   -1020392.66147   -795110.04663
  22032787.3784   -8836652.46146  -6885695.50261
  21468915.9094    1878961.74547   1464123.73062
  23289787.089     3171889.051 6   2471598.40621
  22762314.112    -8113592.301 6  -6086872.19621
 92  5 28  0 38 59.9990000  0  5G24G20G12G13G16
  20283101.5504   -1016769.07147   -792286.47163
  22022331.9014   -8891595.68646  -6928508.37262
  21473510.1444    1903112.25047   1482942.27062
  23294106.2614    3194586.61746   2489284.78061
  22752006.269    -8167755.041 6  -6129076.85421
 92  5 28  0 39 14.9990000  0  5G24G20G12G13G16
  20283816.9254   -1013010.47947   -789357.69863
  22011890.4014   -8946456.82046  -6971257.26961
  21478133.894     1927405.987 7   1501872.42622
  23298428.714     3217301.939 6   2506985.00521
  22741717.120    -8221835.590 6  -6171217.46821
 92  5 28  0 39 29.9990000  0  5G24G20G12G13G16
  20284555.1754   -1009125.55447   -786330.48663
  22001466.9804   -9001239.24546  -7013944.84161
  21482783.511     1951838.804 7   1520910.96022
  23302755.245     3240031.164 6   2524696.06221
  22731440.0734   -8275835.48046  -6213295.23361
 92  5 28  0 39 44.9990000  0  5G24G20G12G13G16
  20285320.3394   -1005111.69247   -783202.80363
  21991057.0974   -9055941.26246  -7056569.75261
  21487458.8234    1976411.60547   1540058.56562
  23307083.401     3262775.680 6   2542419.02421
  22721179.894    -8329752.823 6  -6255308.67521
 92  5 28  0 39 59.9990000  0  5G24G20G12G13G16
  20286106.5114   -1000973.51447   -779978.24763
  21980662.2924   -9110568.83246  -7099136.65462
  21492161.237     2001118.008 7   1559310.28422
  23311411.4804    3285529.14546   2560148.96561
  22710933.7844   -8383595.62046  -6297264.03561
 92  5 28  0 40 14.9990000  0  5G24G20G12G13G16
  20286916.8784    -996716.19347   -776660.85463
  21970279.9174   -9165124.25646  -7141647.33962
  21496887.745     2025954.936 7   1578663.71322
  23315742.503     3308288.852 6   2577883.78121
  22700701.4174   -8437366.87646  -6339163.64861
 92  5 28  0 40 29.9990000  0  5G24G20G12G13G16
  20287751.5194    -992331.76647   -773244.41663
  21959914.8474   -9219597.19246  -7184093.75062
  21501639.4644    2050932.07447   1598126.38362
  23320078.042     3331064.861 6   2595631.30921
  22690482.6834   -8491057.41546  -6381000.36661
 92  5 28  0 40 44.9990000  0  5G24G20G12G13G16
  20288609.4484    -987825.48847   -769733.02963
  21949563.3704   -9273993.25746  -7226480.25562
  21506418.9644    2076043.31247   1617693.55562
  23324411.855     3353851.454 6   2613387.05121
  22680282.1904   -8544674.19146  -6422779.61061
 92  5 28  0 40 59.9990000  0  5G24G20G12G13G16
  20289490.7694    -983192.12647   -766122.62563
  21939227.2224   -9328306.40746  -7268802.15862
  21511223.0894    2101294.02347   1637369.40362
  23328752.714     3376654.197 6   2631155.40021
  22670091.315    -8598215.129 6  -6464499.76721
 92  5 28  0 41 14.9990000  0  5G24G20G12G13G16
  20290395.2454    -978437.54047   -762417.75163
  21928907.4724   -9382543.14247  -7311064.51562
  21516052.909     2126676.962 7   1657148.28822
  23333094.964     3399466.146 6   2648930.89021
  22659916.9954   -8651687.45846  -6506166.45461
 92  5 28  0 41 29.9990000  0  5G24G20G12G13G16
  20291324.6834    -973558.32047   -758615.75663
  21918600.4564   -9436702.50747  -7353266.58462
  21520910.2144    2152192.47347   1677030.47462
  23337436.042     3422287.882 6   2666714.05521
  22649754.1204   -8705090.16846  -6547778.88861
 92  5 28  0 41 44.9990000  0  5G24G20G12G13G16
  20292277.4254    -968550.50347   -754713.55763
  21908309.9564   -9490781.92447  -7395406.35762
  21525790.3474    2177842.63247   1697017.57862
  23341780.433     3445121.859 6   2684506.71621
  22639606.5734   -8758421.70246  -6589335.86361
 92  5 28  0 41 59.9990000  0  5G24G20G12G13G16
  20293253.9014    -963416.23647   -750712.82663
  21898034.0424   -9544784.75947  -7437486.45462
  21530696.4094    2203623.28546   1717106.37362
  23346128.714     3467964.506 5   2702306.16821
  22629468.753    -8811686.088 6  -6630840.52321
 92  5 28  0 42 14.9990000  0  5G24G20G12G13G16
  20294255.5264    -958154.53047   -746612.79063
  21887771.9334   -9598707.74046  -7479504.32962
  21535626.7844    2229537.12446   1737298.94462
  23350476.9724    3490818.54045   2720114.44561
  22619347.6514   -8864879.42846  -6672289.81361
 92  5 28  0 42 29.9990000  0  5G24G20G12G13G16
  20295281.2534    -952765.59047   -742413.61763
  21877527.0734   -9652549.69346  -7521459.06561
  21540583.9874    2255584.63646   1757595.67762
  23354828.4254    3513684.90246   2737932.36761
  22609238.3234   -8917999.70746  -6713682.18161
 92  5 28  0 42 44.9990000  0  5G24G20G12G13G16
  20296330.2144    -947251.47947   -738116.90463
  21867294.9094   -9706313.15046  -7563352.63962
  21545567.1834    2281762.60046   1777994.06062
  23359181.7454    3536560.67046   2755757.59561
  22599145.167    -8971049.157 6  -6755019.35521
 92  5 28  0 42 59.9990000  0  5G24G20G12G13G16
  20297403.6754    -941608.50047   -733719.77663
  21857081.2304   -9759994.42246  -7605182.17061
  21550572.2694    2308073.93946   1798496.36862
  23363537.980     3559449.043 6   2773592.66921
  22589062.0114   -9024023.28646  -6796297.83561
 92  5 28  0 43 14.9990000  0  5G24G20G12G13G16
  20298501.5504    -935837.82547   -729223.14563
  21846880.3474   -9813592.79846  -7646947.10662
  21555604.8864    2334518.97646   1819102.86162
  23367896.2764    3582350.50046   2791437.90661
  22578998.8864   -9076920.60446  -6837516.46161
 92  5 28  0 43 29.9990000  0  5G24G20G12G13G16
  20299623.4644    -929945.27347   -724631.54563
  21836696.0034   -9867113.94447  -7688651.86762
  21560661.8944    2361091.40146   1839808.61562
  23372253.909     3605259.310 6   2809288.89021
  22568943.8944   -9129746.12246  -6878679.14661
 92  5 28  0 43 44.9990000  0  5G24G20G12G13G16
  20300766.8704    -923935.14747   -719948.33563
  21826525.5654   -9920559.53747  -7730297.75762
  21565741.3394    2387788.73946   1860611.70562
  23376618.011     3628173.220 6   2827143.85621
  22558906.9094   -9182500.79446  -6919786.61561
 92  5 28  0 43 59.9990000  0  5G24G20G12G13G16
  20301933.8624    -917802.71447   -715169.81763
  21816370.558    -9973923.933 7  -7771880.37722
  21570847.3944    2414615.82746   1881515.89862
  23380978.1444    3651097.56946   2845006.96361
  22548881.472    -9235179.728 6  -6960835.06321
 92  5 28  0 44 14.9990000  0  5G24G20G12G13G16
  20303125.2304    -911544.52047   -710293.30163
  21806231.3314  -10027203.98047  -7813397.26562
  21575976.7304    2441575.43046   1902523.34662
  23385344.151     3674035.317 6   2862880.49921
  22538871.4874   -9287781.23646  -7001823.19261
 92  5 28  0 44 29.9990000  0  5G24G20G12G13G16
  20304338.9724    -905160.79447   -705318.97063
  21796108.8084  -10080401.20847  -7854849.62262
  21581131.8394    2468665.35146   1923632.34062
  23389709.0894    3696984.43445   2880762.90461
  22528876.472    -9340305.952 6  -7042751.48321
 92  5 28  0 44 44.9990000  0  5G24G20G12G13G16
  20305578.0894    -898655.65347   -700250.02963
  21786000.784   -10133518.934 7  -7896240.03422
  21586312.2304    2495881.50146   1944839.69962
  23394078.0584    3719941.26745   2898651.28161
  22518894.8554   -9392756.08146  -7083621.64761
 92  5 28  0 44 59.9980000  0  5G24G20G12G13G16
  20306839.3034    -892024.03147   -695082.53563
  21775909.1544  -10186548.65447  -7937561.86462
  21591515.6314    2523226.41846   1966147.39262
  23398448.475     3742908.755 5   2916547.98221
  22508933.3424   -9445121.42246  -7124425.74061
 92  5 28  0 45 14.9980000  0  5G24G20G12G13G16
  20308124.2254    -885272.00847   -689821.22063
  21765832.772   -10239504.495 7  -7978826.12922
  21596742.2644    2550695.99546   1987552.22062
  23402821.0454    3765882.83245   2934449.82961
  22498977.6474   -9497417.29546  -7165175.70861
 92  5 28  0 45 29.9980000  0  5G24G20G12G13G16
  20309432.9984    -878391.57347   -684459.84463
  21755771.2794  -10292374.05647  -8020023.16162
  21601994.7014    2578296.51846   2009059.09362
  23407195.9904    3788870.49845   2952362.25861
  22489044.6624   -9549631.18446  -7205861.79161
 92  5 28  0 45 44.9980000  0  5G24G20G12G13G16
  20310766.4044    -871387.66247   -679002.24963
  21745726.8504  -10345162.51347  -8061156.99262
  21607270.8344    2606022.11946   2030663.41962
  23411570.748     3811866.134 5   2970280.92521
  22479122.2954   -9601767.52046  -7246487.44861
 92  5 28  0 45 59.9980000  0  5G24G20G12G13G16
  20312123.0144    -864257.86447   -673446.56563
  21735697.1624  -10397867.19447  -8102225.54662
  21612571.5064    2633875.04646   2052366.96162
  23415947.2874    3834871.99945   2988207.49661
  22469217.1544   -9653824.32246  -7287051.12561
 92  5 28  0 46 14.9980000  0  5G24G20G12G13G16
  20313504.6394    -856997.48947   -667789.13263
  21725684.9124  -10450484.51247  -8143226.02362
  21617896.1074    2661858.05446   2074171.87462
  23420328.225     3857891.342 5   3006144.62021
  22459327.3504   -9705799.93246  -7327551.53661
 92  5 28  0 46 29.9980000  0  5G24G20G12G13G16
  20314910.0454    -849610.48347   -662033.02563
  21715687.8894  -10503016.06547  -8184159.67262
  21623245.0064    2689968.86446   2096076.36262
  23424712.2484    3880922.37445   3024090.84361
  22449449.5844   -9757695.28146  -7367989.40061
 92  5 28  0 46 44.9980000  0  5G24G20G12G13G16
  20316339.5614    -842101.20147   -656181.64064
  21705705.8114  -10555462.75647  -8225027.18962
  21628618.8734    2718205.93646   2118079.24062
  23429096.756     3903963.806 5   3042045.18921
  22439591.2644   -9809509.88146  -7408364.35261
 92  5 28  0 46 59.9980000  0  5G24G20G12G13G16
  20317792.2564    -834469.14147   -650234.57963
  21695744.6474  -10607822.25147  -8265826.76762
  21634015.7014    2746571.01646   2140181.86762
  23433486.553     3927017.795 5   3060009.29421
  22429743.8574   -9861244.71746  -7448677.14461
 92  5 28  0 47 14.9980000  0  5G24G20G12G13G16
  20319266.3654    -826718.57547   -644195.17763
  21685794.8894  -10660100.11747  -8306562.73462
  21639437.9674    2775057.71446   2162379.26162
  23437871.748     3950078.373 5   3077978.54221
  22419915.1394   -9912907.45146  -7488933.75461
 92  5 28  0 47 29.9980000  0  5G24G20G12G13G16
  20320763.8114    -818852.87647   -638066.06364
  21675862.9204  -10712296.03747  -8347234.84862
  21644881.4904    2803665.78046   2184671.22162
  23442262.467     3973145.431 5   3095952.82421
  22410097.0374   -9964497.96246  -7529134.08961
 92  5 28  0 47 44.9980000  0  5G24G20G12G13G16
  20322282.3654    -810868.67347   -631844.60663
  21665946.8264  -10764405.17147  -8387839.33562
  21650349.4044    2832399.30446   2207060.94962
  23446651.6784    3996223.56645   3113935.75961
  22400292.0534  -10016007.81246  -7569271.56861
 92  5 28  0 47 59.9980000  0  5G24G20G12G13G16
  20323825.1784    -802768.05747   -625532.44263
  21656045.6154  -10816429.90047  -8428378.05062
  21655840.9284    2861255.25346   2229546.06862
  23451044.0454    4019309.87945   3131925.05361
  22390509.0614  -10067437.92346  -7609346.91461
 92  5 28  0 48 14.9980000  0  5G24G20G12G13G16
  20325388.6704    -794545.67047   -619125.39264
  21646164.4984  -10868365.12047  -8468847.01562
  21661356.0294    2890238.18546   2252130.12962
  23455442.514     4042409.396 5   3149924.64021
  22380735.8344  -10118782.20746  -7649355.38361
 92  5 28  0 48 29.9980000  0  5G24G20G12G13G16
  20326976.0454    -786206.46147   -612627.31164
  21636296.5844  -10920215.84247  -8509250.14862
  21666892.9674    2919342.21746   2274808.55761
  23459839.8734    4065516.65345   3167930.25161
  22370981.5374  -10170044.04146  -7689299.60361
 92  5 28  0 48 44.9980000  0  5G24G20G12G13G16
  20328585.5454    -777745.51847   -606034.37364
  21626445.2094  -10971977.23747  -8549583.66962
  21672456.4824    2948571.64946   2297584.70761
  23464240.623     4088636.270 5   3185945.53621
  22361245.4204  -10221217.05646  -7729174.61061
 92  5 28  0 48 59.9980000  0  5G24G20G12G13G16
  20330219.1544    -769166.39847   -599349.34664
  21616613.6154  -11023652.61847  -8589850.16962
  21678040.1544    2977922.39146   2320455.37761
  23468641.2874    4111764.45645   3203967.47461
  22351520.7644  -10272304.59146  -7768983.01361
 92  5 28  0 49 14.9980000  0  5G24G20G12G13G16
  20331873.8734    -760465.55147   -592569.47064
  21606795.9044  -11075241.70747  -8630049.42962
  21683649.5534    3007394.05846   2343420.27561
  23473042.529     4134901.159 5   3221996.01821
  22341817.920   -10323304.791 6  -7808723.36221
 92  5 28  0 49 29.9980000  0  5G24G20G12G13G16
  20333553.6234    -751639.35047   -585691.91164
  21596996.3654  -11126740.35247  -8670178.21262
  21689281.0764    3036989.92846   2366481.95262
  23477446.7874    4158050.03045   3240034.07061
  22332130.4594  -10374210.06846  -7848389.74661
 92  5 28  0 49 44.9980000  0  5G24G20G12G13G16
  20335256.8034    -742690.00147   -578718.40164
  21587213.0684  -11178149.16847  -8710236.99862
  21694937.6004    3066708.94246   2389639.59261
  23481854.076     4181210.377 5   3258081.06221
  22322460.1624  -10425019.90646  -7887981.76361
 92  5 28  0 49 59.9980000  0  5G24G20G12G13G16
  20336982.6864    -733620.57847   -571651.31764
  21577446.3264  -11229472.07747  -8750228.84162
  21700614.6624    3096546.60646   2412889.68361
  23486264.326     4204378.298 5   3276133.96921
  22312810.912   -10475741.689 6  -7927505.15421
 92  5 28  0 50 14.9980000  0  5G24G20G12G13G16
  20338731.1394    -724431.30647   -564490.85164
  21567697.2174  -11280707.73447  -8790152.69462
  21706316.2484    3126503.56146   2436232.73061
  23490673.490     4227554.467 5   3294193.27721
  22303171.9594  -10526378.51246  -7966962.36161
 92  5 28  0 50 29.9980000  0  5G24G20G12G13G16
  20340504.7174    -715114.09847   -557230.69364
  21557965.6934  -11331844.86647  -8829999.77962
  21712040.9904    3156590.25246   2459676.86361
  23495089.162     4250749.777 5   3312267.47821
  22293554.6704  -10576922.25646  -8006347.03261
 92  5 28  0 50 44.9980000  0  5G24G20G12G13G16
  20342307.3264    -705640.06547   -549848.33164
  21548258.4514  -11382852.73147  -8869746.13762
  21717797.2954    3186836.81846   2483245.58061
  23499512.272     4273994.703 5   3330380.40221
  22283959.5224  -10627343.50546  -8045636.25461
 92  5 28  0 50 59.9980000  0  5G24G20G12G13G16
  20344131.5684    -696055.97348   -542380.21064
  21538569.5294  -11433774.64747  -8909425.52362
  21723573.4204    3217199.31946   2506904.63061
  23503937.529     4297245.770 5   3348498.05121
  22274380.1474  -10677684.40946  -8084862.87061
 92  5 28  0 51 14.9980000  0  5G24G20G12G13G16
  20345974.7254    -686363.46047   -534827.60664
  21528894.7644  -11484610.23947  -8949037.64662
  21729373.3734    3247677.35446   2530653.71161
  23508362.928     4320502.914 5   3366620.50821
  22264820.2404  -10727943.36546  -8124025.63161
 92  5 28  0 51 29.9980000  0  5G24G20G12G13G16
  20347841.3814    -676558.61048   -527187.47064
  21519239.2644  -11535355.57647  -8988579.43762
  21735196.7014    3278274.19046   2554495.36661
  23512788.912     4343769.672 5   3384750.38521
  22255268.3034  -10778115.73046  -8163120.91761
 92  5 28  0 51 44.9980000  0  5G24G20G12G13G16
  20349727.2954    -666643.41047   -519461.34064
  21509599.998   -11586007.583 7  -9028048.50722
  21741041.2484    3308992.18046   2578431.42061
  23517219.8114    4367048.73645   3402889.92161
  22245737.7794  -10828200.17546  -8202147.68961
 92  5 28  0 51 59.9980000  0  5G24G20G12G13G16
  20351635.2874    -656623.52647   -511653.64464
  21499977.1154  -11636571.98247  -9067449.31462
  21746909.6004    3339824.89546   2602456.87561
  23521648.9984    4390334.15445   3421034.38561
  22236222.9514  -10878202.85346  -8241110.75561
 92  5 28  0 52 14.9980000  0  5G24G20G12G13G16
  20353562.6474    -646493.24448   -503759.92464
  21490374.873   -11687044.104 7  -9106778.21222
  21752799.3114    3370776.35046   2626574.84761
  23526083.475     4413630.314 5   3439187.19221
  22226722.6154  -10928117.86646  -8280005.50961
 92  5 28  0 52 29.9980000  0  5G24G20G12G13G16
  20355512.6004    -636248.68548   -495777.15164
  21480785.6704  -11737422.36747  -9146033.97362
  21758710.4044    3401847.38646   2650786.00961
  23530517.404     4436938.491 5   3457349.37721
  22217244.0374  -10977939.32846  -8318827.36861
 92  5 28  0 52 44.9980000  0  5G24G20G12G13G16
  20357482.5454    -625893.57248   -487708.23764
  21471215.6864  -11787713.46947  -9185221.81362
  21764645.8344    3433030.74946   2675084.69161
  23534954.2094    4460251.72045   3475515.51361
  22207781.2564  -11027672.02346  -8357580.06061
 92  5 28  0 52 59.9980000  0  5G24G20G12G13G16
  20359474.6864    -615427.07548   -479552.52664
  21461663.717   -11837918.032 7  -9224342.22922
  21770600.7794    3464325.03746   2699469.81361
  23539390.8894    4483568.75245   3493684.57361
  22198331.9044  -11077314.79246  -8396262.67761
 92  5 28  0 53 14.9980000  0  5G24G20G12G13G16
  20361488.6864    -604839.59348   -471302.54664
  21452126.357   -11888028.305 7  -9263389.17322
  21776578.5374    3495737.27946   2723946.84561
  23543832.3344    4506897.35545   3511862.68961
  22188906.3974  -11126860.41446  -8434869.59961
 92  5 28  0 53 29.9980000  0  5G24G20G12G13G16
  20363527.7954    -594125.47848   -462953.88664
  21442609.8974  -11938040.72547  -9302359.85962
  21782579.0064    3527270.21246   2748517.92061
  23548275.467     4530240.608 5   3530052.17521
  22179497.2644  -11176309.21246  -8473401.06861
 92  5 28  0 53 44.9980000  0  5G24G20G12G13G16
  20365590.2094    -583287.04047   -454508.35664
  21433111.5614  -11987958.18247  -9341256.54262
  21788602.2404    3558920.34946   2773180.32461
  23552719.1074    4553595.14945   3548250.51261
  22170100.5144  -11225668.01746  -8511862.41461
 92  5 28  0 53 59.9980000  0  5G24G20G12G13G16
  20367676.8504    -572325.84048   -445967.16364
  21423628.951   -12037783.221 7  -9380081.23322
  21794645.4364    3590684.61146   2797931.66161
  23557164.5684    4576958.22945   3566455.47761
  22160727.1934  -11274941.22046  -8550257.05761
 92  5 28  0 54 14.9980000  0  5G24G20G12G13G16
  20369785.5684    -561239.73847   -437328.64464
  21414166.045   -12087515.664 7  -9418833.76322
  21800713.9514    3622562.22246   2822771.32061
  23561611.490     4600329.538 5   3584666.83121
  22151365.8504  -11324128.71346  -8588584.92061
 92  5 28  0 54 29.9980000  0  5G24G20G12G13G16
  20371918.1314    -550032.64447   -428595.84964
  21404719.9904  -12137157.24147  -9457515.48462
  21806800.8184    3654551.02346   2847697.61761
  23566060.3734    4623707.28545   3602883.23861
  22142021.0064  -11373232.32946  -8626847.42261
 92  5 28  0 54 44.9980000  0  5G24G20G12G13G16
  20374072.7484    -538706.05147   -419769.93664
  21395290.522   -12186705.458 7  -9496124.46222
  21812909.412     3686652.720 6   2872711.88321
  23570510.404     4647093.729 5   3621106.39921
  22132695.850   -11422252.023 6  -8665044.53321
 92  5 28  0 54 59.9980000  0  5G24G20G12G13G16
  20376251.9904    -527259.70447   -410850.71364
  21385881.975   -12236155.649 7  -9534657.05422
  21819040.0684    3718871.39946   2897817.30661
  23574963.5374    4670493.21945   3639339.71861
  22123381.475   -11471182.626 6  -8703172.21921
 92  5 28  0 55 14.9980000  0  6G24G20G12G13G16G 3
  20378451.2014    -515702.47648   -401845.08664
  21376489.186   -12285511.559 7  -9573116.18322
  21825192.6864    3751202.30646   2923010.18661
  23579417.482     4693901.549 5   3657579.92921
  22114086.7484  -11520026.18746  -8741232.07861
  24127415.2174     -43146.76844
 92  5 28  0 55 29.9980000  0  6G24G20G12G13G16G 3
  20380671.5144    -504035.76148   -392754.14264
  21367113.8814  -12334771.19747  -9611500.28662
  21831365.5224    3783646.74746   2948291.52061
  23583873.443     4717320.213 5   3675828.23321
  22104811.537   -11568781.617 6  -8779223.27421
  24119208.1234     -86252.80544
 92  5 28  0 55 44.9980000  0  6G24G20G12G13G16G 3
  20382911.1004    -492264.74548   -383581.92264
  21357759.998   -12383936.115 7  -9649810.59022
  21837561.3264    3816202.64946   2973659.72261
  23588332.9984    4740747.54045   3694083.24561
  22095547.943   -11617448.485 6  -8817145.44921
  24111014.7174    -129320.29844
 92  5 28  0 55 59.9980000  0  5G24G20G12G16G 3
  20385170.6934    -480393.70047   -374331.75964
  21348421.9204  -12433006.54047  -9688047.25762
  21843777.717     3848868.993 6   2999113.97521
  22086304.248   -11666023.050 6  -8854995.71321
  24102825.9044    -172349.84144
 92  5 28  0 56 14.9980000  0  5G24G20G12G16G 3
  20387448.4434    -468420.24947   -365001.80064
  21339101.4984  -12481976.94247  -9726205.98362
  21850016.139     3881650.800 6   3024658.19921
  22077083.459   -11714494.790 6  -8892765.85021
  24094642.748     -215336.204 4
 92  5 28  0 56 29.9980000  0  5G24G20G12G16G 3
  20389745.7094    -456350.13747   -355596.52364
  21329802.6784  -12530850.65847  -9764289.37262
  21856275.311     3914543.929 6   3050289.16721
  22067876.881   -11762864.328 6  -8930456.34621
  24086472.654     -258283.084 4        -0.09931
 92  5 28  0 56 44.9980000  0  5G24G20G12G16G 3
  20392060.2404    -444186.49647   -346118.36664
  21320520.2254  -12579630.46047  -9802299.57562
  21862554.8504    3947544.96646   3076004.22361
  22058690.154   -11811135.576 6  -8968070.25521
  24078307.795     -301193.718 4    -33436.86621
 92  5 28  0 56 59.9980000  0  5G24G20G12G16G 3
  20394392.7644    -431931.21347   -336568.79764
  21311253.6544  -12628319.88247  -9840239.35662
  21868854.6004    3980649.50846   3101799.92561
  22049524.3894  -11859312.17646  -9005610.40761
  24070147.654     -344071.941 4    -66848.37821
 92  5 28  0 57 14.9980000  0  5G24G20G12G16G 3
  20396741.2094    -419586.47447   -326949.52564
  21302006.522   -12676921.599 7  -9878110.80122
  21875173.3264    4013854.30146   3127673.75361
  22040373.842   -11907396.591 6  -9043078.73321
  24061996.357     -386920.913 4   -100237.09321
 92  5 28  0 57 29.9980000  0  5G24G20G12G16G 3
  20399110.4984    -407138.68347   -317249.95264
  21292776.7644  -12725425.23947  -9915905.81562
  21881512.9284    4047168.92846   3153633.16361
  22031241.537   -11955381.957 6  -9080469.87521
  24053845.1934    -429730.54844   -133595.14961
 92  5 28  0 57 44.9980000  0  5G24G20G12G16G 3
  20401499.0844    -394587.05347   -307469.46964
  21283563.6234  -12773832.15147  -9953625.45262
  21887873.1544    4080591.45746   3179676.65261
  22022130.279   -12003271.061 6  -9117786.01421
  24045708.904     -472502.616 4   -166923.96121
 92  5 28  0 57 59.9980000  0  5G24G20G12G16G 3
  20403907.4674    -381927.22047   -297604.67264
  21274372.5454  -12822140.55847  -9991268.33862
  21894255.4984    4114122.74046   3205804.87861
  22013033.920   -12051061.071 6  -9155024.93521
  24037575.6154    -515235.90944   -200222.55361
 92  5 28  0 58 14.9980000  0  5G24G20G12G16G 3
  20406338.8504    -369155.26647   -287652.50664
  21265197.7794  -12870349.47447 -10028833.69862
  21900654.904     4147763.223 6   3232018.20421
  22003960.303   -12098751.462 6  -9192186.22921
  24029453.0454    -557929.65744   -233490.31261
 92  5 28  0 58 29.9980000  0  5G24G20G12G16G 3
  20408788.2324    -356276.96547   -277617.47464
  21256040.334   -12918469.989 7 -10066330.18422
  21907076.1234    4181501.14846   3258307.45661
  21994903.303   -12146354.535 6  -9229279.48721
  24021334.100     -600595.460 4   -266736.32021
 92  5 28  0 58 44.9980000  0  5G24G20G12G16G 3
  20411262.3894    -343280.14547   -267490.08664
  21246903.8574  -12966490.50347 -10103748.74062
  21913515.803     4215347.220 6   3284680.98321
  21985860.912   -12193862.156 6  -9266298.36421
  24013219.8734    -643221.83644   -299951.57161
 92  5 28  0 58 59.9980000  0  5G24G20G12G16G 3
  20413757.7794    -330165.77547   -257271.09764
  21237784.0374  -13014411.61947 -10141089.84062
  21919976.7094    4249300.28646   3311137.87261
  21976837.139   -12241274.832 6  -9303243.25821
  24005117.9514    -685809.84544   -333136.94761
 92  5 28  0 59 14.9980000  0  5G24G20G12G16G 3
  20416275.0144    -316938.38847   -246964.04964
  21228682.4434  -13062235.25447 -10178354.98162
  21926457.3654    4283357.72946   3337676.09861
  21967836.193   -12288592.974 6  -9340114.48721
  23997019.9364    -728361.95743   -366294.34661
 92  5 28  0 59 29.9980000  0  5G24G20G12G16G 3
  20418813.1624    -303595.58147   -236567.06964
  21219601.842   -13109957.583 7 -10215541.18522
  21932959.623     4317522.620 6   3364298.04921
  21958848.178   -12335810.324 6  -9376907.17621
  23988929.5374    -770874.70443   -399421.07461
 92  5 28  0 59 44.9980000  0  5G24G20G12G16G 3
  20421375.5374    -290134.44447   -226077.87964
  21210540.4674  -13157575.35947 -10252645.91662
  21939481.389     4351797.464 6   3391005.67521
  21949881.834   -12382923.556 6  -9413618.73621
  23980850.8894    -813345.06143   -432514.75261
 92  5 28  0 59 59.9980000  0  5G24G20G12G16G 3
  20423958.4824    -276558.02047   -215498.85264
  21201497.897   -13205089.114 7 -10289669.59322
  21946025.1004    4386181.16146   3417798.12461
  21940940.061   -12429932.507 6  -9450249.03921
  23972775.5294    -855773.90443   -465576.10961
 92  5 28  1  0 14.9980000  0  5G24G20G12G16G 3
  20426564.6544    -262866.81347   -204830.38664
  21192477.4594  -13252499.71047 -10326612.88162
  21952587.311     4420672.005 6   3444674.06521
  21932011.998   -12476837.673 6  -9486798.47021
  23964708.0764    -898162.64743   -498606.21061
 92  5 28  1  0 29.9980000  0  5G24G20G12G16G 3
  20429190.6544    -249063.45347   -194074.52464
  21183474.928   -13299806.386 7 -10363475.20122
  21959172.5224    4455270.20246   3471633.65761
  21923103.818   -12523639.315 6  -9523267.23721
  23956648.654     -940510.821 3   -531604.70921
 92  5 28  1  0 44.9980000  0  5G24G20G12G16G 3
  20431837.5764    -235156.89447   -183238.25164
  21174490.2254  -13347014.34047 -10400260.59462
  21965775.7094    4489969.73846   3498672.21461
  21914220.053   -12570345.442 6  -9559661.56422
  23948599.1074    -982823.98444   -564575.90561
 92  5 28  1  0 59.9980000  0  5G24G20G12G16G 3
  20434502.4824    -221150.67547   -172324.31764
  21165526.459   -13394124.310 7 -10436969.63622
  21972397.982     4524769.166 6   3525788.60921
  21905347.006   -12616957.978 6  -9595982.97221
  23940553.584    -1025103.181 4   -597520.64421
 92  5 28  1  1 14.9980000  0  5G24G20G12G16G 3
  20437189.1314    -207037.84647   -161327.31064
  21156582.568   -13441130.600 7 -10473597.88722
  21979038.865     4559673.337 6   3552986.61721
  21896494.545   -12663469.863 6  -9632225.95322
  23932511.9594   -1067343.51144   -630435.13361
 92  5 28  1  1 29.9980000  0  5G24G20G12G16G 3
  20439895.2484    -192814.84647   -150244.46264
  21147657.311   -13488028.961 7 -10510142.04422
  21985702.428     4594685.815 6   3580269.02921
  21887666.990   -12709878.449 6  -9668388.44122
  23924484.076    -1109540.841 4   -663316.07021
 92  5 28  1  1 44.9980000  0  5G24G20G12G16G 3
  20442622.5224    -178481.47447   -139075.61164
  21138752.982   -13534821.965 7 -10546604.09922
  21992385.826     4629803.560 6   3607633.45821
  21878853.576   -12756188.257 6  -9704473.95922
  23916460.186    -1151698.092 4   -696165.78721
 92  5 28  1  1 59.9980000  0  5G24G20G12G16G 3
  20445369.9364    -164041.37347   -127823.58864
  21129868.506   -13581511.861 7 -10582985.81022
  21999087.092     4665023.361 6   3635077.41521
  21870057.076   -12802402.939 6  -9740485.35521
  23908444.482    -1193817.890 4   -728986.32921
 92  5 28  1  2 14.9980000  0  5G24G20G12G16G 3
  20448137.5844    -149499.08147   -116491.93964
  21121001.084   -13628103.129 7 -10619290.67422
  22005806.725     4700340.235 6   3662597.01021
  21861282.037   -12848525.770 6  -9776425.17622
  23900437.881    -1235904.900 4   -761781.31421
 92  5 28  1  2 29.9980000  0  5G24G20G12G16G 3
  20450924.5374    -134852.97247   -105079.38664
  21112154.193   -13674592.753 7 -10655516.33022
  22012547.7404    4735756.42846   3690194.00261
  21852523.928   -12894552.430 6  -9812290.05621
  23892435.6864   -1277956.73944   -794548.90661
 92  5 28  1  2 44.9980000  0  5G24G20G12G16G 3
  20453731.2324    -120105.26347    -93587.67364
  21103327.795   -13720982.345 7 -10691664.04522
  22019304.264     4771269.549 6   3717866.52221
  21843780.920   -12940484.965 6  -9848081.59522
  23884437.0534   -1319975.43744   -827290.64661
 92  5 28  1  2 59.9980000  0  5G24G20G12G16G 3
  20456556.5454    -105253.84347    -82015.13764
  21094518.107   -13767273.163 7 -10727734.79222
  22026080.904     4806877.612 6   3745613.01321
  21835058.928   -12986323.056 6  -9883799.54221
  23876447.225    -1361962.501 4   -860007.76121
 92  5 28  1  3 14.9980000  0  5G24G20G12G16G 3
  20459404.6864     -90290.47947    -70355.37664
  21085728.342   -13813456.968 7 -10763722.14922
  22032876.287     4842588.117 6   3773439.33621
  21826359.256   -13032053.179 6  -9919433.34922
  23868464.3974   -1403910.10744   -892694.10761
 92  5 28  1  3 29.9980000  0  5G24G20G12G16G 3
  20462271.9514     -75221.03047    -58612.96164
  21076961.631   -13859536.147 7 -10799627.98522
  22039693.045     4878397.962 6   3801343.06821
  21817673.951   -13077681.022 6  -9954987.46221
  23860491.9904   -1445821.07044   -925351.93461
 92  5 28  1  3 44.9980000  0  5G24G20G12G16G 3
  20465159.6074     -60048.83847    -46790.48164
  21068213.014   -13905512.894 7 -10835454.00022
  22046524.811     4914304.384 6   3829322.05321
  21809008.373   -13123207.056 6  -9990462.24521
  23852524.5454   -1487698.09344   -957983.28761
 92  5 28  1  3 59.9980000  0  5G24G20G12G16G 3
  20468066.7644     -44767.59247    -34883.01764
  21059482.506   -13951381.051 7 -10871195.40222
  22053375.318     4950312.525 6   3857380.29921
  21800371.342   -13168624.750 6 -10025852.60821
  23844558.732    -1529535.198 4   -990583.54821
 92  5 28  1  4 14.9980000  0  5G24G20G12G16G 3
  20470993.4434     -29393.82047    -22903.45564
  21050772.904   -13997153.899 7 -10906862.53222
  22060242.803     4986408.576 6   3885507.04721
  21791744.967   -13213945.631 6 -10061167.52822
  23836604.3814   -1571346.24844  -1023163.48261
 92  5 28  1  4 29.9980000  0  5G24G20G12G16G 3
  20473937.2254     -13920.29747    -10846.16364
  21042083.287   -14042824.295 7 -10942449.83222
  22067131.357     5022598.902 6   3913707.25721
  21783137.272   -13259162.106 6 -10096401.10222
  23828652.2014   -1613124.41744  -1055717.81561
 92  5 28  1  4 44.9980000  0  5G24G20G12G16G 3
  20476899.8184       1649.41047      1286.07364
  21033410.576   -14088395.563 7 -10977959.89022
  22074035.951     5058879.506 6   3941977.81721
  21774553.951   -13304276.543 6 -10131555.16021
  23820712.803    -1654873.284 4  -1088249.31821
 92  5 28  1  4 59.9980000  0  5G24G20G12G16G 3
  20479883.0454      17325.01047     13500.82164
  21024759.115   -14133857.853 7 -11013385.02922
  22080957.732     5095259.787 6   3970326.03621
  21765991.107   -13349281.019 6 -10166623.53721
  23812770.6314   -1696583.35144  -1120750.58361
 92  5 28  1  5 14.9980000  0  5G24G20G12G16G 3
  20482883.1074      33092.17847     25786.92164
  21016126.951   -14179219.871 7 -11048732.03922
  22087899.225     5131730.052 6   3998744.37521
  21757445.162   -13394184.391 6 -10201613.13222
  23804842.459    -1738263.766 4  -1153228.76321
 92  5 28  1  5 29.9980000  0  5G24G20G12G16G 3
  20485902.0294      48956.22147     38148.51264
  21007516.045   -14224472.151 7 -11083993.53022
  22094857.037     5168299.039 6   4027239.64521
  21748921.170   -13438978.858 6 -10236517.87021
  23796916.0064   -1779905.35544  -1185676.67061
 92  5 28  1  5 44.9980000  0  5G24G20G12G16G 3
  20488938.4594      64912.75947     50582.17864
  20998923.217   -14269621.234 7 -11119174.61222
  22101834.975     5204959.583 6   4055806.25521
  21740419.357   -13483671.243 6 -10271343.05622
  23788997.795    -1821515.267 4  -1218099.93021
 92  5 28  1  5 59.9980000  0  5G24G20G12G16G 3
  20491993.4594      80963.15947     63088.98764
  20990351.951   -14314667.230 7 -11154275.36823
  22108827.607     5241710.915 6   4084443.60721
  21731931.576   -13528257.301 6 -10306085.39522
  23781085.287    -1863093.699 4  -1250498.63921
 92  5 28  1  6 14.9980000  0  5G24G20G12G16G 3
  20495064.2874      97105.66347     75667.56464
  20981800.975   -14359609.774 7 -11189295.50922
  22115837.873     5278552.562 6   4113151.34221
  21723465.0224  -13572735.93946 -10340744.03162
  23773181.772    -1904641.020 4  -1282873.07621
 92  5 28  1  6 29.9980000  0  5G24G20G12G16G 3
  20498153.7724     113339.33347     88317.17664
  20973266.670   -14404448.207 7 -11224234.52922
  22122865.607     5315484.459 6   4141929.39221
  21715027.225   -13617105.109 6 -10375317.36822
  23765280.412    -1946156.582 4  -1315222.79221
 92  5 28  1  6 44.9980000  0  5G24G20G12G16G 3
  20501260.3574     129662.81847    101036.77264
  20964754.623   -14449183.712 7 -11259093.34522
  22129911.279     5352504.766 6   4170776.33521
  21706603.459   -13661364.981 6 -10409805.52822
  23757385.3184   -1987642.11844  -1347549.10461
 92  5 28  1  6 59.9980000  0  5G24G20G12G16G 3
  20504383.2404     146074.45847    113825.06064
  20956262.600   -14493817.172 7 -11293872.64522
  22136973.764     5389611.786 6   4199690.84521
  21698197.748   -13705519.577 6 -10444211.66022
  23749492.732    -2029099.041 4  -1379853.10421
 92  5 28  1  7 14.9980000  0  5G24G20G12G16G 3
  20507523.3184     162573.87147    126681.74364
  20947786.834   -14538347.120 7 -11328571.29022
  22144051.397     5426806.232 6   4228673.47721
  21689818.803   -13749567.104 6 -10478534.36322
  23741609.943    -2070526.142 4  -1412133.89321
 92  5 28  1  7 29.9980000  0  5G24G20G12G16G 3
  20510679.1784     179161.60947    139607.25364
  20939333.014   -14582774.074 7 -11363189.67523
  22151144.475     5464086.969 6   4257723.34921
  21681457.865   -13793506.808 6 -10512773.05222
  23733734.990    -2111924.228 4  -1444392.05121
 92  5 28  1  7 44.9980000  0  5G24G20G12G16G 3
  20513853.7014     195838.27147    152602.04864
  20930898.404   -14627102.416 7 -11397731.22122
  22158253.584     5501449.016 6   4286836.57921
  21673113.764   -13837342.304 6 -10546930.53422
  23725862.029    -2153298.200 5  -1476631.41321
 92  5 28  1  7 59.9980000  0  5G24G20G12G16G 3
  20517043.3814     212606.28647    165668.03064
  20922481.482   -14671328.167 7 -11432192.82823
  22165381.803     5538895.468 6   4316015.57721
  21664795.459   -13881068.245 6 -10581002.65222
  23717996.576    -2194644.203 4  -1508848.99621
 92  5 28  1  8 14.9980000  0  5G24G20G12G16G 3
  20520253.7564     229470.59447    178809.04964
  20914086.795   -14715443.804 7 -11466568.63422
  22172522.8114    5576433.17746   4345265.68561
  21656496.834   -13924678.568 6 -10614984.67522
  23710131.9984   -2235955.24244  -1541039.31961
 92  5 28  1  8 29.9980000  0  5G24G20G12G16G 3
  20523478.4674     246420.44347    192016.72464
  20905712.482   -14759458.976 7 -11500866.15723
  22179681.4674    5614051.70446   4374578.76561
  21648213.772   -13968186.826 6 -10648887.17222
  23702272.420    -2277241.563 4  -1573210.38621
 92  5 28  1  8 44.9980000  0  5G24G20G12G16G 3
  20526719.3574     263449.24547    205285.91864
  20897351.951   -14803382.804 7 -11535092.50023
  22186854.045     5651741.218 6   4403947.16421
  21639953.490   -14011605.205 6 -10682719.63122
  23694418.6544   -2318512.52344  -1605369.47861
 92  5 28  1  8 59.9980000  0  5G24G20G12G16G 3
  20529975.9044     280565.98947    218623.63464
  20889011.287   -14847209.154 7 -11569242.88623
  22194040.092     5689507.203 6   4433375.15221
  21631711.115   -14054931.936 6 -10716480.67922
  23686571.272    -2359762.383 5  -1637512.15721
 92  5 28  1  9 14.9980000  0  5G24G20G12G16G 3
  20533248.6544     297768.01847    232027.81264
  20880691.693   -14890941.783 7 -11603320.24323
  22201241.0924    5727345.16346   4462859.21461
  21623478.7254  -14098172.23946 -10750174.38662
  23678725.8184   -2400995.17844  -1669641.49961
 92  5 28  1  9 29.9980000  0  5G24G20G12G16G 3
  20536539.6864     315059.77147    245501.90564
  20872387.647   -14934576.147 7 -11637321.03422
  22208456.193     5765258.829 6   4492402.27321
  21615268.9514  -14141319.57746 -10783795.64062
  23670883.8344   -2442206.83945  -1701754.38161
 92  5 28  1  9 44.9980000  0  5G24G20G12G16G 3
  20539848.0534     332446.37647    259049.91264
  20864102.764   -14978107.350 7 -11671241.43923
  22215686.357     5803252.481 6   4522007.65921
  21607080.0294  -14184369.04946 -10817340.64362
  23663044.068    -2483392.746 5  -1733847.21421
 92  5 28  1  9 59.9980000  0  5G24G20G12G16G 3
  20543172.9754     349915.58347    272662.28664
  20855838.420   -15021545.764 7 -11705089.53923
  22222928.811     5841315.072 6   4551666.75521
  21598901.170   -14227330.854 6 -10850817.33322
  23655210.4124   -2524563.72445  -1765928.38961
 92  5 28  1 10 14.9980000  0  5G24G20G12G16G 3
  20546512.2014     367467.92947    286339.43664
  20847589.522   -15064891.958 7 -11738865.77823
  22230183.639     5879445.386 6   4581378.63821
  21590742.9434  -14270207.84046 -10884227.93462
  23647376.623    -2565720.578 5  -1797998.59721
 92  5 28  1 10 29.9980000  0  5G24G20G12G16G 3
  20549870.3184     385109.65047    300086.22664
  20839357.482   -15108140.979 7 -11772566.30223
  22237455.0454    5917647.53046   4611146.48061
  21582603.514   -14312995.726 6 -10917569.09622
  23639550.639    -2606858.822 5  -1830054.28521
 92  5 28  1 10 44.9980000  0  5G24G20G12G16G 3
  20553241.9674     402832.01447    313895.86064
  20831146.490   -15151300.747 7 -11806197.27723
  22244736.4674    5955912.84146   4640963.54661
  21574475.623   -14355702.569 6 -10950847.11522
  23631723.373    -2647986.697 5  -1862101.90021
 92  5 28  1 10 59.9980000  0  5G24G20G12G16G 3
  20556630.9364     420637.55047    327770.30264
  20822952.428   -15194366.365 7 -11839754.88523
  22252030.1544    5994245.43746   4670833.04161
  21566362.287   -14398323.064 6 -10984057.85022
  23623900.326    -2689100.045 5  -1894138.19021
 92  5 28  1 11 14.9980000  0  5G24G20G12G16G 3
  20560032.3504     438517.34647    341702.60264
  20814772.240   -15237340.957 7 -11873241.56423
  22259338.2564    6032641.51946   4700752.00461
  21558271.748   -14440855.552 6 -11017200.00922
  23616081.389    -2730201.799 5  -1926165.43921
 92  5 28  1 11 29.9980000  0  5G24G20G12G16G 3
  20563448.9204     456470.74347    355692.26264
  20806612.350   -15280220.369 7 -11906654.07723
  22266657.0374    6071104.48246   4730723.08361
  21550197.264   -14483289.707 6 -11050265.54322
  23608260.139    -2771288.698 5  -1958181.13721
 92  5 28  1 11 44.9980000  0  5G24G20G12G16G 3
  20566878.7564     474489.86247    369733.12864
  20798471.920   -15323009.256 7 -11939996.05023
  22273988.7324    6109629.15646   4760742.24961
  21542137.967   -14525628.910 6 -11083257.08522
  23600444.4674   -2812365.42745  -1990188.88561
 92  5 28  1 11 59.9980000  0  5G24G20G12G16G 3
  20570318.0764     492565.27647    383817.86264
  20790344.584   -15365714.774 7 -11973273.05823
  22281329.9364    6148207.48546   4790803.21461
  21534097.6234  -14567881.38246 -11116181.04962
  23592630.115    -2853439.693 5  -2022194.74221
 92  5 28  1 12 14.9980000  0  5G24G20G12G16G 3
  20573769.0764     510698.94147    397947.98764
  20782232.928   -15408334.172 7 -12006482.96323
  22288681.6234    6186841.60946   4820907.67161
  21526076.8894  -14610046.57546 -11149037.00662
  23584813.5844   -2894509.07945  -2054196.77461
 92  5 28  1 12 29.9980000  0  5G24G20G12G16G 3
  20577229.2254     528884.31247    412118.40064
  20774139.897   -15450870.961 7 -12039628.49623
  22296042.5224    6225527.18046   4851052.20761
  21518066.0144  -14652125.97246 -11181826.10562
  23576995.748    -2935577.386 5  -2086197.96921
 92  5 28  1 12 44.9980000  0  5G24G20G12G16G 3
  20580698.8654     547116.24247    426325.09364
  20766061.193   -15493327.496 7 -12072711.49123
  22303413.7794    6264261.09446   4881234.41461
  21510072.3574  -14694120.41346 -11214549.00962
  23569183.8894   -2976647.54645  -2118200.59261
 92  5 28  1 12 59.9980000  0  5G24G20G12G16G 3
  20584176.6624     565394.40747    440567.81464
  20757995.795   -15535703.403 7 -12105731.66523
  22310793.9824    6303042.95446   4911453.97861
  21502101.8184  -14736029.30246 -11247205.25062
  23561366.0224   -3017719.60045  -2150204.73161
 92  5 28  1 13 14.9980000  0  5G24G20G12G16G 3
  20587662.8344     583712.59147    454841.71863
  20749947.389   -15578003.629 7 -12138692.85623
  22318181.3734    6341867.37046   4941706.71161
  21494141.4124  -14777855.32347 -11279796.91362
  23553548.2724   -3058798.47045  -2182214.15561
 92  5 28  1 13 29.9980000  0  5G24G20G12G16G 3
  20591157.0454     602078.59547    469152.88464
  20741914.436   -15620223.137 7 -12171591.15723
  22325579.0064    6380738.47946   4971995.82161
  21486197.4124  -14819592.82347 -11312319.60662
  23545728.3814   -3099879.90445  -2214225.59061
 92  5 28  1 13 44.9980000  0  5G24G20G12G16G 3
  20594660.8504     620489.64747    483499.15264
  20733892.654   -15662369.133 7 -12204432.17223
  22332982.2564    6419648.56646   5002315.30261
  21478271.3344  -14861253.10346 -11344782.12262
  23537914.654    -3140971.197 5  -2246244.72321
 92  5 28  1 13 59.9980000  0  5G24G20G12G16G 3
  20598173.3034     638945.45547    497880.29564
  20725885.639   -15704444.044 7 -12237217.80023
  22340393.154     6458594.192 6   5032662.48821
  21470358.3504  -14902840.17247 -11377187.59362
  23530088.0924   -3182075.28045  -2278273.80261
 92  5 28  1 14 14.9980000  0  5G24G20G12G16G 3
  20601693.2484     657444.68547    512295.26964
  20717893.732   -15746453.235 7 -12269952.21423
  22347809.6314    6497569.40446   5063032.71561
  21462456.420   -14944357.728 7 -11409538.89422
  23522262.7564   -3223197.89645  -2310317.31361
 92  5 28  1 14 29.9980000  0  5G24G20G12G16G 3
  20605221.7954     675989.02647    526745.39864
  20709910.764   -15788394.978 7 -12302634.06923
  22355232.5224    6536575.28546   5093426.84361
  21454570.8264  -14985801.67946 -11441832.84462
  23514434.467    -3264337.553 5  -2342374.13921
 92  5 28  1 14 44.9980000  0  5G24G20G12G16G 3
  20608759.3974     694577.79847    541230.14764
  20701940.975   -15830269.801 7 -12335263.77823
  22362661.6394    6575610.66046   5123843.94961
  21446698.6704  -15027173.09447 -11474070.27262
  23506603.436    -3305495.043 5  -2374444.82521
 92  5 28  1 14 59.9980000  0  5G24G20G12G16G 3
  20612307.6154     713217.42647    555754.52564
  20693988.381   -15872071.097 7 -12367836.19223
  22370095.4364    6614681.31746   5154288.55761
  21438836.6864  -15068468.99247
  23498772.1784   -3346664.27445
 92  5 28  1 15 14.9980000  0  5G24G20G12G16G 3
  20615861.8734     731898.11347    570310.89664
  20686044.350   -15913808.291 7 -12400358.65723
  22377536.3974    6653777.12146   5184752.76161
  21430992.686   -15109698.781 7
  23490932.1704   -3387855.01845
 92  5 28  1 15 29.9980000  0  5G24G20G12G16G 3
  20619423.0064     750614.27647    584894.91364
  20678113.428   -15955487.517 7 -12432835.95323
  22384980.0224    6692891.09746   5215231.12161
  21423160.4434  -15150869.63347
  23483087.4204   -3429074.02345
 92  5 28  1 15 44.9980000  0  5G24G20G12G16G 3
  20622992.1154     769368.14847    599508.31164
  20670195.053   -15997107.353 7 -12465266.97023
  22392426.1934    6732023.89946   5245724.14461
  21415334.2484  -15191981.41347 -11602492.18562
  23475237.459    -3470320.161 5
 92  5 28  1 15 59.9980000  0  5G24G20G12G16G 3
  20626567.3184     788154.57447    614147.07664
  20662284.100   -16038670.199 7 -12497653.57723
  22399876.6624    6771172.51946   5276229.49961
  21407523.4434  -15233035.61247 -11634482.43362
  23467380.568    -3511596.033 5
 92  5 28  1 16 14.9980000  0  5G24G20G12G16G 3
  20630146.6624     806964.98247    628804.52864
  20654384.615   -16080181.473 7 -12530000.00123
  22407328.186     6810330.767 6   5306742.35021
  21399722.4984  -15274037.51647 -11666431.92862
  23459525.131    -3552907.651 5        -0.43831
 92  5 28  1 16 29.9980000  0  5G24G20G12G16G 3
  20633729.1234     825791.44247    643474.49164
  20646495.990   -16121645.413 7
  22414780.6074    6849493.76346   5337258.91061
  21391926.1074  -15314994.59047 -11698346.49662
  23451655.2324   -3594259.51445
 92  5 28  1 16 44.9980000  0  5G24G20G12G16G 3
  20637315.0224     844637.29947    658159.56564
  20638615.1394  -16163056.31047
  22422236.3574    6888666.52946   5367783.07161
  21384141.3894  -15355904.13547 -11730224.02362
  23443777.7014   -3635646.02245
 92  5 28  1 16 59.9980000  0  5G24G20G12G16G 3
  20640904.7174     863499.41847    672857.31264
  20630743.068   -16204418.630 7 -12626808.10123
  22429691.6154    6927843.64346   5398310.63161
  21376366.6074  -15396771.28047 -11762068.51762
  23435894.607    -3677072.414 5    -96751.99621
 92  5 28  1 17 14.9980000  0  5G24G20G12G16G 3
  20644495.7404     882368.48247    687560.47464
  20622881.576   -16245742.303 7 -12659008.34023
  22437143.7794    6967014.84446   5428833.57461
  21368592.4824  -15437602.72447 -11793885.18662
  23428000.2954   -3718548.66945   -129071.10861
 92  5 28  1 17 29.9980000  0  5G24G20G12G16G 3
  20648086.8974     901243.16047    702268.00864
  20615023.7794  -16287030.16147 -12691180.67063
  22444596.4364    7006176.23846   5459348.87961
  21360830.3424  -15478398.91347 -11825674.38862
  23420096.7254   -3760078.11445   -161431.66361
 92  5 28  1 17 44.9980000  0  5G24G20G12G16G 3
  20651680.1624     920125.22047    716981.29564
  20607173.5144  -16328278.16547 -12723321.94263
  22452047.8974    7045331.40546   5489859.34061
  21353078.4204  -15519155.02647 -11857432.36462
  23412183.482    -3801657.137 5   -193830.80721
 92  5 28  1 17 59.9980000  0  5G24G20G12G16G 3
  20655272.7954     939003.64747    731691.74964
  20599332.037   -16369495.322 7 -12755439.18323
  22459496.1314    7084470.58146   5520357.33361
  21345325.0534  -15559879.52047 -11889165.69962
  23404261.4984   -3843295.15245   -226275.97161
 92  5 28  1 18 14.9980000  0  5G24G20G12G16G 3
  20658864.0764     957877.61747    746398.72864
  20591493.998   -16410681.797 7 -12787532.51423
  22466940.9824    7123592.85846   5550842.16061
  21337581.1474  -15600574.05347 -11920875.68562
  23396329.3184   -3884992.57445   -258767.39861
 92  5 28  1 18 29.9980000  0  5G24G20G12G16G 3
  20662453.5764     976740.73447    761097.25163
  20583659.873   -16451841.758 7 -12819605.18523
  22474378.709     7162693.266 6   5581309.94021
  21329845.1314  -15641244.25947 -11952566.71962
  23388378.975    -3926753.778 5   -291308.53121
 92  5 28  1 18 44.9980000  0  5G24G20G12G16G 3
  20666041.4124     995591.71347    775786.31964
  20575833.420   -16492977.068 7 -12851658.64623
  22481816.7874    7201769.51346   5611758.89761
  21322107.1074  -15681891.57747 -11984239.91462
  23380423.6474   -3968581.09445   -323901.16861
 92  5 28  1 18 59.9980000  0  5G24G20G12G16G 3
  20669625.6154    1014429.06347    790464.76563
  20568010.920   -16534089.568 7 -12883694.33723
  22489247.5614    7240818.63946   5642186.71861
  21314375.8184  -15722515.49947 -12015894.88362
  23372444.4674   -4010476.73345   -356547.04561
 92  5 28  1 19 14.9980000  0  5G24G20G12G16G 3
  20673208.5844    1033255.66147    805134.83164
  20560189.881   -16575174.940 7 -12915708.89123
  22496673.4204    7279844.63046   5672596.52061
  21306654.2724  -15763111.32347 -12047527.95762
  23364466.3894   -4052436.73045   -389243.10461
 92  5 28  1 19 29.9980000  0  5G24G20G12G16G 3
  20676787.8574    1052066.45547    819792.58464
  20552378.209   -16616234.975 7 -12947703.70123
  22504095.514     7318844.789 6   5702986.18521
  21298931.6234  -15803682.33547 -12079141.69362
  23356465.7484   -4094463.27245   -421990.96161
 92  5 28  1 19 44.9980000  0  5G24G20G12G16G 3
  20680362.2324    1070850.81447    834429.74064
  20544568.693   -16657277.385 7 -12979684.77923
  22511509.7484    7357810.66146   5733349.14361
  21291212.5844  -15844238.89347 -12110744.16862
  23348453.5924   -4136564.50445   -454797.06361
 92  5 28  1 19 59.9980000  0  5G24G20G12G16G 3
  20683932.3574    1089612.18447    849048.98264
  20536759.725   -16698298.320 7 -13011649.12423
  22518920.1474    7396745.29746   5763687.75761
  21283501.6624  -15884777.85847 -12142332.93862
  23340429.217    -4178736.852 5   -487658.56821
 92  5 28  1 20 14.9980000  0  5G24G20G12G16G 3
  20687498.7874    1108353.54647    863652.63464
  20528959.420   -16739296.563 7 -13043595.79023
  22526322.834     7435649.546 6   5794002.68021
  21275789.8504  -15925298.64847 -12173907.54962
  23332393.3034   -4220979.39745   -520574.77061
 92  5 28  1 20 29.9980000  0  5G24G20G12G16G 3
  20691059.5534    1127066.18647    878233.90264
  20521162.717   -16780279.516 7 -13075530.53723
  22533718.8424    7474515.05246   5824287.42861
  21268078.4824  -15965807.67547 -12205472.98362
  23324338.779    -4263300.059 5   -553551.85421
 92  5 28  1 20 44.9980000  0  5G24G20G12G16G 3
  20694616.2014    1145752.49247    892794.65464
  20513364.131   -16821247.099 7 -13107453.31323
  22541107.2874    7513341.06946   5854541.39761
  21260375.4204  -16006301.37347 -12237026.48162
  23316270.8654   -4305698.98845   -586589.91761
 92  5 28  1 20 59.9980000  0  5G24G20G12G16G 3
  20698166.8114    1164412.44747    907334.86864
  20505570.631   -16862200.799 7 -13139365.26723
  22548487.326     7552125.574 6   5884763.02121
  21252674.1004  -16046779.55647 -12268567.88762
  23308188.342    -4348178.208 5   -619690.54621
 92  5 28  1 21 14.9980000  0  5G24G20G12G16G 3
  20701712.1474    1183044.07447    921853.00864
  20497782.037   -16903141.720 7 -13171267.26423
  22555859.607     7590866.651 6   5914950.81121
  21244969.9044  -16087242.36847 -12300097.31262
  23300085.568    -4390739.052 5   -652854.76621
 92  5 28  1 21 29.9980000  0  5G24G20G12G16G 3
  20705253.4824    1201652.68647    936353.21964
  20489992.943   -16944065.239 7 -13203155.70223
  22563223.9204    7629568.18646   5945107.78261
  21237275.7254  -16127682.56947 -12331609.12962
  23291975.4984   -4433377.30545   -686079.31361
 92  5 28  1 21 44.9980000  0  5G24G20G12G16G 3
  20708788.2254    1220229.56347    950828.69464
  20482205.576   -16984981.659 7 -13235038.60923
  22570578.1934    7668219.42346   5975225.56361
  21229586.0764  -16168107.29547 -12363108.87862
  23283843.154    -4476103.406 5   -719372.31321
 92  5 28  1 21 59.9980000  0  5G24G20G12G16G 3
  20712317.2564    1238774.04247    965278.92864
  20474423.709   -17025892.917 7 -13266917.49823
  22577923.1074    7706817.55246   6005301.95861
  21221893.0064  -16208516.24647 -12394596.33762
  23275698.5144   -4518919.91345   -752735.76461
 92  5 28  1 22 14.9980000  0  5G24G20G12G16G 3
  20715840.2484    1257285.78947    979703.66264
  20466638.506   -17066799.355 7 -13298792.62823
  22585258.4514    7745361.52446   6035336.15861
  21214206.7254  -16248908.81347 -12426071.03062
  23267529.2014   -4561827.39245   -786170.09661
 92  5 28  1 22 29.9980000  0  5G24G20G12G16G 3
  20719356.8034    1275765.67947    994103.56464
  20458853.889   -17107698.523 7 -13330662.09423
  22592584.9904    7783853.07946   6065329.51161
  21206526.5614  -16289281.25347 -12457530.04362
  23259350.7954   -4604823.64145   -819673.60861
 92  5 28  1 22 44.9980000  0  5G24G20G12G16G 3
  20722866.7174    1294208.62047   1008474.67963
  20451074.943   -17148594.166 7 -13362528.80923
  22599897.139     7822287.656 6   6095278.45821
  21198842.8574  -16329637.80747 -12488976.67462
  23251148.9754   -4647913.07445   -853249.70661
 92  5 28  1 22 59.9980000  0  5G24G20G12G16G 3
  20726369.2644    1312617.95047   1022819.60364
  20443291.334   -17189481.768 7 -13394389.26423
  22607201.904     7860669.089 6   6125185.99721
  21191168.7404  -16369976.96847 -12520409.75562
  23242935.3344   -4691091.40345   -886895.10061
 92  5 28  1 23 14.9980000  0  5G24G20G12G16G 3
  20729864.8574    1330986.49847   1037132.75063
  20435511.740   -17230364.878 7 -13426246.21923
  22614496.654     7898993.162 6   6155048.83621
  21183495.9824  -16410306.67947 -12551835.46462
  23234696.3574   -4734362.56445   -920612.81761
 92  5 28  1 23 29.9970000  0  5G24G20G12G16G 3
  20733352.1264    1349314.03547   1051413.93763
  20427735.540   -17271240.416 7 -13458097.27023
  22621778.681     7937256.936 6   6184864.68921
  21175820.1494  -16450623.43447 -12583251.08362
  23226447.454    -4777723.563 5   -954400.54021
 92  5 28  1 23 44.9970000  0  5G24G20G12G16G 3
  20736831.6734    1367598.98147   1065661.93764
  20419954.415   -17312116.237 7 -13489948.54523
  22629046.814     7975462.530 6   6214635.20121
  21168152.1964  -16490938.18047 -12614665.13662
  23218176.829    -4821182.959 5   -988264.94721
 92  5 28  1 23 59.9970000  0  5G24G20G12G16G 3
  20740303.0874    1385840.01047   1079875.71463
  20412178.431   -17352987.096 7 -13521795.95323
  22636305.970     8013609.158 6   6244359.78121
  21160480.4394  -16531250.46247 -12646077.27362
  23209890.689    -4864735.672 5  -1022202.07721
 92  5 28  1 24 14.9970000  0  5G24G20G12G16G 3
  20743764.9704    1404033.12747   1094052.16363
  20404402.423   -17393855.168 7 -13553641.18923
  22643554.353     8051694.019 6   6274036.21621
  21152805.4314  -16571566.31447 -12677492.19062
  23201580.837    -4908384.250 5  -1056213.87421
 92  5 28  1 24 29.9970000  0  5G24G20G12G16G 3
  20747217.8294    1422177.20447   1108190.39663
  20396623.540   -17434719.773 7 -13585483.72423
  22650789.173     8089717.002 6   6303664.43021
  21145136.7744  -16611886.42647 -12708910.42162
  23193256.2904   -4952128.13445  -1090299.96161
 92  5 28  1 24 44.9970000  0  5G24G20G12G16G 3
  20750661.1734    1440272.55047   1122290.65763
  20388849.290   -17475578.969 7 -13617322.04323
  22658012.329     8127679.356 6   6333245.42021
  21137462.5874  -16652209.86847 -12740331.25662
  23184914.3214   -4995966.13645  -1124459.36661
 92  5 28  1 24 59.9970000  0  5G24G20G12G16G 3
  20754095.4934    1458321.53847   1136354.79763
  20381075.939   -17516431.628 7 -13649155.26623
  22665223.845     8165581.358 6   6362779.36021
  21129786.4074  -16692536.42247 -12771754.51062
  23176556.2434   -5039897.28945  -1158691.37761
 92  5 28  1 25 14.9970000  0  5G24G20G12G16G 3
  20757522.2514    1476329.02947   1150386.60363
  20373302.118   -17557273.343 7 -13680979.96523
  22672426.5484    8203426.92746   6392269.33961
  21122117.5324  -16732858.15647 -12803174.01062
  23168179.5014   -5083917.39945  -1192992.70261
 92  5 28  1 25 29.9970000  0  5G24G20G12G16G 3
  20760941.6184    1494295.57247   1164386.49763
  20365533.720   -17598104.851 7 -13712796.70923
  22679617.876     8241214.569 6   6421714.17321
  21114443.4934  -16773170.96047 -12834586.55262
  23159785.8144   -5128027.64345  -1227364.24061
 92  5 28  1 25 44.9970000  0  5G24G20G12G16G 3
  20764352.8844    1512223.23147   1178356.09663
  20357767.056   -17638921.967 7 -13744602.23723
  22686798.181     8278947.739 6   6451116.55321
  21106774.0714  -16813467.39547 -12865986.34362
  23151370.2514   -5172224.44145  -1261803.24961
 92  5 28  1 25 59.9970000  0  5G24G20G12G16G 3
  20767756.5644    1530110.54247   1192294.25363
  20350000.353   -17679725.330 7 -13776397.04623
  22693969.532     8316625.185 6   6480475.52621
  21099111.564   -16853749.660 7 -12897375.09422
  23142948.5324   -5216508.39545  -1296310.16261
 92  5 28  1 26 14.9970000  0  5G24G20G12G16G 3
  20771153.9154    1547959.61047   1206202.61063
  20342240.595   -17720514.581 7 -13808180.86623
  22701129.3764    8354246.63746   6509790.85261
  21091446.8924  -16894016.03047 -12928751.45862
  23134503.962    -5260879.620 5  -1330885.07721
 92  5 28  1 26 29.9970000  0  5G24G20G12G16G 3
  20774544.6734    1565781.09147   1220089.47063
  20334483.290   -17761279.886 7 -13839946.02323
  22708278.071     8391821.081 6   6539069.56521
  21083789.6894  -16934255.57647 -12960106.91762
  23126041.3064   -5305328.66345  -1365520.62661
 92  5 28  1 26 44.9970000  0  5G24G20G12G16G 3
  20777929.6814    1583571.00547   1233951.73463
  20326727.3994  -17802025.18347 -13871695.59263
  22715416.8454    8429343.82445   6568307.98061
  21076138.7674  -16974468.65047 -12991441.74862
  23117573.399    -5349859.793 5  -1400220.15021
 92  5 28  1 26 59.9970000  0  5G24G20G12G16G 3
  20781309.1344    1601329.62247   1247789.61063
  20318980.329   -17842749.156 7 -13903428.54223
  22722548.6264    8466815.58845   6597506.66961
  21068488.9854  -17014655.24447 -13022755.95062
  23109081.7434   -5394472.01345  -1434982.88161
 92  5 28  1 27 14.9970000  0  5G24G20G12G16G 3
  20784683.8534    1619060.93847   1261606.21363
  20311234.493   -17883447.537 7 -13935141.54723
  22729669.618     8504239.988 6   6626668.45521
  21060848.868   -17054810.400 7 -13054045.65722
  23100580.0484   -5439161.23345  -1469805.57761
 92  5 28  1 27 29.9970000  0  5G24G20G12G16G 3
  20788052.8994    1636766.72347   1275402.92063
  20303493.970   -17924117.908 7 -13966832.73323
  22736783.704     8541618.596 6   6655794.55621
  21053215.8994  -17094934.12247 -13085310.86062
  23092058.899    -5483925.651 5  -1504686.89621
 92  5 28  1 27 44.9970000  0  5G24G20G12G16G 3
  20791418.0794    1654449.38447   1289181.60863
  20295763.399   -17964755.870 7 -13998498.66323
  22743888.4074    8578955.09046   6684887.84261
  21045582.853   -17135026.861 7 -13116551.93122
  23083527.0014   -5528761.07145  -1539623.52261
 92  5 28  1 27 59.9970000  0  5G24G20G12G16G 3
  20794778.2824    1672112.86447   1302945.34863
  20288035.306   -18005357.807 7 -14030136.52123
  22750986.579     8616252.583 6   6713950.73321
  21037959.7594  -17175090.51647 -13147770.33462
  23074984.2124   -5573664.40145  -1574613.07361
 92  5 28  1 28 14.9970000  0  5G24G20G12G16G 3
  20798137.0404    1689755.19747   1316692.61163
  20280315.368   -18045926.010 7 -14061748.09723
  22758076.587     8653507.884 6   6742980.75521
  21030343.345   -17215127.744 7 -13178968.14622
  23066423.4154   -5618638.13945  -1609657.50961
 92  5 28  1 28 29.9970000  0  5G24G20G12G16G 3
  20801489.2204    1707377.29347   1330424.10463
  20272604.298   -18086456.685 7 -14093330.42623
  22765159.9234    8690724.04546   6771980.25861
  21022726.4624  -17255133.75047 -13210141.63063
  23057854.649    -5663678.953 5  -1644754.19221
 92  5 28  1 28 44.9970000  0  5G24G20G12G16G 3
  20804840.0094    1724981.09147   1344141.33863
  20264898.321   -18126944.936 7 -14124879.69623
  22772232.345     8727905.354 5   6800952.62121
  21015122.8374  -17295101.30147 -13241285.14562
  23049274.149    -5708782.179 5  -1679899.52121
 92  5 28  1 28 59.9970000  0  5G24G20G12G16G 3
  20808186.462     1742567.540 7   1357845.05223
  20257201.493   -18167387.912 7 -14156393.68723
  22779301.5094    8765053.99245   6829899.51361
  21007527.5644  -17335026.88847 -13272395.96262
  23040675.001    -5753945.239 5  -1715091.47021
 92  5 28  1 29 14.9970000  0  5G24G20G12G16G 3
  20811529.7824    1760139.82147   1371537.73463
  20249517.431   -18207784.191 7 -14187871.29223
  22786365.9704    8802170.79245   6858821.60561
  20999934.2904  -17374908.80347 -13303472.75463
  23032071.540    -5799167.016 5  -1750329.17521
 92  5 28  1 29 29.9970000  0  5G24G20G12G16G 3
  20814872.3374    1777701.52947   1385222.17363
  20241837.446   -18248131.095 7 -14219310.42323
  22793423.1574    8839257.67645   6887720.38861
  20992356.7044  -17414743.08247 -13334512.42562
  23023453.1964   -5844445.13345  -1785610.76261
 92  5 28  1 29 44.9970000  0  5G24G20G12G16G 3
  20818212.1104    1795255.14047   1398900.30063
  20234169.142   -18288423.901 7 -14250707.39923
  22800474.8534    8876318.68345   6916599.00161
  20984788.4154  -17454523.90847 -13365510.44762
  23014828.064    -5889775.389 5  -1820932.99421
 92  5 28  1 29 59.9970000  0  5G24G20G12G16G 3
  20821550.2284    1812797.60047   1412569.74363
  20226513.579   -18328663.371 7 -14282062.81323
  22807522.0714    8913352.53545   6945456.45561
  20977225.3374  -17494249.93347 -13396465.76162
  23006193.462    -5935158.629 5  -1856296.50621
 92  5 28  1 30 14.9970000  0  5G24G20G12G16G 3
  20824886.2434    1830331.92147   1426232.84163
  20218866.173   -18368844.647 7 -14313372.88223
  22814564.6964    8950363.22245   6974295.84361
  20969679.8294  -17533911.27547 -13427370.67462
  22997546.4314   -5980590.39045  -1891697.82261
 92  5 28  1 30 29.9970000  0  5G24G20G12G16G 3
  20828222.1734    1847860.24647   1439891.26563
  20211230.657   -18408964.709 7 -14344635.25223
  22821604.7744    8987353.15145   7003119.08261
  20962146.0794  -17573501.38447 -13458220.08062
  22988893.4854   -6026067.95745  -1927134.83061
 92  5 28  1 30 44.9970000  0  5G24G20G12G16G 3
  20831556.9154    1865383.67347   1453545.87463
  20203610.634   -18449022.717 7 -14375849.27023
  22828639.7514    9024322.57045   7031926.33261
  20954622.868   -17613019.854 7 -13489013.66722
  22980229.649    -6071590.893 5  -1962607.19821
 92  5 28  1 30 59.9970000  0  5G24G20G12G16G 3
  20834891.8454    1882906.02947   1467199.64663
  20195997.235   -18489016.610 7 -14407013.32523
  22835670.9314    9061272.60145   7060718.46061
  20947119.5714  -17652465.74347 -13519750.69462
  22971561.9624   -6117157.42945  -1998113.54161
 92  5 28  1 31 14.9970000  0  5G24G20G12G16G 3
  20838226.829     1900431.446 7   1480855.80523
  20188400.532   -18528943.392 7 -14438125.08823
  22842700.9854    9098205.60045   7089497.32961
  20939626.9784  -17691838.31747 -13550430.59662
  22962880.1184   -6162765.00745  -2033651.84961
 92  5 28  1 31 29.9970000  0  5G24G20G12G16G 3
  20841560.9934    1917961.60047   1494515.66063
  20180817.384   -18568801.187 7 -14469183.09423
  22849726.0484    9135122.70045   7118263.80161
  20932146.4464  -17731136.89747 -13581052.83762
  22954193.009    -6208412.170 5  -2069221.01121
 92  5 28  1 31 44.9970000  0  5G24G20G12G16G 3
  20844898.7044    1935495.12947   1508178.13963
  20173243.368   -18608588.783 7 -14500186.40223
  22856746.4154    9172024.46245   7147018.33161
  20924685.618   -17770362.066 7 -13611617.87722
  22945499.454    -6254097.983 5  -2104820.29521
 92  5 28  1 31 59.9970000  0  5G24G20G12G16G 3
  20848237.9934    1953040.21347   1521849.62563
  20165688.454   -18648299.331 7 -14531129.67123
  22863768.0794    9208917.06245   7175765.70761
  20917234.360   -17809507.288 7 -13642120.62422
  22936801.642    -6299815.685 5  -2140444.43621
 92  5 28  1 32 14.9970000  0  5G24G20G12G16G 3
  20851577.4544    1970590.30647   1535525.01363
  20158145.149   -18687939.915 7 -14562018.42123
  22870783.923     9245793.037 5   7204500.13521
  20909797.657   -17848580.432 7 -13672567.20523
  22928092.056    -6345572.805 5  -2176099.29421
 92  5 28  1 32 29.9970000  0  5G24G20G12G16G 3
  20854920.7124    1988158.40747   1549214.43563
  20150615.431   -18727500.289 7 -14592844.67123
  22877801.4784    9282661.69945   7233228.86161
  20902382.5794  -17887570.48747 -13702949.03963
  22919378.048    -6391359.292 5  -2211777.02721
 92  5 28  1 32 44.9970000  0  5G24G20G12G16G 3
  20858267.7354    2005746.83247   1562919.69463
  20143105.345   -18766977.947 7 -14623606.46523
  22884814.2354    9319524.82545   7261953.27961
  20894974.649   -17926479.449 7 -13733267.68823
  22910662.2594   -6437173.12745  -2247476.07461
 92  5 28  1 32 59.9970000  0  5G24G20G12G16G 3
  20861619.8214    2023364.34647   1576647.61663
  20135609.423   -18806362.918 7 -14654296.03823
  22891832.064     9356391.860 5   7290680.71821
  20887588.493   -17965296.911 7 -13763515.03722
  22901937.845    -6483004.628 5  -2283188.87921
 92  5 28  1 33 14.9970000  0  5G24G20G12G16G 3
  20864977.4624    2041006.90447   1590395.05763
  20128130.689   -18845658.693 7 -14684916.10423
  22898846.415     9393258.613 5   7319407.95221
  20880221.446   -18004023.811 7 -13793691.81822
  22893214.798    -6528857.417 5  -2318918.26821
 92  5 28  1 33 29.9970000  0  5G24G20G12G16G 3
  20868338.6574    2058666.27147   1604155.59363
  20120671.165   -18884871.520 7 -14715471.53723
  22905862.939     9430118.020 5   7348129.47621
  20872863.3684  -18042666.30647 -13823802.82462
  22884485.1344   -6574738.38945  -2354669.63561
 92  5 28  1 33 44.9970000  0  5G24G20G12G16G 3
  20871702.6424    2076345.48247   1617931.59463
  20113222.626   -18923997.644 7 -14745959.41123
  22912874.689     9466973.332 5   7376847.78921
  20865531.1964  -18081218.56547 -13853843.51762
  22875746.306    -6620643.834 5  -2390440.06321
 92  5 28  1 33 59.9970000  0  5G24G20G12G16G 3
  20875070.8454    2094049.48547   1631726.91163
  20105796.126   -18963031.302 7 -14776375.23023
  22919887.0954    9503829.55845   7405566.82461
  20858213.2124  -18119671.87247 -13883807.10763
  22867009.4704   -6666568.45545  -2426225.43661
 92  5 28  1 34 14.9970000  0  5G24G20G12G16G 3
  20878445.1104    2111782.82347   1645545.08963
  20098388.431   -19001965.756 7 -14806713.75023
  22926902.642     9540692.754 5   7434291.28321
  20850914.4464  -18158019.52247 -13913688.36263
  22858264.759    -6712505.601 5  -2462020.56121
 92  5 28  1 34 29.9970000  0  5G24G20G12G16G 3
  20881824.3064    2129538.41447   1659380.60663
  20090994.946   -19040806.036 7 -14836978.89223
  22933919.587     9577557.287 5   7463016.78121
  20843638.759   -18196265.341 7 -13943490.27523
  22849522.392    -6758460.919 5  -2497829.85421
 92  5 28  1 34 44.9970000  0  5G24G20G12G16G 3
  20885208.267     2147321.976 7   1673237.91723
  20083626.446   -19079546.793 7 -14867166.47923
  22940933.524     9614427.679 5   7491746.84421
  20836377.321   -18234404.563 7 -13973209.12523
  22840774.759    -6804429.256 5  -2533649.29121
 92  5 28  1 34 59.9970000  0  5G24G20G12G16G 3
  20888597.8144    2165135.77147   1687118.78463
  20076271.126   -19118184.313 7 -14897273.62323
  22947953.9074    9651307.03645   7520483.89161
  20829143.485   -18272433.487 7 -14002842.03023
  22832024.454    -6850406.951 5  -2569476.01721
 92  5 28  1 35 14.9970000  0  5G24G20G12G16G 3
  20891994.1424    2182981.44247   1701024.49263
  20068939.212   -19156718.201 7 -14927300.01823
  22954974.392     9688195.219 5   7549227.81721
  20821928.321   -18310350.083 7 -14032387.40523
  22823274.196    -6896394.450 5  -2605310.38021
 92  5 28  1 35 29.9970000  0  5G24G20G12G16G 3
  20895397.1734    2200862.46947   1714957.75063
  20061627.321   -19195146.208 7 -14957243.90323
  22961995.735     9725093.655 5   7577979.72821
  20814731.9394  -18348156.63047 -14061847.02263
  22814521.689    -6942389.296 5  -2641150.47621
 92  5 28  1 35 44.9970000  0  5G24G20G12G16G 3
  20898807.3844    2218782.60447   1728921.48363
  20054333.829   -19233464.598 7 -14987102.37423
  22969017.446     9762005.520 5   7606742.11321
  20807561.415   -18385853.198 7 -14091220.94923
  22805767.790    -6988388.436 5  -2676993.90921
 92  5 28  1 35 59.9970000  0  5G24G20G12G16G 3
  20902224.8844    2236745.60147   1742918.61763
  20047066.126   -19271670.957 7 -15016873.54923
  22976044.759     9798932.383 5   7635516.17221
  20800405.064   -18423436.920 7 -14120506.94522
  22797014.2434   -7034389.70945  -2712839.01961
 92  5 28  1 36 14.9970000  0  5G24G20G12G16G 3
  20905652.4234    2254755.17747   1756952.04163
  20039814.314   -19309762.147 7 -15046554.98223
  22983075.134     9835876.907 5   7664303.98921
  20793278.3924  -18460908.48047 -14149705.53763
  22788261.290    -7080390.132 5  -2748683.44821
 92  5 28  1 36 29.9970000  0  5G24G20G12G16G 3
  20909087.8534    2272811.53347   1771021.92063
  20032588.587   -19347739.584 7 -15076147.77823
  22990108.189     9872836.976 5   7693103.92521
  20786168.2434  -18498270.45447 -14178818.73662
  22779506.149    -7126391.449 5  -2784528.58721
 92  5 28  1 36 44.9970000  0  5G24G20G12G16G 3
  20912532.5014    2290912.51247   1785126.57163
  20025383.282   -19385606.848 7 -15105654.72423
  22997144.2044    9909808.34945   7721912.67061
  20779075.814   -18535526.388 7 -14207849.31022
  22770752.4074   -7172397.60445  -2820377.50361
 92  5 28  1 36 59.9970000  0  5G24G20G12G16G 3
  20915985.3144    2309058.85647   1799266.57163
  20018196.899   -19423362.340 7 -15135074.57823
  23004181.423     9946791.969 5   7750730.95821
  20772010.9394  -18572676.30447 -14236797.26962
  22761997.0954   -7218407.02545  -2856228.95461
 92  5 28  1 37 14.9970000  0  5G24G20G12G16G 3
  20919448.3374    2327255.19447   1813445.52563
  20011037.399   -19460999.792 7 -15164402.45123
  23011224.7984    9983793.42145   7779563.13561
  20764957.8374  -18609715.98447 -14265659.33262
  22753243.478    -7264414.072 5  -2892078.56021
 92  5 28  1 37 29.9970000  0  5G24G20G12G16G 3
  20922921.6104    2345505.91747   1827666.85763
  20003897.0244  -19498513.43447 -15193633.84763
  23018269.7124   10020817.68345   7808413.09261
  20757933.6034  -18646641.37147 -14294432.33363
  22744487.923    -7310413.180 5  -2927921.97421
 92  5 28  1 37 44.9970000  0  5G24G20G12G16G 3
  20926404.0094    2363803.91647   1841925.03563
  19996780.8374  -19535907.41647 -15222772.00663
  23025316.0174   10057860.10245   7837277.18261
  20750928.204   -18683453.731 7 -14323117.26323
  22735736.5794   -7356408.72545  -2963762.61361
 92  5 28  1 37 59.9970000  0  5G24G20G12G16G 3
  20929896.4544    2382158.44447   1856227.25963
  19989693.0174  -19573170.53047 -15251808.18763
  23032371.743    10094931.226 5   7866163.65421
  20743945.165   -18720137.455 7 -14351701.96223
  22726984.5644   -7402389.99745  -2999592.13361
 92  5 28  1 38 14.9970000  0  5G24G20G12G16G 3
  20933398.9624    2400563.64947   1870568.97163
  19982622.2434  -19610305.97847 -15280744.89063
  23039432.0094   10132026.87545   7895069.22561
  20736993.165   -18756694.687 7 -14380188.08922
  22718236.485    -7448360.514 5  -3035413.26721
 92  5 28  1 38 29.9970000  0  5G24G20G12G16G 3
  20936909.3064    2419016.42447   1884947.74963
  19975582.1964  -19647313.63247 -15309582.01463
  23046496.3534   10169146.78545   7923993.71861
  20730058.181   -18793122.797 7 -14408573.60823
  22709492.3214   -7494320.34945  -3071226.09261
 92  5 28  1 38 44.9970000  0  5G24G20G12G16G 3
  20940430.1104    2437514.84847   1899362.10063
  19968564.0094  -19684193.55647 -15338319.60863
  23053562.6964   10206290.20845   7952936.50461
  20723150.907   -18829421.017 7 -14436857.91323
  22700750.071    -7540269.889 5  -3107030.88521
 92  5 28  1 38 59.9970000  0  5G24G20G12G16G 3
  20943958.3534    2456052.19147   1913806.77763
  19961567.5244  -19720949.73747 -15366960.78263
  23060636.1494   10243452.68545   7981894.15861
  20716270.860   -18865594.340 7 -14465044.89423
  22692005.782    -7586213.118 5  -3142830.75221
 92  5 28  1 39 14.9970000  0  5G24G20G12G16G 3
  20947492.5874    2474629.24947   1928282.39863
  19954600.6814  -19757579.16547 -15395503.18663
  23067711.064    10280636.405 5   8010868.34421
  20709407.103   -18901640.719 7 -14493132.95723
  22683266.5174   -7632147.42545  -3178623.68261
 92  5 28  1 39 29.9970000  0  5G24G20G12G16G 3
  20951036.3924    2493250.87547   1942792.75363
  19947652.1034  -19794077.19547 -15423943.20563
  23074792.1964   10317845.36845   8039862.22061
  20702574.454   -18937554.227 7 -14521117.48923
  22674526.446    -7678068.591 5  -3214406.35721
 92  5 28  1 39 44.9970000  0  5G24G20G12G16G 3
  20954587.3684    2511908.55347   1957331.19463
  19940731.9544  -19830451.56647 -15452286.86563
  23081876.657    10355071.282 5   8068869.29821
  20695765.071   -18973340.262 7 -14549002.68623
  22665789.345    -7723984.533 5  -3250184.97121
 92  5 28  1 39 59.9970000  0  5G24G20G12G16G 3
  20958145.6494    2530608.77947   1971902.79263
  19933836.2594  -19866697.55247 -15480530.48563
  23088963.2124   10392318.26345   8097892.79361
  20688976.899   -19008993.923 7 -14576784.73722
  22657052.4234   -7769890.85545  -3285956.07361
 92  5 28  1 40 14.9970000  0  5G24G20G12G16G 3
  20961713.7044    2549359.81147   1986513.97963
  19926960.7354  -19902807.19647 -15508667.86563
  23096056.470    10429593.519 5   8126938.30721
  20682222.7434  -19044511.00647 -14604460.36162
  22648322.345    -7815779.842 5  -3321713.68821
 92  5 28  1 40 29.9970000  0  5G24G20G12G16G 3
  20965291.5404    2568160.72747   2001164.03463
  19920118.7594  -19938779.36347 -15536698.12263
  23103155.5404   10466897.45745   8156006.18161
  20675487.321   -19079893.200 7 -14632030.87723
  22639592.485    -7861650.881 5  -3357457.29821
 92  5 28  1 40 44.9970000  0  5G24G20G12G16G 3
  20968879.1574    2587009.95747   2015851.73663
  19913297.6184  -19974617.94647 -15564624.28363
  23110259.4234   10504225.65545   8185092.96761
  20668778.524   -19115145.969 7 -14659500.54323
  22630864.946    -7907507.804 5  -3393189.92921
 92  5 28  1 40 59.9970000  0  5G24G20G12G16G 3
  20972473.9464    2605903.85247   2030574.24363
  19906501.0484  -20010327.67047 -15592450.04163
  23117366.509    10541572.638 5   8214194.37621
  20662096.259   -19150275.459 7 -14686874.14922
  22622140.954    -7953355.812 5  -3428915.60121
 92  5 28  1 41 14.9970000  0  5G24G20G12G16G 3
  20976080.4314    2624853.77247   2045340.40563
  19899735.7984  -20045896.98647 -15620166.38963
  23124479.3684   10578949.38345   8243318.98261
  20655433.165   -19185269.219 7 -14714141.99123
  22613419.595    -7999183.635 5  -3464625.55221
 92  5 28  1 41 29.9970000  0  5G24G20G12G16G 3
  20979695.5324    2643853.59747   2060145.45763
  19892988.8924  -20081332.98847 -15647778.85663
  23131596.689    10616348.260 5   8272460.82721
  20648802.821   -19220131.721 7 -14741307.55423
  22604701.439    -8044998.585 5  -3500325.46221
 92  5 28  1 41 44.9970000  0  5G24G20G12G16G 3
  20983320.8764    2662905.51247   2074991.09663
  19886272.1654  -20116634.86347 -15675286.80763
  23138716.3144   10653769.33945   8301619.96161
  20642193.071   -19254860.924 7 -14768369.24823
  22595987.814    -8090800.132 5  -3536014.92721
 92  5 28  1 41 59.9970000  0  5G24G20G12G16G 3
  20986955.8294    2682011.90347   2089879.18263
  19879582.6034  -20151799.34247 -15702687.69463
  23145841.876    10691215.238 5   8330798.45721
  20635608.134   -19289453.433 7 -14795324.42723
  22587272.603    -8136585.265 5  -3571691.60821
 92  5 28  1 42 14.9970000  0  5G24G20G12G16G 3
  20990600.4234    2701161.72847   2104801.11563
  19872912.6034  -20186835.25547 -15729988.40363
  23152972.314    10728676.563 5   8359988.95621
  20629054.454   -19323917.177 7 -14822179.27323
  22578562.0484   -8182363.07646  -3607362.58261
 92  5 28  1 42 29.9970000  0  5G24G20G12G16G 3
  20994253.5244    2720358.02747   2119759.25963
  19866274.2124  -20221735.49247 -15757183.38863
  23160105.6264   10766159.71045   8389196.45161
  20622518.759   -19358244.475 7 -14848927.79622
  22569852.9464   -8228126.74945  -3643022.54861
 92  5 28  1 42 44.9970000  0  5G24G20G12G16G 3
  20997916.9234    2739607.25247   2134758.64463
  19859658.0714  -20256494.54847 -15784268.36563
  23167243.3684   10803669.49545   8418424.71561
  20616013.923   -19392426.662 7 -14875563.24223
  22561148.5244   -8273871.19445  -3678667.51561
 92  5 28  1 42 59.9970000  0  5G24G20G12G16G 3
  21001591.8924    2758920.19947   2149807.68563
  19853070.8684  -20291102.65647 -15811235.72063
  23174387.267    10841215.124 5   8447680.91221
  20609541.548   -19426453.058 7 -14902077.29523
  22552448.946    -8319586.812 5  -3714290.02821
 92  5 28  1 43 14.9970000  0  5G24G20G12G16G 3
  21005277.0954    2778285.46547   2164897.49163
  19846515.9314  -20325569.46847 -15838092.97463
  23181535.5874   10878786.07445   8476956.83361
  20603090.946   -19460332.647 7 -14928476.95123
  22543753.079    -8365283.754 5  -3749897.98921
 92  5 28  1 43 29.9970000  0  5G24G20G12G16G 3
  21008973.6184    2797708.58147   2180032.37863
  19839981.2204  -20359890.47447 -15864836.61063
  23188693.2674   10916386.60245   8506255.80561
  20596675.5244  -19494060.36047 -14954758.26063
  22535062.1734   -8410957.47746  -3785487.83961
 92  5 28  1 43 44.9970000  0  5G24G20G12G16G 3
  21012678.595     2817181.237 7   2195205.86223
  19833478.3374  -20394074.66347 -15891473.63963
  23195852.946    10954006.944 5   8535570.19721
  20590283.845   -19527645.229 7 -14980928.26723
  22526372.868    -8456617.138 5  -3821066.75021
 92  5 28  1 43 59.9970000  0  5G24G20G12G16G 3
  21016393.392     2836701.583 7   2210416.50623
  19827000.0324  -20428122.58447 -15918004.48163
  23203015.2514   10991645.85545   8564899.07761
  20583917.6814  -19561088.68347 -15006988.07463
  22517685.899    -8502263.713 5  -3856635.47121
 92  5 28  1 44 14.9970000  0  5G24G20G12G16G 3
  21020119.048     2856280.068 7   2225672.45523
  19820546.0484  -20462021.79147 -15944419.44663
  23210182.564    11029315.446 5   8594251.86621
  20577586.571   -19594377.497 7 -15032927.38723
  22509006.3064   -8547884.90046  -3892184.38761
 92  5 28  1 44 29.9970000  0  5G24G20G12G16G 3
  21023856.157     2875917.084 7   2240974.00423
  19814126.8924  -20495772.20547 -15970718.46963
  23217357.228    11067014.847 5   8623627.86721
  20571277.228   -19627513.182 7 -15058747.38623
  22500329.681    -8593480.990 6  -3927713.75121
 92  5 28  1 44 44.9970000  0  5G24G20G12G16G 3
  21027602.751     2895609.936 7   2256319.07623
  19807728.6104  -20529379.67047 -15996906.09763
  23224535.4394   11104737.65745   8653022.10561
  20565002.126   -19660503.989 7 -15084454.48923
  22491655.696    -8639058.139 6  -3963228.37221
 92  5 28  1 44 59.9970000  0  5G24G20G12G16G 3
  21031362.579     2915366.167 7   2271713.52823
  19801362.5644  -20562839.60447 -16022978.77263
  23231718.3604   11142487.81745   8682437.66161
  20558751.501   -19693346.479 7 -15110046.01723
  22482986.470    -8684612.054 6  -3998724.88321
 92  5 28  1 45 14.9970000  0  5G24G20G12G16G 3
  21035134.0874    2935184.62247   2287156.46563
  19795024.5564  -20596151.91147 -16048936.40763
  23238907.8764   11180264.83345   8711874.14061
  20552528.103   -19726041.278 7 -15135522.46223
  22474323.9234   -8730142.84446  -4034203.38261
 92  5 28  1 45 29.9970000  0  5G24G20G12G16G 3
  21038917.079     2955066.826 7   2302649.07823
  19788711.2044  -20629314.49447 -16074777.37563
  23246103.0874   11218070.33745   8741332.82961
  20546339.368   -19758582.978 7 -15160879.60623
  22465663.204    -8775648.409 6  -4069662.20821
 92  5 28  1 45 44.9970000  0  5G24G20G12G16G 3
  21042710.212     2974999.227 7   2318180.80523
  19782430.9314  -20662337.85347 -16100509.86163
  23253297.0244   11255893.15645   8770804.99561
  20540169.720   -19790983.701 7 -15186126.90323
  22457006.517    -8821139.812 6  -4105110.00121
 92  5 28  1 45 59.9970000  0  5G24G20G12G16G 3
  21046515.399     2994992.586 7   2333760.03323
  19776172.1424  -20695209.26347 -16126123.94163
  23260502.696    11293745.273 5   8800299.98721
  20534036.274   -19823229.741 7 -15211253.66823
  22448354.0954   -8866604.50946  -4140536.99561
 92  5 28  1 46 14.9970000  0  5G24G20G12G16G 3
  21050329.884     3015037.004 7   2349379.04223
  19769945.8374  -20727936.69747 -16151625.83163
  23267711.5014   11331618.16845   8829811.20061
  20527927.314   -19855328.628 7 -15236265.76823
  22439706.610    -8912050.729 6  -4175949.58621
 92  5 28  1 46 29.9970000  0  5G24G20G12G16G 3
  21054152.751     3035131.758 7   2365037.27823
  19763746.1654  -20760520.94347 -16177016.14963
  23274920.2434   11369510.51645   8859337.53461
  20521845.399   -19887282.684 7 -15261165.01123
  22431060.899    -8957479.523 6  -4211348.60021
 92  5 28  1 46 44.9970000  0  5G24G20G12G16G 3
  21057988.978     3055286.148 7   2380741.98623
  19757572.2124  -20792953.46247 -16202288.23663
  23282136.2984   11407430.12745   8888885.10461
  20515796.814   -19919084.718 7 -15285945.79523
  22422420.3764   -9002882.56746  -4246727.56561
 92  5 28  1 46 59.9970000  0  5G24G20G12G16G 3
  21061833.673     3075493.963 7   2396488.32023
  19751432.5014  -20825237.83847 -16227444.88463
  23289357.0094   11445372.78245   8918450.64761
  20509769.853   -19950736.472 7 -15310609.47623
  22413784.571    -9048263.620 6  -4282089.37421
 92  5 28  1 47 14.9970000  0  5G24G20G12G16G 3
  21065687.1654    3095745.89947   2412269.03963
  19745312.0644  -20857380.72247 -16252491.27763
  23296581.196    11483331.281 5   8948028.53021
  20503777.837   -19982242.494 7 -15335159.60523
  22405152.3064   -9093629.65746  -4317439.49861
 92  5 28  1 47 29.9970000  0  5G24G20G12G16G 3
  21069551.899     3116049.415 7   2428089.94623
  19739226.2354  -20889372.87047 -16277420.21863
  23303807.8064   11521314.13445   8977625.38461
  20497810.095   -20013593.499 7 -15359588.94023
  22396525.6574   -9138971.79346  -4352770.99461
 92  5 28  1 47 44.9970000  0  5G24G20G12G16G 3
  21073426.149     3136410.058 7   2443955.36823
  19733167.5014  -20921207.62747 -16302226.51363
  23311042.3764   11559327.44045   9007245.97761
  20491874.681   -20044783.632 7 -15383892.91523
  22387900.6034   -9184283.70446  -4388078.93861
 92  5 28  1 47 59.9970000  0  5G24G20G12G16G 3
  21077310.9934    3156829.11147   2459866.30662
  19727138.8844  -20952884.55747 -16326909.82763
  23318281.556    11597371.237 5   9036890.31821
  20485971.649   -20075814.740 7 -15408072.98023
  22379285.2824   -9229564.75446  -4423362.83461
 92  5 28  1 48 14.9970000  0  5G24G20G12G16G 3
  21081206.345     3177297.689 7   2475815.83023
  19721141.8294  -20984414.39747 -16351478.51963
  23325525.314    11635433.941 5   9066549.39921
  20480091.298   -20106696.074 7 -15432136.33423
  22370673.087    -9274826.316 6  -4458631.56021
 92  5 28  1 48 29.9970000  0  5G24G20G12G16G 3
  21085110.837     3197815.175 7   2491803.46423
  19715165.5954  -21015799.95747 -16375934.79463
  23332771.462    11673512.224 5   9096220.59421
  20474246.149   -20137434.804 7 -15456088.56923
  22362061.157    -9320071.251 6  -4493887.31921
 92  5 28  1 48 44.9970000  0  6G24G20G12G17G16G 3
  21089024.845     3218379.464 7   2507827.56923
  19709223.8844  -21047042.98347 -16400279.99863
  23340019.665    11711603.702 5   9125902.10021
  23338249.7434         -0.00554
  20468419.509   -20168033.291 7 -15479931.52423
  22353455.478    -9365301.586 6  -4529131.69121
 92  5 28  1 48 59.9970000  0  6G24G20G12G17G16G 3
  21092947.181     3238996.067 7   2523892.44323
  19703303.759   -21078137.288 7 -16424509.31723
  23347272.564    11749714.090 5   9155598.33821
  23326215.9314     -63230.01344
  20462627.696   -20198483.152 7 -15503658.66623
  22344852.6654   -9410511.35946  -4564360.05861
 92  5 28  1 49 14.9970000  0  6G24G20G12G17G16G 3
  21096881.329     3259666.983 7   2539999.62923
  19697416.8844  -21109081.08747 -16448621.35563
  23354529.5714   11787844.54945   9185310.19261
  23314194.4544    -126404.83644
  20456860.774   -20228782.385 7 -15527268.44023
  22336253.314    -9455698.969 6  -4599571.14921
 92  5 28  1 49 29.9960000  0  6G24G20G12G17G16G 3
  21100825.824     3280395.307 7   2556151.56422
  19691557.590   -21139871.456 7 -16472613.83923
  23361786.3564   11825992.76345   9215035.91761
  23302183.582     -189517.511 4
  20451123.246   -20258929.058 7 -15550759.32923
  22327659.6454   -9500860.81246  -4634762.15961
 92  5 28  1 49 44.9960000  0  6G24G20G12G17G16G 3
  21104781.5904    3301182.69847   2572349.52262
  19685724.4184  -21170511.50447 -16496489.19163
  23369052.270    11864164.247 5   9244779.72421
  23290188.3094    -252577.97544
  20445418.613   -20288926.449 7 -15574133.89223
  22319068.2464   -9546002.04046  -4669937.10561
 92  5 28  1 49 59.9960000  0  6G24G20G12G17G16G 3
  21108747.2704    3322023.24047   2588588.89462
  19679925.770   -21201004.340 7 -16520249.83023
  23376318.098    11902350.711 5   9274535.26321
  23278194.145     -315585.047 4        -0.12031
  20439733.098   -20318776.939 7 -15597393.99423
  22310482.0664   -9591125.14046  -4705097.92661
 92  5 28  1 50 14.9960000  0  6G24G20G12G17G16G 3
  21112724.449     3342924.201 7   2604875.34222
  19674149.098   -21231342.571 7 -16543889.99423
  23383589.941    11940558.976 5   9304307.74821
  23266218.3164    -378528.69044    -49046.94661
  20434086.488   -20348473.699 7 -15620534.30223
  22301899.9884   -9636222.89546  -4740239.00161
 92  5 28  1 50 29.9960000  0  6G24G20G12G17G16G 3
  21116712.074     3363878.353 7   2621203.23622
  19668406.777   -21261533.511 7 -16567415.39023
  23390862.2704   11978780.96245   9334090.91561
  23254251.309     -441418.121 4    -98051.53621
  20428460.121   -20378025.231 7 -15643561.45023
  22293322.4184   -9681302.95346  -4775366.29061
 92  5 28  1 50 44.9960000  0  6G24G20G12G17G16G 3
  21120708.270     3384882.172 7   2637569.83622
  19662687.8324  -21291578.43947 -16590827.01163
  23398140.0124   12017014.80045   9363883.31961
  23242292.9734    -504253.92344   -147014.33761
  20422864.668   -20407431.258 7 -15666475.21323
  22284746.098    -9726366.809 6  -4810480.93321
 92  5 28  1 50 59.9960000  0  6G24G20G12G17G16G 3
  21124715.699     3405939.227 7   2653977.91722
  19656998.481   -21321471.447 7 -16614120.25323
  23405416.824    12055265.914 5   9393689.19421
  23230347.106     -567029.553 4   -195930.26621
  20417299.871   -20436683.983 7 -15689269.52023
  22276175.0274   -9771408.85346  -4845578.59861
 92  5 28  1 51 14.9960000  0  6G24G20G12G17G16G 3
  21128734.996     3427059.094 7   2670434.94322
  19651343.543   -21351201.404 7 -16637286.43923
  23412702.059    12093544.702 5   9423516.64321
  23218416.3244    -629733.45044   -244790.26461
  20411761.254   -20465772.934 7 -15711936.21023
  22267612.1844   -9816418.04646  -4880650.65561
 92  5 28  1 51 29.9960000  0  6G24G20G12G17G16G 3
  21132762.371     3448228.070 7   2686930.23222
  19645711.2074  -21380781.09847 -16660335.54563
  23419988.7624   12131838.12245   9453355.48461
  23206493.621     -692378.813 4   -293604.68021
  20406258.887   -20494710.911 7 -15734485.26223
  22259049.3794   -9861407.26846  -4915707.16161
 92  5 28  1 51 44.9960000  0  6G24G20G12G17G16G 3
  21136797.566     3469427.026 7   2703448.88922
  19640112.231   -21410226.423 7 -16683279.94123
  23427275.3404   12170129.54645   9483192.75561
  23194581.285     -754982.781 4   -342386.83421
  20400772.981   -20523514.107 7 -15756929.29123
  22250488.5434   -9906392.71446  -4950760.72361
 92  5 28  1 51 59.9960000  0  6G24G20G12G17G16G 3
  21140841.543     3490680.235 7   2720009.81922
  19634536.5204  -21439510.66647 -16706098.82663
  23434567.543    12208445.233 5   9513048.94021
  23182680.668     -817519.864 4   -391116.86421
  20395325.004   -20552156.470 7 -15779247.99823
  22241933.6684   -9951347.91046  -4985790.70961
 92  5 28  1 52 14.9960000  0  6G24G20G12G17G16G 3
  21144896.418     3511986.612 7   2736612.17422
  19628994.9414  -21468637.29347 -16728794.89263
  23441862.746    12246780.918 5   9542920.69821
  23170790.8324    -879992.48044   -439796.68361
  20389903.590   -20580644.685 7 -15801446.58623
  22233384.0044   -9996276.52546  -5020799.97961
 92  5 28  1 52 29.9960000  0  6G24G20G12G17G16G 3
  21148960.207     3533345.539 7   2753255.47522
  19623483.6914  -21497604.87247 -16751367.02563
  23449159.965    12285137.554 5   9572808.80721
  23158916.129     -942398.322 4   -488424.45621
  20384509.762   -20608978.584 7 -15823524.92923
  22224839.8634  -10041177.54846  -5055787.75161
 92  5 28  1 52 44.9960000  0  6G24G20G12G17G16G 3
  21153034.871     3554758.338 7   2769940.76222
  19617999.1064  -21526411.48147 -16773813.73363
  23456464.3794   12323516.49145   9602714.26461
  23147054.223    -1004734.210 4   -536997.73421
  20379152.465   -20637155.094 7 -15845480.63023
  22216300.4494  -10086048.92246  -5090752.42261
 92  5 28  1 52 59.9960000  0  5G24G20G17G16G 3
  21157118.035     3576212.516 7   2786658.28922
  19612549.5204  -21555067.06147 -16796142.74963
  23135200.941    -1067010.177 4   -585524.30421
  20373814.238   -20665183.791 7 -15867321.15123
  22207765.4264  -10130901.08446  -5125702.12961
 92  5 28  1 53 14.9960000  0  5G24G20G17G16G 3
  21161206.176     3597701.520 7   2803402.95622
  19607120.8324  -21583577.72547 -16818358.84963
  23123361.0664   -1129233.04644   -634009.51761
  20368509.856   -20693073.455 7 -15889053.33923
  22199232.4184  -10175740.06746  -5160641.56161
 92  5 28  1 53 29.9960000  0  5G24G20G17G16G 3
  21165306.973     3619245.393 7   2820190.37222
  19601728.8954  -21611925.83647 -16840448.28363
  23111533.746    -1191384.659 4   -682439.18721
  20363231.621   -20720805.573 7 -15910662.76923
  22190707.3014  -10220548.66146  -5195557.31561
 92  5 28  1 53 44.9960000  0  5G24G20G17G16G 3
  21169415.2624    3640836.94747   2837014.95062
  19596363.0744  -21640121.02947 -16862418.56063
  23099717.934    -1253475.438 4   -730821.47721
  20357982.090   -20748388.926 7 -15932156.27523
  22182184.5664  -10265336.75646  -5230457.08661
 92  5 28  1 53 59.9960000  0  5G24G20G17G16G 3
  21173531.895     3662466.454 7   2853869.09222
  19591022.2624  -21668175.09947 -16884278.87163
  23087911.535    -1315516.260 4   -779164.83421
  20352762.488   -20775834.363 7 -15953542.30923
  22173663.3954  -10310116.30546  -5265350.21161
 92  5 28  1 54 14.9960000  0  5G24G20G17G16G 3
  21177659.574     3684161.222 7   2870774.09222
  19585719.8324  -21696060.85647 -16906008.03163
  23076120.082    -1377479.927 4   -827448.06721
  20347566.676   -20803114.120 7 -15974799.24423
  22165147.6994  -10354860.26546  -5300215.60061
 92  5 28  1 54 29.9960000  0  5G24G20G17G16G 3
  21181794.746     3705890.576 7   2887706.04022
  19580435.5204  -21723807.24947 -16927628.59663
  23064337.3714   -1439395.81344   -875694.06261
  20342405.160   -20830254.532 7 -15995947.60223
  22156634.6064  -10399597.61446  -5335075.83261
 92  5 28  1 54 44.9960000  0  5G24G20G17G16G 3
  21185938.770     3727667.145 7   2904674.78022
  19575186.2464  -21751401.34047 -16949130.47963
  23052568.9264   -1501253.81144   -923894.97361
  20337269.340   -20857240.524 7 -16016975.63023
  22148125.707   -10444315.754 6  -5369921.09721
 92  5 28  1 54 59.9960000  0  5G24G20G17G16G 3
  21190087.965     3749474.180 7   2921667.26022
  19569962.6064  -21778861.12047 -16970527.71363
  23040802.6374   -1563075.74244   -972067.77161
  20332157.551   -20884090.680 7 -16037897.81223
  22139616.293   -10489033.025 6  -5404765.69521
 92  5 28  1 55 14.9960000  0  5G24G20G17G16G 3
  21194249.707     3771339.090 7   2938704.83622
  19564764.5204  -21806159.06447 -16991798.83563
  23029051.3164   -1624833.95244  -1020190.93861
  20327083.668   -20910778.993 7 -16058693.88723
  22131110.5044  -10533721.87146  -5439588.13261
 92  5 28  1 55 29.9960000  0  5G24G20G17G16G 3
  21198420.426     3793261.024 7   2955786.85022
  19559604.9184  -21833295.58547 -17012944.17663
  23017311.910    -1686529.942 4  -1068265.60221
  20322031.277   -20937304.693 7 -16079363.24923
  22122612.1764  -10578383.19246  -5474389.12761
 92  5 28  1 55 44.9960000  0  5G24G20G17G16G 3
  21202603.059     3815240.112 7   2972913.39922
  19554468.6374  -21860270.89247 -17033963.89463
  23005582.441    -1748163.400 4  -1116291.55521
  20317018.059   -20963666.515 7 -16099904.91023
  22114118.6134  -10623017.12146  -5509168.78061
 92  5 28  1 55 59.9960000  0  5G24G20G17G16G 3
  21206794.738     3837266.040 7   2990076.44222
  19549366.1134  -21887091.63847 -17054863.17863
  22993863.832    -1809739.630 5  -1164272.91321
  20312030.816   -20989872.694 7 -16120325.29523
  22105629.6374  -10667630.55846  -5543932.46561
 92  5 28  1 56 14.9960000  0  5G24G20G17G16G 3
  21210992.895     3859325.908 7   3007265.92722
  19544291.3794  -21913766.76547 -17075648.98163
  22982156.7464   -1871267.69845  -1212216.74561
  20307068.684   -21015934.221 7 -16140632.96423
  22097140.6134  -10712232.69246  -5578687.33861
 92  5 28  1 56 29.9960000  0  5G24G20G17G16G 3
  21215198.957     3881431.063 7   3024490.71122
  19539241.0744  -21940285.01847 -17096312.55463
  22970459.3484   -1932736.11045  -1260114.08861
  20302144.121   -21041840.728 7 -16160819.83523
  22088657.4344  -10756812.26446  -5613424.63761
 92  5 28  1 56 44.9960000  0  5G24G20G17G16G 3
  21219411.199     3903563.541 7   3041736.77822
  19534224.9184  -21966666.36147 -17116869.44263
  22958769.9884   -1994162.05245  -1307978.34661
  20297234.707   -21067613.864 7 -16180902.77823
  22080176.2934  -10801389.48646  -5648160.10361
 92  5 28  1 56 59.9960000  0  5G24G20G17G16G 3
  21223629.981     3925734.459 7   3059012.80522
  19529229.1294  -21992900.11447 -17137311.32363
  22947091.9734   -2055533.78645  -1355800.36961
  20292359.152   -21093244.267 7 -16200874.50823
  22071695.481   -10845953.920 6  -5682885.61121
 92  5 28  1 57 14.9960000  0  5G24G20G17G16G 3
  21227858.152     3947958.325 7   3076330.08122
  19524270.5204  -22018968.59747 -17157624.42363
  22935426.6374   -2116829.57644  -1403563.21561
  20287513.434   -21118712.736 7 -16220720.05423
  22063221.832   -10890488.017 6  -5717587.47821
 92  5 28  1 57 29.9960000  0  5G24G20G17G16G 3
  21232100.035     3970246.883 7   3093697.77522
  19519344.8404  -22044857.91547 -17177797.91363
  22923779.1524   -2178035.21544  -1451255.80261
  20282697.731   -21144003.051 7 -16240426.77823
  22054755.051   -10934978.081 6  -5752255.03621
 92  5 28  1 57 44.9960000  0  5G24G20G17G16G 3
  21236347.902     3992569.538 7   3111092.03522
  19514442.4964  -22070600.90147 -17197857.37663
  22912141.9264   -2239182.06044  -1498902.60361
  20277916.793   -21169147.623 7 -16260019.93323
  22046290.676   -10979457.228 6  -5786914.08421
 92  5 28  1 57 59.9960000  0  5G24G20G17G16G 3
  21240603.160     4014931.282 7   3128516.75522
  19509576.4884  -22096193.52547 -17217799.67463
  22900518.9734   -2300265.35844  -1546499.88361
  20273156.715   -21194144.402 7 -16279497.92423
  22037830.4264  -11023921.62646  -5821561.63761
 92  5 28  1 58 14.9960000  0  5G24G20G17G16G 3
  21244863.957     4037320.226 7   3145962.66322
  19504730.9184  -22121647.31847 -17237633.79663
  22888905.293    -2361299.720 4  -1594059.02321
  20268426.941   -21219005.109 7 -16298869.88723
  22029370.074   -11068382.815 6  -5856206.70021
 92  5 28  1 58 29.9960000  0  5G24G20G17G16G 3
  21249133.199     4059753.492 7   3163443.11322
  19499915.2704  -22146947.02247 -17257347.84363
  22877303.1454   -2422270.64845  -1641568.73861
  20263727.090   -21243711.939 7 -16318121.94723
  22020912.496   -11112825.892 6  -5890837.64721
 92  5 28  1 58 44.9960000  0  5G24G20G17G16G 3
  21253410.957     4082236.263 7   3180962.13922
  19495134.9024  -22172088.22747 -17276938.38863
  22865715.684    -2483172.457 5  -1689024.58621
  20259052.285   -21268259.368 7 -16337249.79523
  22012458.231   -11157246.406 6  -5925451.00621
 92  5 28  1 58 59.9960000  0  5G24G20G17G16G 3
  21257697.910     4104760.578 7   3198513.53522
  19490374.9964  -22197075.19247 -17296408.74363
  22854137.7074   -2544011.28445  -1736431.35961
  20254414.879   -21292651.871 7 -16356256.91723
  22004007.527   -11201648.880 6  -5960050.32221
 92  5 28  1 59 14.9960000  0  5G24G20G17G16G 3
  21261994.848     4127340.907 7   3216108.58022
  19485655.1134  -22221892.44947 -17315746.85963
  22842574.4414   -2604774.50545  -1783779.23061
  20249802.645   -21316872.645 7 -16375130.22423
  21995565.793   -11246018.018 6  -5994623.65321
 92  5 28  1 59 29.9960000  0  5G24G20G17G16G 3
  21266299.020     4149959.145 7   3233733.16722
  19480962.4964  -22246558.55047 -17334967.18863
  22831021.7074   -2665482.42545  -1831084.00561
  20245222.582   -21340941.431 7 -16393885.10623
  21987125.231   -11290372.427 6  -6029185.50621
 92  5 28  1 59 44.9960000  0  5G24G20G17G16G 3
  21270614.770     4172643.827 7   3251409.52522
  19476300.0434  -22271047.63747 -17354049.58963
  22819484.441    -2726110.925 4  -1878326.89421
  20240679.441   -21364831.869 7 -16412501.01423
  21978693.137   -11334686.508 6  -6063715.94621
 92  5 28  1 59 59.9960000  0  5G24G20G17G16G 3
  21274943.660     4195389.809 7   3269133.65122
  19471676.3014  -22295361.95847 -17372995.80663
  22807961.840    -2786663.749 5  -1925510.81621
  20236162.215   -21388546.070 7 -16430979.59423
  21970267.168   -11378962.664 6  -6098216.82521
 92  5 28  2  0 14.9960000  0  5G24G20G17G16G 3
  21279281.121     4218180.557 7   3286892.66122
  19467076.8324  -22319514.93447 -17391816.29963
  22796450.0984   -2847158.44345  -1972649.44861
  20231682.793   -21412097.291 7 -16449331.17923
  21961845.613   -11423214.503 6  -6132698.75621
 92  5 28  2  0 29.9960000  0  5G24G20G17G16G 3
  21283626.316     4241017.456 7   3304687.63422
  19462512.9884  -22343506.37947 -17410510.92463
  22784948.2544   -2907593.86844  -2019741.88661
  20227232.606   -21435486.470 7 -16467556.49923
  21953430.012   -11467441.903 6  -6167161.65221
 92  5 28  2  0 44.9960000  0  5G24G20G17G16G 3
  21287985.2544    4263921.66447   3322535.05562
  19457983.5204  -22367314.46347 -17429062.67063
  22773463.3714   -2967945.29944  -2066768.88261
  20222814.543   -21458691.792 7 -16485638.55323
  21945022.371   -11511623.393 6  -6201588.76621
 92  5 28  2  0 59.9960000  0  5G24G20G17G16G 3
  21292350.371     4286861.825 7   3340410.49422
  19453478.6064  -22390970.02347 -17447495.56763
  22761988.5744   -3028244.95044  -2113755.51661
  20218432.270   -21481744.638 7 -16503601.78423
  21936617.145   -11555789.745 6  -6236004.09021
 92  5 28  2  1 14.9960000  0  5G24G20G17G16G 3
  21296723.207     4309844.982 7   3358319.43422
  19449011.2624  -22414466.47847 -17465804.48763
  22750526.2464   -3088488.10644  -2160698.14461
  20214071.527   -21504637.232 7 -16521440.14323
  21928217.723   -11599934.614 6  -6270402.66521
 92  5 28  2  1 29.9960000  0  5G24G20G17G16G 3
  21301108.3794    4332887.40147   3376274.55262
  19444570.4344  -22437788.67947 -17483977.62163
  22739074.512    -3148659.016 4  -2207584.47721
  20209751.012   -21527353.549 7 -16539141.15223
  21919823.121   -11644042.788 6  -6304772.66321
 92  5 28  2  1 44.9960000  0  5G24G20G17G16G 3
  21305502.316     4355974.465 7   3394264.45322
  19440163.8324  -22460949.25347 -17502024.81463
  22727634.785    -3208767.237 4  -2254421.95921
  20205459.652   -21549905.458 7 -16556714.05823
  21911435.238   -11688127.521 6  -6339124.38721
 92  5 28  2  1 59.9960000  0  5G24G20G17G16G 3
  21309904.496     4379111.795 7   3412293.53622
  19435790.7074  -22483940.24447 -17519939.86763
  22716211.1524   -3268804.56044  -2301204.19961
  20201198.418   -21572286.521 7 -16574153.83123
  21903051.176   -11732180.717 6  -6373451.54721
 92  5 28  2  2 14.9960000  0  5G24G20G17G16G 3
  21314317.113     4402300.033 7   3430362.28322
  19431444.0594  -22506762.64347 -17537723.54963
  22704800.231    -3328771.039 4  -2347931.22721
  20196975.223   -21594501.174 7 -16591463.92523
  21894675.0204  -11776203.57746  -6407755.05661
 92  5 28  2  2 29.9960000  0  5G24G20G17G16G 3
  21318738.4264    4425534.02347   3448466.67862
  19427135.0664  -22529424.91747 -17555382.45763
  22693402.5664   -3388669.50344  -2394605.24961
  20192773.277   -21616557.613 7 -16608650.74623
  21886302.035   -11820204.655 6  -6442041.59221
 92  5 28  2  2 44.9960000  0  5G24G20G17G16G 3
  21323168.520     4448815.835 7   3466608.33622
  19422850.6214  -22551924.80747 -17572914.83563
  22682016.8244   -3448494.60844  -2441222.13361
  20188609.934   -21638451.321 7 -16625710.76023
  21877933.4734  -11864181.79846  -6476309.48061
 92  5 28  2  2 59.9960000  0  5G24G20G17G16G 3
  21327607.0434    4472136.49647   3484780.26662
  19418599.2314  -22574267.91347 -17590325.04163
  22670644.7314   -3508253.33144  -2487787.28161
  20184474.887   -21660184.378 7 -16642645.59223
  21869567.098   -11908140.731 6  -6510563.17721
 92  5 28  2  3 14.9960000  0  5G24G20G17G16G 3
  21332049.684     4495481.037 7   3502970.80422
  19414377.9184  -22596468.88647 -17607624.49763
  22659282.8874   -3567961.42144  -2534312.97161
  20180362.902   -21681773.306 7 -16659468.11423
  21861203.152   -11952096.127 6  -6544814.12121
 92  5 28  2  3 29.9960000  0  5G24G20G17G16G 3
  21336496.621     4518857.523 7   3521186.23422
  19410178.0354  -22618517.00747 -17624804.84463
  22647933.0594   -3627607.24445  -2580790.15861
  20176289.098   -21703209.562 7 -16676171.67623
  21852840.8094  -11996037.54246  -6579054.17461
 92  5 28  2  3 44.9960000  0  5G24G20G17G16G 3
  21340955.660     4542288.371 7   3539444.02722
  19406018.7704  -22640388.56747 -17641847.61663
  22636602.4734   -3687164.28645  -2627198.14061
  20172238.777   -21724471.877 7 -16692739.69923
  21844487.8714  -12039941.48846  -6613265.02961
 92  5 28  2  3 59.9960000  0  5G24G20G17G16G 3
  21345429.1524    4565792.92947   3557759.25562
  19401891.1914  -22662064.97547 -17658738.31963
  22625289.6604   -3746615.40045  -2673523.59661
  20168230.598   -21745543.019 7 -16709158.75123
  21836142.316   -12083789.484 6  -6647432.28121
 92  5 28  2  4 14.9960000  0  5G24G20G17G16G 3
  21349909.965     4589344.310 7   3576110.96822
  19397799.1684  -22683575.47447 -17675499.74363
  22613989.340    -3805992.628 5  -2719791.46921
  20164252.551   -21766453.703 7 -16725452.77623
  21827803.6374  -12127610.85046  -6681578.78861
 92  5 28  2  4 29.9960000  0  5G24G20G17G16G 3
  21354394.895     4612909.006 7   3594473.05822
  19393733.5744  -22704953.88347 -17692158.24063
  22602696.2234   -3865327.99545  -2766026.72761
  20160293.754   -21787235.811 7 -16741646.61323
  21819463.566   -12171439.406 6  -6715730.88421
 92  5 28  2  4 44.9960000  0  5G24G20G17G16G 3
  21358889.770     4636526.200 7   3612876.05122
  19389694.3954  -22726157.61847 -17708680.63263
  22591420.8094   -3924580.33845  -2812197.29961
  20156376.824   -21807846.572 7 -16757706.93423
  21811130.106   -12215232.686 6  -6749855.49621
 92  5 28  2  4 59.9960000  0  5G24G20G17G16G 3
  21363390.6994    4660178.14747   3631306.13162
  19385692.6994  -22747202.60547 -17725079.32563
  22580157.6914   -3983768.20945  -2858317.62761
  20152480.356   -21828303.537 7 -16773647.41123
  21802800.2384  -12259007.02646  -6783965.34761
 92  5 28  2  5 14.9960000  0  5G24G20G17G16G 3
  21367900.645     4683875.967 7   3649771.95022
  19381719.4494  -22768077.72547 -17741345.64863
  22568908.5744   -4042882.48845  -2904380.61261
  20148617.926   -21848598.819 7 -16789461.90323
  21794476.027   -12302751.124 6  -6818051.62821
 92  5 28  2  5 29.9960000  0  5G24G20G17G16G 3
  21372417.191     4707619.464 7   3668273.36022
  19377777.6294  -22788783.26047 -17757479.83263
  22557673.379    -4101922.821 5  -2950385.98821
  20144789.926   -21868734.748 7 -16805152.22723
  21786157.3094  -12346465.49746  -6852114.74561
 92  5 28  2  5 44.9960000  0  5G24G20G17G16G 3
  21376949.1764    4731432.33647   3686828.83662
  19373877.6374  -22809297.88547 -17773465.25563
  22546457.965    -4160865.610 5  -2996315.34321
  20140988.137   -21888687.987 7 -16820700.18923
  21777847.6994  -12390128.89146  -6886138.13861
 92  5 28  2  5 59.9960000  0  5G24G20G17G16G 3
  21381487.801     4755282.750 7   3705413.55922
  19370000.6764  -22829654.89447 -17789327.85963
  22535251.402    -4219746.157 5  -3042196.20021
  20137222.223   -21908490.288 7 -16836130.54123
  21769543.0824  -12433774.85446  -6920147.95861
 92  5 28  2  6 14.9960000  0  5G24G20G17G16G 3
  21386034.1454    4779173.51847   3724029.73162
  19366156.6214  -22849852.62447 -17805066.34963
  22524062.035    -4278564.070 5  -3088028.24821
  20133485.504   -21928138.424 7 -16851440.76323
  21761240.6374  -12477401.86546  -6954143.00161
 92  5 28  2  6 29.9960000  0  5G24G20G17G16G 3
  21390590.1064    4803112.15247   3742683.20162
  19362348.3794  -22869881.74047 -17820673.45563
  22512881.668    -4337307.835 5  -3133802.52621
  20129773.816   -21947621.359 7 -16866622.25423
  21752944.9104  -12521000.62646  -6988116.02461
 92  5 28  2  6 44.9960000  0  5G24G20G17G16G 3
  21395153.0434    4827090.03547   3761367.25162
  19358564.4574  -22889749.89347 -17836155.13363
  22501715.832    -4395983.729 5  -3179523.91521
  20126098.863   -21966946.223 7 -16881680.57423
  21744652.2704  -12564578.84646  -7022073.05161
 92  5 28  2  6 59.9960000  0  5G24G20G17G16G 3
  21399724.1374    4851112.99047   3780086.43162
  19354816.4884  -22909450.53147 -17851506.28463
  22490564.348    -4454588.274 5  -3225189.71221
  20122454.238   -21986105.495 7 -16896609.86223
  21736364.0594  -12608130.04846  -7056009.01761
 92  5 28  2  7 14.9960000  0  5G24G20G17G16G 3
  21404303.035     4875175.056 7   3798836.08122
  19351100.2074  -22928990.01147 -17866731.85563
  22479422.488    -4513129.647 5  -3270806.29121
  20118835.207   -22005104.951 7 -16911414.61823
  21728080.121   -12651660.672 6  -7089928.93921
 92  5 28  2  7 29.9960000  0  5G24G20G17G16G 3
  21408888.0744    4899274.01247   3817614.47862
  19347408.6844  -22948370.22347 -17881833.32263
  22468295.051    -4571609.118 5  -3316374.62021
  20115253.324   -22023947.008 7 -16926096.72323
  21719799.7234  -12695172.71546  -7123834.39161
 92  5 28  2  7 44.9960000  0  5G24G20G17G16G 3
  21413482.121     4923414.449 7   3836425.19422
  19343754.3634  -22967585.97947 -17896806.64463
  22457179.449    -4630019.942 5  -3361889.47621
  20111697.223   -22042624.428 7 -16940650.54623
  21711523.0434  -12738661.22446  -7157721.50461
 92  5 28  2  7 59.9960000  0  5G24G20G17G16G 3
  21418083.684     4947595.107 7   3855267.25222
  19340129.9024  -22986637.10347 -17911651.68263
  22446078.1134   -4688365.41945  -3407353.41061
  20108171.840   -22061135.588 7 -16955074.80823
  21703253.074   -12782126.102 6  -7191590.19521
 92  5 28  2  8 14.9960000  0  5G24G20G17G16G 3
  21422693.270     4971816.807 7   3874141.28722
  19336533.0664  -23005520.13247 -17926365.73663
  22434985.2384   -4746642.78545  -3452764.25461
  20104686.988   -22079475.485 7 -16969365.62323
  21694987.1914  -12825563.78446  -7225437.70161
 92  5 28  2  8 29.9960000  0  5G24G20G17G16G 3
  21427310.902     4996080.120 7   3893047.75222
  19332975.6294  -23024232.81647 -17940947.05263
  22423909.512    -4804848.925 5  -3498119.60621
  20101227.270   -22097643.256 7 -16983522.31523
  21686727.145   -12868972.281 6  -7259262.45921
 92  5 28  2  8 44.9960000  0  5G24G20G17G16G 3
  21431934.496     5020379.321 7   3911982.17822
  19329446.7314  -23042776.94047 -17955397.02763
  22412847.5594   -4862986.12745  -3543421.23861
  20097801.676   -22115641.240 7 -16997546.70223
  21678472.5354  -12912353.30246  -7293065.80761
 92  5 28  2  8 59.9960000  0  5G24G20G17G16G 3
  21436563.9574    5044712.17547   3930942.83062
  19325946.6134  -23061154.10647 -17969716.90063
  22401796.5744   -4921058.76845  -3588672.56261
  20094411.316   -22133473.181 7 -17011441.70923
  21670221.6294  -12955708.48246  -7326849.02761
 92  5 28  2  9 14.9960000  0  5G24G20G17G16G 3
  21441201.566     5069078.751 7   3949929.75922
  19322485.5984  -23079362.78047 -17983905.48863
  22390757.020    -4979065.011 5  -3633872.15621
  20091046.113   -22151138.094 7 -17025206.56623
  21661976.0514  -12999036.58346  -7360611.14061
 92  5 28  2  9 29.9960000  0  5G24G20G17G16G 3
  21445845.363     5093485.173 7   3968947.73522
  19319051.9344  -23097398.50947 -17997959.30863
  22379733.504    -5036996.222 5  -3679013.27921
  20087718.191   -22168631.759 7 -17038837.97923
  21653736.9884  -13042333.37246  -7394348.85761
 92  5 28  2  9 44.9960000  0  5G24G20G17G16G 3
  21450497.590     5117932.459 7   3987997.55422
  19315650.4024  -23115261.52147 -18011878.54663
  22368724.191    -5094850.893 5  -3724094.76721
  20084424.551   -22185955.014 7 -17052336.60323
  21645504.2154  -13085599.07746  -7428062.35161
 92  5 28  2  9 59.9960000  0  5G24G20G17G16G 3
  21455156.582     5142420.200 6   4007078.89922
  19312287.7314  -23132954.61747 -18025665.38063
  22357728.332    -5152634.357 5  -3769120.75121
  20081155.934   -22203109.143 7 -17065703.44523
  21637277.2154  -13128836.44546  -7461753.77061
 92  5 28  2 10 14.9960000  0  5G24G20G17G16G 3
  21459825.6844    5166953.05646   4026195.39762
  19308950.6604  -23150474.79447 -18039317.47263
  22346747.0984   -5210341.59645  -3814087.34261
  20077927.027   -22220092.702 7 -17078937.37623
  21629054.0434  -13172042.53346  -7495420.81561
 92  5 28  2 10 29.9960000  0  5G24G20G17G16G 3
  21464503.613     5191534.708 6   4045349.91622
  19305648.9414  -23167820.66747 -18052833.74163
  22335780.199    -5267968.480 5  -3858991.33321
  20074728.332   -22236907.911 7 -17092040.12123
  21620839.6134  -13215216.15946  -7529062.54961
 92  5 28  2 10 44.9960000  0  5G24G20G17G16G 3
  21469190.051     5216163.389 6   4064541.07922
  19302384.1994  -23184997.28647 -18066218.12563
  22324828.7774   -5325520.55945  -3903837.02761
  20071554.8954  -22253561.67847 -17105017.07463
  21612627.770   -13258362.510 6  -7562683.04121
 92  5 28  2 10 59.9960000  0  5G24G20G17G16G 3
  21473887.3094    5240844.67746   4083773.24162
  19299144.9654  -23202002.73247 -18079469.12963
  22313893.668    -5382995.479 5  -3948622.59721
  20068419.1214  -22270052.48947 -17117867.04763
  21604424.668   -13301479.592 6  -7596280.72021
 92  5 28  2 11 14.9960000  0  5G24G20G17G16G 3
  21478593.473     5265578.943 6   4103046.68322
  19295940.0514  -23218839.94047 -18092589.03663
  22302969.879    -5440394.623 5  -3993349.12521
  20065313.0274  -22286383.99047 -17130592.88063
  21596223.457   -13344570.201 6  -7629857.77221
 92  5 28  2 11 29.9960000  0  5G24G20G17G16G 3
  21483310.6914    5290362.26346   4122358.35262
  19292770.9884  -23235513.83947 -18105581.68663
  22292060.2774   -5497721.07245  -4038019.00061
  20062231.3244  -22302559.61847 -17143197.25863
  21588027.629   -13387639.593 6  -7663418.29921
 92  5 28  2 11 44.9960000  0  5G24G20G17G16G 3
  21488034.9414    5315188.30747   4141703.31262
  19289624.6134  -23252031.71947 -18118452.76663
  22281163.473    -5554983.595 5  -4082639.06021
  20059183.324   -22318585.214 7 -17155684.72223
  21579834.746   -13430695.185 6  -7696968.06621
 92  5 28  2 11 59.9960000  0  5G24G20G17G16G 3
  21492769.4884    5340071.37646   4161092.71162
  19286514.2704  -23268376.47847 -18131188.94563
  22270282.7154   -5612166.12745  -4127196.79761
  20056168.645   -22334442.706 7 -17168041.19523
  21571645.9734  -13473719.74746  -7730493.66561
 92  5 28  2 12 14.9960000  0  5G24G20G17G16G 3
  21497516.606     5365013.893 6   4180528.42422
  19283441.1064  -23284542.35747 -18143785.74163
  22259418.1604   -5669261.07245  -4171686.29561
  20053180.2624  -22350127.65947 -17180263.22863
  21563465.6604  -13516707.66046  -7763990.69861
 92  5 28  2 12 29.9960000  0  5G24G20G17G16G 3
  21502272.020     5390006.822 6   4200003.42022
  19280396.1064  -23300536.34147 -18156248.58963
  22248568.2704   -5726274.19045  -4216111.99861
  20050226.481   -22365648.491 7 -17192357.37323
  21555290.9654  -13559665.97846  -7797464.67561
 92  5 28  2 12 44.9960000  0  5G24G20G17G16G 3
  21507037.8564    5415051.37646   4219518.64862
  19277383.1844  -23316356.20647 -18168575.76163
  22237734.3794   -5783205.03745  -4260473.61261
  20047308.301   -22381001.435 7 -17204320.69023
  21547123.520   -13602592.705 6  -7830914.03521
 92  5 28  2 12 59.9960000  0  5G24G20G17G16G 3
  21511812.8794    5440147.82046   4239074.30962
  19274410.0904  -23331998.04747 -18180764.21063
  22226916.926    -5840049.824 5  -4304768.17621
  20044417.285   -22396178.623 7 -17216147.05923
  21538961.457   -13645483.810 6  -7864335.63921
 92  5 28  2 13 14.9960000  0  5G24G20G17G16G 3
  21516597.3954    5465292.31646   4258667.40662
  19271467.6374  -23347460.13547 -18192812.59263
  22216115.4414   -5896806.43145  -4348994.01861
  20041562.184   -22411175.523 7 -17227832.94223
  21530806.981   -13688337.672 6  -7897728.21621
 92  5 28  2 13 29.9960000  0  5G24G20G17G16G 3
  21521390.8794    5490476.61446   4278291.52462
  19268555.8794  -23362745.60847 -18204723.35363
  22205331.5514   -5953477.19845  -4393152.97861
  20038746.652   -22425991.940 7 -17239378.19223
  21522657.4264  -13731157.48046  -7931094.26961
 92  5 28  2 13 44.9960000  0  5G24G20G17G16G 3
  21526191.262     5515703.654 6   4297948.94522
  19265683.7384  -23377850.72047 -18216493.57663
  22194565.527    -6010058.766 5  -4437242.42521
  20035961.176   -22440622.747 7 -17250778.80923
  21514518.3874  -13773939.45846  -7964430.83561
 92  5 28  2 13 59.9960000  0  5G24G20G17G16G 3
  21530998.3874    5540964.59146   4317632.78562
  19262844.0824  -23392781.41547 -18228127.88563
  22183814.4734   -6066558.26845  -4481267.92261
  20033208.1524  -22455074.66647 -17262040.03563
  21506381.7544  -13816689.53146  -7997742.54961
 92  5 28  2 14 14.9960000  0  5G24G20G17G16G 3
  21535811.5124    5566258.62646   4337342.41262
  19260033.0514  -23407536.57647 -18239625.41663
  22173077.395    -6122973.557 5  -4525227.81221
  20030494.6994  -22469348.54847 -17273162.53263
  21498253.6454  -13859406.72646  -8031028.64261
 92  5 28  2 14 29.9960000  0  5G24G20G17G16G 3
  21540631.0744    5591584.26146   4357076.66662
  19257258.2854  -23422118.19847 -18250987.72063
  22162357.301    -6179309.452 5  -4569125.82921
  20027812.7624  -22483445.45847 -17284147.12763
  21490130.1994  -13902093.33546  -8064290.90761
 92  5 28  2 14 44.9960000  0  5G24G20G17G16G 3
  21545456.9654    5616944.86246   4376838.16262
  19254519.9964  -23436523.56347 -18262212.68463
  22151651.793    -6235566.175 5  -4612962.15521
  20025161.1454  -22497359.97747 -17294989.60563
  21482012.6524  -13944746.24446  -8097526.90261
 92  5 28  2 14 59.9960000  0  5G24G20G17G16G 3
  21550290.3404    5642346.52646   4396631.65561
  19251810.2154  -23450746.64147 -18273295.60063
  22140963.5204   -6291739.11645  -4656733.19261
  20022552.129   -22511086.207 7 -17305685.35623
  21473903.8634  -13987359.90146  -8130732.31961
 92  5 28  2 15 14.9960000  0  5G24G20G17G16G 3
  21555130.059     5667781.291 6   4416450.93621
  19249136.8714  -23464793.42247 -18284241.14763
  22130288.0984   -6347833.94645  -4700443.36561
  20019976.356   -22524632.272 7 -17316240.72023
  21465802.0044  -14029939.97046  -8163911.56361
 92  5 28  2 15 29.9960000  0  5G24G20G17G16G 3
  21559976.176     5693245.950 6   4436293.51521
  19246500.1294  -23478670.05447 -18295054.10863
  22119628.8634   -6403855.24945  -4744096.24061
  20017426.840   -22538008.061 7 -17326663.39723
  21457704.2384  -14072492.61046  -8197069.43761
 92  5 28  2 15 44.9960000  0  5G24G20G17G16G 3
  21564828.3954    5718746.57546   4456164.12061
  19243889.6374  -23492373.88647 -18305732.41363
  22108983.270    -6459801.283 5  -4787690.47921
  20014915.621   -22551214.996 7 -17336954.50223
  21449611.9574  -14115015.54946  -8230204.16661
 92  5 28  2 15 59.9960000  0  5G24G20G17G16G 3
  21569686.8874    5744278.21246   4476058.88961
  19241312.0594  -23505911.19647 -18316280.96663
  22098349.6524   -6515679.20645  -4831231.62961
  20012434.8874  -22564262.33847 -17347121.25363
  21441524.9414  -14157514.82446  -8263320.45461
 92  5 28  2 16 14.9950000  0  5G24G20G17G16G 3
  21574551.421     5769839.394 6   4495976.68421
  19238771.6874  -23519282.41947 -18326700.10063
  22087730.8584   -6571487.16345  -4874718.26661
  20009978.413   -22577152.652 7 -17357165.63823
  21433441.9054  -14199989.15946  -8296417.31261
 92  5 28  2 16 29.9950000  0  5G24G20G17G16G 3
  21579423.437     5795438.104 6   4515923.71821
  19236256.4294  -23532488.49747 -18336990.55063
  22077119.921    -6627231.317 5  -4918155.18721
  20007556.444   -22589885.076 7 -17367086.99623
  21425363.944   -14242443.120 6  -8329498.29621
 92  5 28  2 16 44.9950000  0  5G24G20G17G16G 3
  21584301.351     5821074.772 6   4535900.32922
  19233773.5304  -23545527.98647 -18347151.19463
  22066526.148    -6682906.627 5  -4961538.47221
  20005166.241   -22602459.526 7 -17376885.25323
  21417289.6244  -14284873.52946  -8362560.92361
 92  5 28  2 16 59.9950000  0  5G24G20G17G16G 3
  21589187.499     5846748.359 6   4555905.70322
  19231326.7734  -23558402.62747 -18357183.37863
  22055944.616    -6738512.019 5  -5004867.26821
  20002798.6324  -22614881.90047 -17386565.01763
  21409219.2574  -14327282.01346  -8395606.47361
 92  5 28  2 17 14.9950000  0  5G24G20G17G16G 3
  21594078.163     5872453.538 6   4575935.69521
  19228907.4764  -23571117.70747 -18367091.23563
  22045375.4374   -6794050.08745  -5048143.60661
  20000460.9684  -22627159.45647 -17396131.93363
  21401151.890   -14369673.958 6  -8428639.13721
 92  5 28  2 17 29.9950000  0  5G24G20G17G16G 3
  21598976.202     5898192.436 6   4595991.96121
  19226514.8664  -23583671.18547 -18376873.16663
  22034822.530    -6849518.060 5  -5091365.32721
  19998156.6164  -22639289.87547 -17405584.19863
  21393087.960   -14412047.536 6  -8461657.48621
 92  5 28  2 17 44.9950000  0  5G24G20G17G16G 3
  21603881.452     5923966.074 6   4616075.29522
  19224157.7654  -23596063.59447 -18386529.58763
  22024279.429    -6904917.111 5  -5134533.34321
  19995876.8664  -22651271.35847 -17414920.41163
  21385027.710   -14454403.204 6  -8494661.88221
 92  5 28  2 17 59.9950000  0  5G24G20G17G16G 3
  21608791.898     5949767.592 6   4636180.35321
  19221831.3514  -23608300.95747 -18396065.19563
  22013747.4214   -6960255.32545  -5177653.95961
  19993622.210   -22663107.067 7 -17424143.03023
  21376971.804   -14496746.830 6  -8527656.89821
 92  5 28  2 18 14.9950000  0  5G24G20G17G16G 3
  21613705.171     5975591.093 6   4656302.53721
  19219530.1634  -23620389.34947 -18405484.72063
  22003227.554    -7015538.524 5  -5220731.69721
  19991396.8194  -22674802.23847 -17433256.14363
  21368913.788   -14539084.566 6  -8560647.31621
 92  5 28  2 18 29.9950000  0  5G24G20G17G16G 3
  21618623.007     6001436.401 6   4676441.72121
  19217254.8044  -23632329.59647 -18414788.81063
  21992719.890    -7070766.368 5  -5263766.30621
  19989200.2884  -22686356.26847 -17442259.27263
  21360858.663   -14581417.313 6  -8593633.85621
 92  5 28  2 18 44.9950000  0  5G24G20G17G16G 3
  21623545.116     6027299.048 6   4696594.41122
  19215011.8584  -23644122.97047 -18423978.45363
  21982219.3274   -7125938.26345  -5306757.32661
  19987028.741   -22697768.120 7 -17451151.61423
  21352804.515   -14623746.143 6  -8626617.34021
 92  5 28  2 18 59.9950000  0  5G24G20G17G16G 3
  21628468.546     6053173.275 6   4716756.13521
  19212798.2334  -23655771.80547 -18433055.46663
  21971731.9054   -7181056.05745  -5349706.18661
  19984880.483   -22709040.449 7 -17459935.23023
  21344748.921   -14666073.430 6  -8659599.61821
 92  5 28  2 19 14.9950000  0  5G24G20G17G16G 3
  21633392.577     6079049.147 6   4736919.13421
  19210607.0384  -23667285.02947 -18442026.80963
  21961249.3984   -7236129.87645  -5392620.77561
  19982760.3904  -22720178.38547 -17468614.14263
  21336692.374   -14708408.295 6  -8692587.80821
 92  5 28  2 19 29.9950000  0  5G24G20G17G16G 3
  21638317.421     6104929.554 6   4757085.67021
  19208439.4764  -23678657.45247 -18450888.44163
  21950779.679    -7291154.368 5  -5435496.93921
  19980672.726   -22731171.601 7 -17477180.26923
  21328635.390   -14750745.755 6  -8725578.02821
 92  5 28  2 19 44.9950000  0  5G24G20G17G16G 3
  21643241.194     6130805.999 6   4777249.11621
  19206300.9374  -23689897.22747 -18459646.70763
  21940314.3984   -7346139.65445  -5478342.54361
  19978606.937   -22742027.638 7 -17485639.50223
  21320577.304   -14793093.586 6  -8758576.31621
 92  5 28  2 19 59.9950000  0  5G24G20G17G16G 3
  21648164.343     6156674.963 6   4797406.73421
  19204190.0694  -23701007.47447 -18468304.04263
  21929856.7414   -7401088.79045  -5521159.97861
  19976563.8044  -22752748.93247 -17493993.74963
  21312516.413   -14835454.936 6  -8791585.14021
 92  5 28  2 20 14.9950000  0  5G24G20G17G16G 3
  21653083.874     6182531.058 6   4817554.32121
  19202098.9054  -23711993.56847 -18476864.63763
  21919408.562    -7456006.173 5  -5563952.67821
  19974546.7184  -22763340.72747 -17502247.09063
  21304452.124   -14877835.328 6  -8824608.80421
 92  5 28  2 20 29.9950000  0  5G24G20G17G16G 3
  21658002.593     6208374.999 6   4837692.44321
  19200029.4054  -23722852.94347 -18485326.49163
  21908966.0074   -7510887.26045  -5606717.09961
  19972560.0384  -22773800.08547 -17510397.23363
  21296385.116   -14920232.077 6  -8857645.21221
 92  5 28  2 20 44.9950000  0  5G24G20G17G16G 3
  21662917.312     6234198.714 6   4857814.79921
  19197987.4684  -23733590.68347 -18493693.56763
  21898526.8194   -7565737.47145  -5649457.45561
  19970595.2334  -22784131.35447 -17518447.55963
  21288311.460   -14962650.108 6  -8890698.20321
 92  5 28  2 20 59.9950000  0  5G24G20G17G16G 3
  21667827.358     6260003.076 6   4877922.07921
  19195970.1404  -23744205.03447 -18501964.49263
  21888094.562    -7620557.746 5  -5692174.48221
  19968649.6874  -22794335.22647 -17526398.62463
  21280236.538   -15005087.751 6  -8923766.47921
 92  5 28  2 21 14.9950000  0  5G24G20G17G16G 3
  21672734.038     6285788.775 6   4898014.81821
  19193971.8044  -23754696.55347 -18510139.70863
  21877668.210    -7675351.648 5  -5734870.96121
  19966732.4444  -22804414.34947 -17534252.48163
  21272157.023   -15047545.610 6  -8956850.50921
 92  5 28  2 21 29.9950000  0  5G24G20G17G16G 3
  21677636.413     6311552.133 6   4918090.14921
  19191995.0624  -23765070.79947 -18518223.54063
  21867244.6714   -7730127.14145  -5777553.09361
  19964840.1244  -22814375.77447 -17542014.62463
  21264072.577   -15090029.219 6  -8989954.59521
 92  5 28  2 21 44.9950000  0  5G24G20G17G16G 3
  21682534.374     6337290.310 6   4938145.85821
  19190044.8354  -23775331.19547 -18526218.65863
  21856825.0154   -7784888.58845  -5820224.28561
  19962962.7884  -22824226.92447 -17549690.83763
  21255982.538   -15132541.919 6  -9023081.35521
 92  5 28  2 21 59.9950000  0  5G24G20G17G16G 3
  21687427.304     6363004.455 6   4958182.83821
  19188116.3664  -23785478.93847 -18534125.99363
  21846405.483    -7839638.033 5  -5862886.11221
  19961106.4294  -22833972.27147 -17557284.60963
  21247886.679   -15175084.868 6  -9056231.68521
 92  5 28  2 22 14.9950000  0  5G24G20G17G16G 3
  21692315.9914    6388698.00646   4978203.77861
  19186204.5934  -23795511.48947 -18541943.56963
  21835991.499    -7894371.336 5  -5905535.36421
  19959273.8434  -22843610.36547 -17564794.80963
  21239786.093   -15217655.704 6  -9089403.75021
 92  5 28  2 22 29.9950000  0  5G24G20G17G16G 3
  21697201.187     6414367.868 6   4998206.25521
  19184315.5074  -23805430.60447 -18549672.75663
  21825577.2654   -7949088.22445  -5948171.84161
  19957462.8044  -22853145.57747 -17572224.83863
  21231680.3194  -15260256.09446  -9122598.84461
 92  5 28  2 22 44.9950000  0  5G24G20G17G16G 3
  21702081.757     6440013.208 6   5018189.62121
  19182451.3044  -23815235.41947 -18557312.87563
  21815165.921    -8003789.042 5  -5990795.78621
  19955665.3904  -22862578.80947 -17579575.39863
  21223567.851   -15302885.103 6  -9155816.23521
 92  5 28  2 22 59.9950000  0  5G24G20G17G16G 3
  21706957.905     6465637.605 6   5038156.67021
  19180610.4764  -23824925.37547 -18564863.49563
  21804762.1794   -8058475.06145  -6033408.20061
  19953886.4914  -22871912.92947 -17586848.73163
  21215450.663   -15345541.893 6  -9189055.27821
 92  5 28  2 23 14.9950000  0  5G24G20G17G16G 3
  21711830.140     6491242.207 6   5058108.28621
  19178786.2104  -23834501.66647 -18572325.54563
  21794359.6634   -8113146.05645  -6076008.90661
  19952129.4524  -22881148.95347 -17594045.62263
  21207327.6164  -15388227.91746  -9222317.09961
 92  5 28  2 23 29.9950000  0  5G24G20G17G16G 3
  21716700.398     6516827.501 6   5078044.85921
  19176982.5464  -23843963.21847 -18579698.19063
  21783959.3044   -8167798.70345  -6118595.32661
  19950394.5154  -22890284.26347 -17601164.03963
  21199198.929   -15430941.978 6  -9255600.76821
 92  5 28  2 23 44.9950000  0  5G24G20G17G16G 3
  21721563.819     6542394.610 6   5097967.26621
  19175204.4524  -23853308.65447 -18586980.35263
  21773562.8904   -8222427.66245  -6161163.27661
  19948676.5694  -22899316.81947 -17608202.38963
  21191065.585   -15473682.408 6  -9288904.98521
 92  5 28  2 23 59.9950000  0  5G24G20G17G16G 3
  21726424.601     6567937.663 6   5117870.91621
  19173450.2264  -23862540.72847 -18594174.18663
  21763173.5074   -8277032.33945  -6203712.30261
  19946973.5304  -22908248.23747 -17615161.93063
  21182926.163   -15516452.472 6  -9322232.29121
 92  5 28  2 24 14.9950000  0  5G24G20G17G16G 3
  21731282.632     6593460.391 6   5137758.74521
  19171716.4444  -23871655.47747 -18601276.59663
  21752787.4684   -8331606.74645  -6246237.75261
  19945293.1014  -22917072.38847 -17622037.88463
  21174783.765   -15559247.772 6  -9355579.26221
 92  5 28  2 24 29.9950000  0  5G24G20G17G16G 3
  21736133.7654    6618956.53546   5157625.85561
  19170003.2734  -23880655.42147 -18608289.54563
  21742407.163    -8386152.648 5  -6288740.97521
  19943634.6484  -22925789.93747 -17628830.77763
  21166634.874   -15602070.868 6  -9388947.89421
 92  5 28  2 24 44.9950000  0  5G24G20G17G16G 3
  21740980.905     6644429.228 6   5177474.68821
  19168310.5154  -23889536.96447 -18615210.23763
  21732031.952    -8440670.450 5  -6331222.31221
  19941998.4214  -22934396.84347 -17635537.44663
  21158481.694   -15644918.308 6  -9422335.49321
 92  5 28  2 24 59.9950000  0  5G24G20G17G16G 3
  21745824.968     6669888.207 6   5197312.83721
  19166644.0694  -23898293.38947 -18622033.43263
  21721664.5694   -8495154.31645  -6373677.20961
  19940385.7104  -22942883.75747 -17642150.61763
  21150323.796   -15687783.166 6  -9455736.66121
 92  5 28  2 25 14.9950000  0  5G24G20G17G16G 3
  21750667.155     6695330.452 6   5217137.95021
  19165002.8904  -23906927.10647 -18628761.01063
  21711303.3194   -8549603.34045  -6416104.95161
  19938792.2964  -22951249.57247 -17648669.43163
  21142162.812   -15730667.467 6  -9489152.98221
 92  5 28  2 25 29.9950000  0  5G24G20G17G16G 3
  21755504.835     6720753.077 6   5236947.76821
  19163385.6554  -23915437.36747 -18635392.39263
  21700949.4134   -8604014.54945  -6458503.22961
  19937221.2184  -22959490.96847 -17655091.29663
  21133999.499   -15773570.842 6  -9522584.17021
 92  5 28  2 25 44.9950000  0  5G24G20G17G16G 3
  21760340.827     6746159.292 6   5256744.80821
  19161790.1164  -23923820.85247 -18641924.98863
  21690603.3124   -8658384.50445  -6500869.36361
  19935677.0234  -22967603.70847 -17661412.90363
  21125832.085   -15816489.703 6  -9556027.41621
 92  5 28  2 25 59.9950000  0  5G24G20G17G16G 3
  21765171.390     6771553.250 6   5276532.28421
  19160217.8274  -23932074.55247 -18648356.44863
  21680265.7414   -8712708.36645  -6543199.59261
  19934159.5304  -22975585.82347 -17667632.72463
  21117662.671   -15859421.131 6  -9589480.46321
 92  5 28  2 26 14.9950000  0  5G24G20G17G16G 3
  21770001.983     6796938.918 6   5296313.30721
  19158670.7964  -23940196.67147 -18654685.38263
  21669937.4604   -8766985.16645  -6585493.13561
  19932668.0694  -22983437.19747 -17673750.67163
  21109490.819   -15902363.316 6  -9622941.88921
 92  5 28  2 26 29.9950000  0  5G24G20G17G16G 3
  21774833.343     6822320.938 6   5316091.48521
  19157150.4054  -23948184.20047 -18660909.43663
  21659617.3354   -8821211.92945  -6627747.69161
  19931199.7654  -22991155.15047 -17679764.65863
  21101317.319   -15945312.931 6  -9656409.10621
 92  5 28  2 26 44.9950000  0  5G24G20G17G16G 3
  21779661.976     6847699.464 6   5335866.94721
  19155658.5234  -23956038.15447 -18667029.41063
  21649309.2804   -8875390.49945  -6669964.69261
  19929754.2264  -22998741.13747 -17685675.81063
  21093142.663   -15988271.185 6  -9689883.05321
 92  5 28  2 26 59.9950000  0  5G24G20G17G16G 3
  21784490.773     6873072.523 6   5355638.14621
  19154190.6554  -23963761.95147 -18673047.96063
  21639007.1084   -8929523.11045  -6712145.88961
  19928333.0694  -23006196.63047 -17691485.28263
  21084966.444   -16031241.103 6  -9723366.08721
 92  5 28  2 27 14.9950000  0  5G24G20G17G16G 3
  21789317.890     6898441.508 6   5375406.17021
  19152745.7414  -23971352.08947 -18678962.36163
  21628716.9764   -8983602.49845  -6754285.60861
  19926940.2964  -23013516.85647 -17697189.35063
  21076788.101   -16074219.286 6  -9756855.56621
 92  5 28  2 27 29.9950000  0  5G24G20G17G16G 3
  21794146.054     6923809.847 6   5395173.69621
  19151324.7654  -23978804.50247 -18684769.44363
  21618436.5694   -9037627.24645  -6796382.75561
  19925574.9764  -23020698.91347 -17702785.75263
  21068608.327   -16117201.562 6  -9790348.23021
 92  5 28  2 27 44.9950000  0  5G24G20G17G16G 3
  21798972.296     6949178.447 6   5414941.41221
  19149931.2024  -23986119.79447 -18690469.67863
  21608163.9054   -9091601.36045  -6838440.44361
  19924237.0384  -23027747.21047 -17708277.92663
  21060427.983   -16160188.389 6  -9823844.44421
 92  5 28  2 27 59.9950000  0  5G24G20G17G16G 3
  21803801.905     6974552.919 6   5434713.70821
  19148566.0624  -23993294.05347 -18696060.01863
  21597902.4374   -9145524.63845  -6880458.53361
  19922921.4294  -23034658.32447 -17713663.20563
  21052247.765   -16203175.843 6  -9857341.14321
 92  5 28  2 28 14.9950000  0  5G24G20G17G16G 3
  21808631.718     6999932.240 6   5454489.78321
  19147230.6404  -24000325.93347 -18701539.41463
  21587651.6164   -9199396.86945  -6922436.84061
  19921630.3744  -23041431.97247 -17718941.36663
  21044067.632   -16246162.887 6  -9890837.52121
 92  5 28  2 28 29.9950000  0  5G24G20G17G16G 3
  21813460.921     7025314.287 6   5474267.98621
  19145921.3434  -24007214.94747 -18706907.48163
  21577408.0854   -9253221.77845  -6964378.26361
  19920365.8434  -23048065.81247 -17724110.58663
  21035887.749   -16289148.374 6  -9924332.68621
 92  5 28  2 28 44.9950000  0  5G24G20G17G16G 3
  21818290.812     7050694.709 6   5494044.91721
  19144636.5304  -24013962.13147 -18712165.03463
  21567174.4524   -9307002.69445  -7006285.41261
  19919130.1554  -23054556.32847 -17729168.12763
  21027707.577   -16332133.580 6  -9957827.64221
 92  5 28  2 28 59.9950000  0  5G24G20G17G16G 3
  21823121.374     7076072.098 6   5513819.49321
  19143378.0384  -24020567.32047 -18717311.94063
  21556947.890    -9360741.534 5  -7048159.78921
  19917924.2734  -23060903.96747 -17734114.33163
  21019528.312   -16375118.157 6  -9991322.10021
 92  5 28  2 29 14.9950000  0  5G24G20G17G16G 3
  21827949.077     7101447.667 6   5533592.64921
  19142146.6874  -24027027.83947 -18722346.12163
  21546729.7574   -9414436.34245  -7089999.84261
  19916746.0304  -23067107.41847 -17738948.18363
  21011349.155   -16418099.549 6 -10024814.07321
 92  5 28  2 29 29.9950000  0  5G24G20G17G16G 3
  21832777.257     7126823.668 6   5553366.13621
  19140944.8744  -24033342.46247 -18727266.61163
  21536522.280    -9468086.750 5  -7131805.30521
  19915591.9994  -23073171.10847 -17743673.12463
  21003170.593   -16461076.387 6 -10058302.49621
 92  5 28  2 29 44.9950000  0  5G24G20G17G16G 3
  21837607.507     7152201.472 6   5573141.03721
  19139773.7494  -24039511.27747 -18732073.48463
  21526320.624    -9521691.901 5  -7173575.50121
  19914461.9214  -23079097.28847 -17748290.92563
  20994993.601   -16504048.382 6 -10091787.15521
 92  5 28  2 29 59.9950000  0  5G24G20G17G16G 3
  21842437.038     7177581.141 6   5592917.38121
  19138630.1554  -24045530.79547 -18736764.02363
  21516130.101    -9575245.028 5  -7215305.16121
  19913359.7964  -23084880.81947 -17752797.56963
  20986817.194   -16547012.036 6 -10125265.30721
 92  5 28  2 30 14.9950000  0  5G24G20G17G16G 3
  21847265.5624    7202956.81046   5612690.61461
  19137512.1244  -24051405.39247 -18741341.63663
  21505948.952    -9628747.724 5  -7256995.52321
  19912285.9524  -23090524.43947 -17757195.19763
  20978642.694   -16589971.748 6 -10158740.39021
 92  5 28  2 30 29.9950000  0  5G24G20G17G16G 3
  21852094.007     7228331.415 6   5632463.02221
  19136420.9214  -24057132.05247 -18745803.97363
  21495777.515    -9682195.656 5  -7298643.20421
  19911240.4214  -23096026.55647 -17761482.54963
  20970469.866   -16632924.150 6 -10192209.77721
 92  5 28  2 30 44.9950000  0  5G24G20G17G16G 3
  21856923.398     7253707.777 6   5652236.79721
  19135357.7024  -24062710.14547 -18750150.54163
  21485616.694    -9735588.671 5  -7340248.10821
  19910221.8044  -23101386.66847 -17765659.25163
  20962297.374   -16675868.652 6 -10225673.00521
 92  5 28  2 30 59.9950000  0  5G24G20G17G16G 3
  21861753.226     7279089.428 6   5672014.68821
  19134323.5464  -24068139.14347 -18754380.93263
  21475466.991    -9788924.414 5  -7381808.38521
  19909229.1084  -23106608.44447 -17769728.16463
  20954126.827   -16718804.656 6 -10259129.61521
 92  5 28  2 31 14.9950000  0  5G24G20G17G16G 3
  21866585.7804    7304483.27846   5691802.09761
  19133320.8744  -24073413.64947 -18758490.94363
  21465331.421    -9842194.673 6  -7423317.62021
  19908262.2104  -23111691.00947 -17773688.60263
  20945958.382   -16761726.884 6 -10292575.48521
 92  5 28  2 31 29.9950000  0  5G24G20G17G16G 3
  21871420.9444    7329889.59046   5711599.21561
  19132347.4684  -24078535.14047 -18762481.72163
  21455207.155    -9895397.704 6  -7464774.48621
  19907319.8274  -23116636.30847 -17777542.07163
  20937792.929   -16804636.285 6 -10326011.36021
 92  5 28  2 31 44.9950000  0  5G24G20G17G16G 3
  21876256.0464    7355310.37646   5731407.60661
  19131403.9134  -24083500.73647 -18766351.02263
  21445096.398    -9948528.692 6  -7506175.20121
  19906405.0774  -23121439.47847 -17781284.79663
  20929631.569   -16847530.201 6 -10359435.17421
 92  5 28  2 31 59.9950000  0  5G24G20G17G16G 3
  21881096.585     7380741.423 6   5751223.99721
  19130489.2184  -24088312.84647 -18770100.71863
  21434998.2264  -10001592.05746  -7547523.23761
  19905516.3194  -23126099.06447 -17784915.63963
  20921471.023   -16890410.628 6 -10392848.47621
 92  5 28  2 32 14.9950000  0  5G24G20G17G16G 3
  21885938.9294    7406184.04846   5771049.40361
  19129602.8044  -24092970.96047 -18773730.42663
  21424912.093   -10054586.305 6  -7588817.41221
  19904656.3434  -23130614.78247 -17788434.37463
  20913314.296   -16933277.247 7 -10426251.01322
 92  5 28  2 32 29.9950000  0  5G24G20G17G16G 3
  21890784.452     7431642.731 6   5790887.32021
  19128744.8904  -24097475.47447 -18777240.44263
  21414841.030   -10107512.287 6  -7630058.39721
  19903825.4834  -23134987.15147 -17791841.41163
  20905159.124   -16976130.137 7 -10459642.86121
 92  5 28  2 32 44.9950000  0  5G24G20G17G16G 3
  21895632.741     7457123.279 6   5810742.27421
  19127916.4374  -24101823.16547 -18780628.26163
  21404784.960   -10160367.148 6  -7671243.95121
  19903021.4444  -23139213.02147 -17795134.29163
  20897008.062   -17018966.154 7 -10493021.55821
 92  5 28  2 32 59.9950000  0  5G24G20G17G16G 3
  21900483.148     7482617.616 6   5830607.97621
  19127116.6944  -24106020.60947 -18783899.00463
  21394740.077   -10213153.915 6  -7712376.44921
  19902245.1404  -23143299.01747 -17798318.17963
  20888858.257   -17061791.534 7 -10526391.96721
 92  5 28  2 33 14.9950000  0  5G24G20G17G16G 3
  21905337.483     7508129.005 6   5850486.96321
  19126346.6944  -24110061.81747 -18787048.00563
  21384707.874   -10265863.947 6  -7753449.15521
  19901496.7184  -23147238.82747 -17801388.15463
  20880712.765   -17104600.157 7 -10559749.31922
 92  5 28  2 33 29.9950000  0  5G24G20G17G16G 3
  21910194.562     7533654.669 6   5870377.07821
  19125606.8274  -24113948.85347
  21374692.851   -10318498.310 6  -7794462.89621
  19900776.3044  -23151030.76447
  20872568.468   -17147394.169 6 -10593095.28621
 92  5 28  2 33 44.9950000  0  5G24G20G17G16G 3
  21915055.562     7559190.200 6   5890274.87821
  19124896.3514  -24117685.37647
  21364691.538   -10371063.543 6  -7835422.77021
  19900082.9214  -23154677.70747
  20864427.030   -17190176.769 6 -10626432.36221
 92  5 28  2 33 59.9950000  0  5G24G20G17G16G 3
  21919916.2104    7584740.13246   5910183.88361
  19124214.046   -24121266.262 7
  21354699.491   -10423557.911 6  -7876327.42821
  19899417.1874  -23158175.37347
  20856289.015   -17232942.983 6 -10659756.66921
 92  5 28  2 34 14.9950000  0  5G24G20G17G16G 3
  21924782.1324    7610305.49346   5930104.91661
  19123561.4994  -24124693.34647
  21344722.241   -10475983.991 6  -7917178.87421
  19898779.1714  -23161526.02047
  20848154.3514  -17275694.24846 -10693069.33162
 92  5 28  2 34 29.9950000  0  5G24G20G17G16G 3
  21929649.569     7635889.522 6   5950040.50521
  19122939.7494  -24127964.97247
  21334759.968   -10528341.473 6  -7957976.86321
  19898169.6714  -23164728.34447
  20840021.5074  -17318428.92247 -10726369.06861
 92  5 28  2 34 44.9950000  0  5G24G20G17G16G 3
  21934522.4684    7661489.58946   5969988.58661
  19122346.4914  -24131081.87547
  21324808.710   -10580633.418 6  -7998723.78621
  19897588.5694  -23167782.16447
  20831892.890   -17361147.607 7 -10759656.34021
 92  5 28  2 34 59.9950000  0  5G24G20G17G16G 3
  21939394.882     7687100.896 6   5989945.42921
  19121783.8584  -24134045.28647
  21314871.155   -10632861.969 6  -8039421.31521
  19897034.6244  -23170688.24247
  20823766.6944  -17403851.56446 -10792932.13461
 92  5 28  2 35 14.9950000  0  5G24G20G17G16G 3
  21944271.702     7712727.669 6   6009914.32221
  19121250.4994  -24136850.36347
  21304944.515   -10685021.268 6  -8080064.86921
  19896510.0304  -23173439.45947
  20815644.1714  -17446535.67047 -10826192.46361
 92  5 28  2 35 29.9950000  0  5G24G20G17G16G 3
  21949151.288     7738370.498 6   6029895.73121
  19120747.2184  -24139499.39847
  21295031.093   -10737116.629 6  -8120658.60721
  19896016.6014  -23176036.44447
  20807524.413   -17489201.752 7 -10859438.74321
 92  5 28  2 35 44.9950000  0  5G24G20G17G16G 3
  21954034.780     7764028.574 6   6049889.01421
  19120272.2884  -24141994.66947
  21285129.343   -10789153.696 6  -8161206.92421
  19895550.7964  -23178479.89847
  20799408.218   -17531852.389 7 -10892672.99121
 92  5 28  2 35 59.9950000  0  5G24G20G17G16G 3
  21958919.7884    7789702.95346   6069895.00861
  19119827.9914  -24144334.26547
  21275238.108   -10841130.569 6  -8201708.33621
  19895115.5694  -23180768.04347
  20791295.9214  -17574485.49547 -10925893.58161
 92  5 28  2 36 14.9950000  0  5G24G20G17G16G 3
  21963810.343     7815400.837 6   6089919.32221
  19119413.6484  -24146511.38447
  21265361.062   -10893036.688 6  -8242154.61021
  19894710.5154  -23182890.95947
  20783187.843   -17617093.869 7 -10959094.89621
 92  5 28  2 36 29.9950000  0  5G24G20G17G16G 3
  21968703.937     7841115.189 6   6109956.46221
  19119029.8904  -24148530.28247
  21255497.671   -10944873.807 6  -8282547.11821
  19894336.8044  -23184852.39747
  20775083.593   -17659681.750 7 -10992280.23721
 92  5 28  2 36 44.9950000  0  5G24G20G17G16G 3
  21973598.702     7866841.447 6   6130002.88621
  19118676.0854  -24150392.60547
  21245646.390   -10996642.625 6  -8322886.40921
  19893992.5234  -23186653.90447
  20766982.765   -17702250.516 7 -11025450.69121
 92  5 28  2 36 59.9950000  0  5G24G20G17G16G 3
  21978496.937     7892579.410 6   6150058.42121
  19118351.5694  -24152099.24547
  21235808.108   -11048341.235 6  -8363170.99221
  19893680.1554  -23188298.25647
  20758885.6634  -17744800.83447 -11058606.77361
 92  5 28  2 37 14.9950000  0  5G24G20G17G16G 3
  21983397.296     7918331.764 6   6170125.16621
  19118056.7024  -24153648.01547
  21225985.483   -11099964.665 6  -8403396.98721
  19893397.1714  -23189784.60247
  20750793.0304  -17787330.40647 -11091746.69362
 92  5 28  2 37 29.9950000  0  5G24G20G17G16G 3
  21988300.858     7944096.533 6   6190201.59921
  19117791.4834  -24155040.15647
  21216173.507   -11151515.797 6  -8443566.65521
  19893143.6164  -23191117.97547
  20742703.0694  -17829840.57146 -11124871.49061
 92  5 28  2 37 44.9950000  0  5G24G20G17G16G 3
  21993205.491     7969871.750 6   6210286.16521
  19117555.4604  -24156276.39547
  21206378.335   -11202996.789 6  -8483681.65921
  19892918.2414  -23192301.65847
  20734617.6164  -17872331.61346 -11157981.39161
 92  5 28  2 37 59.9950000  0  5G24G20G17G16G 3
  21998111.952     7995657.947 6   6230379.28821
  19117350.4374  -24157355.03547
  21196595.913   -11254403.504 6  -8523738.78921
  19892721.7104  -23193337.76447
  20726534.6944  -17914801.95846 -11191075.16261
 92  5 28  2 38 14.9950000  0  5G24G20G17G16G 3
  22003020.257     8021451.857 6   6250478.42021
  19117175.6634  -24158279.23647
  21186826.655   -11305738.129 6  -8563739.75321
  19892550.2414  -23194233.34947
  20718456.5854  -17957254.34646 -11224154.94061
 92  5 28  2 38 29.9950000  0  5G24G20G17G16G 3
  22007931.218     8047254.818 6   6270584.60421
  19117028.976   -24159047.190 7
  21177071.773   -11357000.018 6  -8603684.03521
  19892408.3274  -23194986.58747
  20710382.6014  -17999686.86646 -11257219.23862
 92  5 28  2 38 44.9950000  0  5G24G20G17G16G 3
  22012841.507     8073064.618 6   6290696.12121
  19116911.452   -24159662.029 7
  21167329.108   -11408193.967 6  -8643575.37621
  19892291.2414  -23195601.43247
  20702311.319   -18042102.500 7 -11290270.36921
 92  5 28  2 38 59.9950000  0  5G24G20G17G16G 3
  22017756.202     8098886.210 6   6310816.82121
  19116822.6324  -24160122.25147
  21157601.023   -11459320.339 6  -8683414.06721
  19892201.0624  -23196075.68947
  20694243.5624  -18084499.60446 -11323307.06361
 92  5 28  2 39 14.9950000  0  5G24G20G17G16G 3
  22022671.312     8124723.207 6   6330949.53621
  19116766.3434  -24160423.90247
  21147884.937   -11510374.165 6  -8723196.22221
  19892137.7574  -23196405.57247
  20686179.2654  -18126873.90046 -11356325.98661
 92  5 28  2 39 29.9950000  0  5G24G20G17G16G 3
  22027591.476     8150572.913 6   6351092.15921
  19116740.2964  -24160567.24347
  21138182.858   -11561357.896 6  -8762923.75921
  19892102.4524  -23196589.70847
  20678120.4214  -18169225.37246 -11389327.12762
 92  5 28  2 39 44.9950000  0  5G24G20G17G16G 3
  22032510.5304    8176429.85246   6371240.41761
  19116741.2654  -24160557.40247
  21128493.968   -11612277.418 6  -8802601.26221
  19892093.5464  -23196631.72847
  20670063.7964  -18211559.16947 -11422314.49161
 92  5 28  2 39 59.9950000  0  5G24G20G17G16G 3
  22037435.804     8202298.394 6   6391397.70521
  19116773.9914  -24160392.73847
  21118816.335   -11663128.668 6  -8842225.56421
  19892115.3744  -23196526.65347
  20662011.7414  -18253873.36146 -11455286.57462
 92  5 28  2 40 14.9950000  0  5G24G20G17G16G 3
  22042359.8044    8228182.01246   6411566.74561
  19116835.3984  -24160068.41347
  21109153.874   -11713908.023 6  -8881793.85021
  19892164.2184  -23196267.64947
  20653964.437   -18296162.818 6 -11488239.39321
 92  5 28  2 40 29.9950000  0  5G24G20G17G16G 3
  22047287.343     8254073.021 6   6431741.53721
  19116925.3984  -24159590.76847
  21099502.7414  -11764622.45646  -8921311.55161
  19892242.0624  -23195856.80147
  20645921.2964  -18338433.69546 -11521177.72962
 92  5 28  2 40 44.9950000  0  5G24G20G17G16G 3
  22052215.671     8279973.058 6   6451923.36521
  19117044.6554  -24158956.87147
  21089865.3044  -11815267.02346  -8960774.81161
  19892351.3124  -23195290.68547
  20637881.827   -18380683.128 6 -11554099.35322
 92  5 28  2 40 59.9950000  0  5G24G20G17G16G 3
  22057145.929     8305883.304 6   6472113.15421
  19117195.3434  -24158165.85947
  21080241.3744  -11865840.43546  -9000182.62661
  19892487.6874  -23194571.95747
  20629846.218   -18422910.185 6 -11587003.54022
 92  5 28  2 41 14.9950000  0  5G24G20G17G16G 3
  22062078.523     8331800.281 6   6492308.17621
  19117374.4524  -24157220.52447
  21070630.6554  -11916345.00446  -9039536.79761
  19892653.3274  -23193706.34247
  20621813.6404  -18465117.06846 -11619892.01162
 92  5 28  2 41 29.9950000  0  5G24G20G17G16G 3
  22067009.444     8357719.876 6   6512505.24721
  19117583.4684  -24156125.02147
  21061033.4134  -11966784.04546  -9078839.90961
  19892845.8124  -23192698.08747
  20613785.257   -18507308.067 7 -11652768.10321
 92  5 28  2 41 44.9950000  0  5G24G20G17G16G 3
  22071944.194     8383647.559 6   6532708.61921
  19117819.3124  -24154876.47647 -18821968.73564
  21051446.1714  -12017155.49346  -9118090.36261
  19893066.2334  -23191543.46847 -17835911.11163
  20605760.773   -18549479.857 7 -11685629.22721
 92  5 28  2 41 59.9950000  0  5G24G20G17G16G 3
  22076880.812     8409589.730 6   6552923.28321
  19118086.5854  -24153469.98947 -18820872.77763
  21041876.4054  -12067452.31446  -9157282.65661
  19893314.6324  -23190238.39647 -17834894.17463
  20597740.4914  -18591627.36547 -11718471.43061
 92  5 28  2 42 14.9950000  0  5G24G20G17G16G 3
  22081820.2494    8435545.17146   6573148.28961
  19118384.0154  -24151907.47747 -18819655.23764
  21032319.2654  -12117675.48246  -9196417.55161
  19893592.4834  -23188785.98747 -17833762.42363
  20589723.632   -18633752.245 7 -11751295.99922
 92  5 28  2 42 29.9950000  0  5G24G20G17G16G 3
  22086762.0234    8461513.21746   6593383.11761
  19118710.2494  -24150187.52547 -18818315.02264
  21022777.1554  -12167821.85746  -9235492.60561
  19893896.5384  -23187185.00647 -17832514.91063
  20581711.663   -18675852.933 7 -11784101.71221
 92  5 28  2 42 44.9950000  0  5G24G20G17G16G 3
  22091705.882     8487492.074 6   6613626.36321
  19119066.8514  -24148315.41047 -18816856.23763
  21013247.2024  -12217893.39346  -9274509.34461
  19894226.1244  -23185442.71947 -17831157.28363
  20573705.773   -18717934.438 7 -11816892.48021
 92  5 28  2 42 59.9950000  0  5G24G20G17G16G 3
  22096651.038     8513485.373 6   6633880.86321
  19119454.4604  -24146288.72447 -18815277.00564
  21003733.163   -12267888.685 6  -9313466.66621
  19894584.2654  -23183558.68247 -17829689.20363
  20565700.132   -18759994.100 7 -11849666.21921
 92  5 28  2 43 14.9950000  0  5G24G20G17G16G 3
  22101601.819     8539494.149 6   6654147.42121
  19119870.4214  -24144108.86147 -18813578.42063
  20994234.929   -12317810.236 6  -9352366.53221
  19894968.6794  -23181532.14847 -17828110.08763
  20557700.983   -18802033.337 7 -11882424.04421
 92  5 28  2 43 29.9950000  0  5G24G20G17G16G 3
  22106553.569     8565521.032 6   6674428.08721
  19120315.6244  -24141773.52947 -18811758.68763
  20984751.3904  -12367654.38046  -9391206.08561
  19895381.7414  -23179355.44947 -17826413.96063
  20549705.335   -18844049.536 7 -11915163.92221
 92  5 28  2 43 44.9950000  0  5G24G20G17G16G 3
  22111509.210     8591561.302 6   6694719.18621
  19120789.1554  -24139285.78847 -18809820.19563
  20975278.3824  -12417422.80346  -9429986.63561
  19895823.8124  -23177029.35947 -17824601.41963
  20541713.890   -18886045.331 7 -11947887.90721
 92  5 28  2 43 59.9940000  0  5G24G20G17G16G 3
  22116465.471     8617609.498 6   6715016.46821
  19121290.9084  -24136646.80747 -18807763.85563
  20965822.0804  -12467111.98746  -9468705.45461
  19896296.6584  -23174554.43147 -17822672.90563
  20533726.260   -18928018.881 7 -11980594.55422
 92  5 28  2 44 14.9940000  0  5G24G20G17G16G 3
  22121423.721     8643667.477 6   6735321.36321
  19121820.2914  -24133858.84247 -18805591.42363
  20956382.4714  -12516730.71246  -9507369.35361
  19896796.9244  -23171933.08247 -17820630.29763
  20525742.010   -18969978.056 7 -12013289.99922
 92  5 28  2 44 29.9940000  0  5G24G20G17G16G 3
  22126384.447     8669734.601 6   6755633.38621
  19122377.8304  -24130920.53347 -18803301.84463
  20946953.2214  -12566273.92846  -9545974.42161
  19897325.4634  -23169163.25547 -17818471.99163
  20517761.041   -19011918.286 7 -12045970.67822
 92  5 28  2 44 44.9940000  0  5G24G20G17G16G 3
  22131347.455     8695811.423 6   6775952.97821
  19122964.9714  -24127831.86147 -18800895.09463
  20937539.0254  -12615743.03546  -9584521.74661
  19897881.0414  -23166246.38947 -17816199.10663
  20509784.611   -19053839.432 7 -12078636.48622
 92  5 28  2 44 59.9940000  0  5G24G20G17G16G 3
  22136311.2684    8721898.86746   6796280.82661
  19123581.4164  -24124593.12647 -18798371.41663
  20928138.5654  -12665140.71046  -9623013.40761
  19898463.0654  -23163183.58247 -17813812.50563
  20501810.002   -19095741.705 7 -12111287.58422
 92  5 28  2 45 14.9940000  0  5G24G20G17G16G 3
  22141277.197     8747999.809 6   6816619.20321
  19124228.7134  -24121199.99147 -18795727.42363
  20918754.6044  -12714461.85746  -9661445.43661
  19899073.7994  -23159970.43847 -17811308.75663
  20493840.690   -19137620.292 7 -12143920.22922
 92  5 28  2 45 29.9940000  0  5G24G20G17G16G 3
  22146248.807     8774114.558 6   6836968.34621
  19124905.7994  -24117651.68047 -18792962.51263
  20909385.0724  -12763704.96646  -9699816.65361
  19899712.1114  -23156605.94547 -17808687.07663
  20485875.424   -19179474.241 7 -12176533.67522
 92  5 28  2 45 44.9940000  0  5G24G20G17G16G 3
  22151219.440     8800239.720 6   6857325.58921
  19125610.5254  -24113951.20447 -18790079.03263
  20900027.6114  -12812872.12146  -9738128.68161
  19900378.5024  -23153095.33047 -17805951.53563
  20477916.596   -19221306.442 7 -12209130.17822
 92  5 28  2 45 59.9940000  0  5G24G20G17G16G 3
  22156192.885     8826380.655 6   6877695.12821
  19126344.0334  -24110094.79247 -18787074.04563
  20890685.9244  -12861960.05746  -9776378.98261
  19901076.1744  -23149436.94347 -17803100.84763
  20469960.447   -19263112.659 7 -12241706.43822
 92  5 28  2 46 14.9940000  0  5G24G20G17G16G 3
  22161170.4554    8852536.95046   6898076.63761
  19127106.0964  -24106085.46547 -18783949.90263
  20881359.2524  -12910973.81646  -9814571.49461
  19901801.1744  -23145635.47447 -17800138.66363
  20462009.244   -19304895.868 7 -12274264.76722
 92  5 28  2 46 29.9940000  0  5G24G20G17G16G 3
  22166151.5804    8878713.50746   6918473.94161
  19127896.5254  -24101919.35947 -18780703.59363
  20872048.3464  -12959912.33946  -9852705.36461
  19902554.2444  -23141690.00247 -17797064.26463
  20454062.752   -19346651.761 7 -12306801.81322
 92  5 28  2 46 44.9940000  0  5G24G20G17G16G 3
  22171136.7134    8904905.69046   6938883.41161
  19128718.6504  -24097598.40547 -18777336.62163
  20862745.4634  -13008781.11946  -9890784.89661
  19903331.6434  -23137602.46747 -17793879.17563
  20446122.525   -19388382.179 7 -12339319.00022
 92  5 28  2 46 59.9940000  0  5G24G20G17G16G 3
  22176123.963     8931107.783 6   6959300.60921
  19129568.9244  -24093127.68647 -18773852.95063
  20853459.0494  -13057586.56446  -9928815.08361
  19904134.6114  -23133376.79047 -17790586.43563
  20438184.8074  -19430091.91247 -12371820.07762
 92  5 28  2 47 14.9940000  0  5G24G20G17G16G 3
  22181111.6274    8957323.01746   6979728.05461
  19130451.7604  -24088500.72047 -18770247.53163
  20844185.4554  -13106322.40746  -9966791.02361
  19904964.4554  -23129005.43547 -17787180.17663
  20430252.557   -19471774.157 7 -12404299.73022
 92  5 28  2 47 29.9940000  0  5G24G20G17G16G 3
  22186101.3224    8983540.46646   7000157.22961
  19131361.7364  -24083727.15947 -18766527.88163
  20834922.2834  -13154999.31946 -10004721.05061
  19905821.4864  -23124497.30847 -17783667.35263
  20422324.002   -19513438.315 7 -12436765.29322
 92  5 28  2 47 44.9940000  0  5G24G20G17G16G 3
  22191089.8854    9009755.43046   7020584.46561
  19132295.5804  -24078811.58647 -18762697.57463
  20825670.5414  -13203623.19846 -10042609.74561
  19906706.1194  -23119856.31247 -17780050.99063
  20414398.9244  -19555088.83947 -12469220.23862
 92  5 28  2 47 59.9940000  0  5G24G20G17G16G 3
  22196078.916     9035976.642 6   7041016.56121
  19133257.7914  -24073743.56647 -18758748.48063
  20816427.0494  -13252183.50446 -10080448.91061
  19907619.4634  -23115072.58747 -17776323.41163
  20406477.205   -19596715.008 7 -12501656.19922
 92  5 28  2 48 14.9940000  0  5G24G20G17G16G 3
  22201070.3694    9062202.41246   7061452.20861
  19134252.0414  -24068522.50947 -18754680.13063
  20807200.3464  -13300680.53446 -10118238.77261
  19908556.1504  -23110144.80247 -17772483.57363
  20398561.1044  -19638315.99147 -12534072.53662
 92  5 28  2 48 29.9940000  0  5G24G20G17G16G 3
  22206060.8464    9088432.18046   7081890.98261
  19135274.3224  -24063148.04947 -18750492.24963
  20797983.7294  -13349114.55346 -10155979.52561
  19909519.3384  -23105073.76747 -17768532.11463
  20390650.205   -19679890.870 7 -12566468.52922
 92  5 28  2 48 44.9940000  0  5G24G20G17G16G 3
  22211050.9404    9114658.28145   7102326.89861
  19136328.7754  -24057627.26547 -18746190.34663
  20788777.9004  -13397490.48446 -10193675.01761
  19910508.6904  -23099864.06947 -17764472.60663
  20382742.119   -19721446.811 7 -12598849.76222
 92  5 28  2 48 59.9940000  0  5G24G20G17G16G 3
  22216041.3614    9140882.86946   7122761.64061
  19137406.9004  -24051958.06947 -18741772.80063
  20779583.5804  -13445802.74646 -10231320.89961
  19911528.2294  -23094513.30547 -17760303.17763
  20374838.072   -19762981.457 7 -12631214.40922
 92  5 28  2 49 14.9940000  0  5G24G20G17G16G 3
  22221032.9634    9167108.94645   7143197.54061
  19138511.1434  -24046139.21147 -18737238.63463
  20770402.9084  -13494046.42546 -10268913.33861
  19912576.0414  -23089020.71747 -17756023.23563
  20366939.283   -19804493.040 7 -12663561.08122
 92  5 28  2 49 29.9940000  0  5G24G20G17G16G 3
  22226025.3614    9193339.47045   7163636.89061
  19139646.5104  -24040171.60147 -18732588.55763
  20761237.549   -13542220.493 6 -10306451.52921
  19913647.3694  -23083387.01147 -17751633.33763
  20359043.619   -19845982.273 7 -12695890.34122
 92  5 28  2 49 44.9940000  0  5G24G20G17G16G 3
  22231017.650     9219579.090 6   7184083.33821
  19140813.5494  -24034054.36547 -18727821.88763
  20752083.330   -13590322.076 6 -10343933.22921
  19914745.0574  -23077610.23047 -17747131.94563
  20351152.346   -19887448.158 7 -12728201.40222
 92  5 28  2 49 59.9940000  0  5G24G20G17G16G 3
  22236014.924     9245832.541 5   7204540.55121
  19142007.5104  -24027784.98847 -18722936.66963
  20742943.932   -13638346.370 6 -10381354.71221
  19915870.4634  -23071688.80047 -17742517.84463
  20343267.463   -19928887.845 7 -12760492.05322
 92  5 28  2 50 14.9940000  0  5G24G20G17G16G 3
  22241010.697     9272096.325 5   7225005.83121
  19143226.346   -24021367.747 7 -18717936.23523
  20733819.143   -13686297.809 6 -10418719.42421
  19917026.2214  -23065627.52047 -17737794.76463
  20335386.432   -19970305.340 7 -12792765.40922
 92  5 28  2 50 29.9940000  0  5G24G20G17G16G 3
  22246011.486     9298374.180 5   7245482.06221
  19144474.0494  -24014800.75947 -18712819.11263
  20724708.658   -13734172.842 6 -10456024.60121
  19918208.3224  -23059425.53747 -17732962.04963
  20327508.900   -20011698.527 7 -12825019.82322
 92  5 28  2 50 44.9940000  0  5G24G20G17G16G 3
  22251015.729     9324668.984 5   7265971.51321
  19145753.6584  -24008082.38647 -18707584.02263
  20715615.065   -13781967.859 6 -10493267.42621
  19919413.4084  -23053080.86247 -17728018.14863
  20319637.721   -20053065.262 7 -12857253.62522
 92  5 28  2 50 59.9940000  0  5G24G20G17G16G 3
  22256021.885     9350976.960 5   7286471.21321
  19147063.5724  -24001215.42347 -18702233.15763
  20706535.440   -13829683.813 6 -10530448.64321
  19920645.8224  -23046594.10047 -17722963.52663
  20311769.627   -20094408.115 7 -12889468.81022
 92  5 28  2 51 14.9940000  0  5G24G20G17G16G 3
  22261029.5494    9377296.47345   7306979.91161
  19148396.7914  -23994199.43547 -18696766.16263
  20697467.361   -13877319.739 6 -10567567.49821
  19921909.7834  -23039963.75747 -17717797.02463
  20303907.260   -20135726.279 7 -12921664.76522
 92  5 28  2 51 29.9940000  0  5G24G20G17G16G 3
  22266039.135     9403623.749 5   7327494.65421
  19149756.4554  -23987039.28147 -18691186.83263
  20688418.557   -13924880.498 6 -10604627.78921
  19923200.3074  -23033194.47447 -17712522.25763
  20296049.119   -20177024.771 7 -12953845.39222
 92  5 28  2 51 44.9940000  0  5G24G20G17G16G 3
  22271049.2834    9429958.46945   7348015.21661
  19151149.8544  -23979732.18847 -18685493.00563
  20679381.8694  -13972362.63846 -10641626.81761
  19924512.5184  -23026284.55947 -17707137.90863
  20288194.291   -20218300.128 7 -12986007.99222
 92  5 28  2 51 59.9940000  0  5G24G20G17G16G 3
  22276063.510     9456301.717 5   7368542.41621
  19152571.4404  -23972271.93947 -18679679.83463
  20670362.9324  -14019761.77046 -10678561.16461
  19925853.0184  -23019230.88847 -17701641.54363
  20280345.635   -20259545.705 7 -13018147.38922
 92  5 28  2 52 14.9940000  0  5G24G20G17G16G 3
  22281077.096     9482644.781 5   7389069.46621
  19154016.8304  -23964663.05047 -18673750.83563
  20661358.041   -14067083.344 6 -10715435.08121
  19927224.0334  -23012038.94847 -17696037.42963
  20272501.205   -20300765.820 7 -13050266.94422
 92  5 28  2 52 29.9940000  0  5G24G20G17G16G 3
  22286089.7914    9508983.61645   7409593.23761
  19155491.0964  -23956907.78847 -18667707.78763
  20652366.3774  -14114327.85446 -10752248.95061
  19928619.8614  -23004709.31647 -17690326.03063
  20264662.182   -20341962.692 7 -13082368.38222
 92  5 28  2 52 44.9940000  0  5G24G20G17G16G 3
  22291102.549     9535325.059 5   7430119.01721
  19156998.9164  -23948999.26047 -18661545.30763
  20643394.3774  -14161487.82046 -10788996.93761
  19930038.9324  -22997233.00347 -17684500.33163
  20256827.682   -20383128.984 7 -13114445.99622
 92  5 28  2 52 59.9940000  0  5G24G20G17G16G 3
  22296114.9004    9561661.53145   7450640.94161
  19158532.6904  -23940945.89447 -18655269.96663
  20634434.346   -14208574.106 6 -10825687.50321
  19931489.3774  -22989615.87347 -17678564.90763
  20248998.315   -20424272.860 7 -13146506.14622
 92  5 28  2 53 14.9940000  0  5G24G20G17G16G 3
  22301123.4004    9587995.27045   7471160.72661
  19160089.0654  -23932746.56647 -18648880.89163
  20625488.768   -14255588.569 6 -10862322.10321
  19932968.4404  -22981857.96947 -17672519.79463
  20241174.111   -20465392.808 7 -13178547.64522
 92  5 28  2 53 29.9940000  0  5G24G20G17G16G 3
  22306135.580     9614329.680 5   7491681.02121
  19161678.6434  -23924400.01747 -18642377.09463
  20616552.658   -14302531.467 6 -10898900.92721
  19934468.9714  -22973962.32447 -17666367.34563
  20233354.221   -20506487.263 7 -13210569.28122
 92  5 28  2 53 44.9940000  0  5G24G20G17G16G 3
  22311146.8304    9640659.75745   7512197.97261
  19163296.3854  -23915911.52447 -18635762.69663
  20607632.1434  -14349408.25246 -10935428.24961
  19935994.6904  -22965936.96947 -17660113.82463
  20225537.830   -20547561.424 7 -13242575.10022
 92  5 28  2 53 59.9940000  0  5G24G20G17G16G 3
  22316156.713     9666988.034 5   7532713.49321
  19164936.6974  -23907278.16747 -18629035.41063
  20598727.2914  -14396216.57446 -10971902.22961
  19937550.0724  -22957777.52447 -17653755.81763
  20217725.690   -20588611.886 7 -13274562.45722
 92  5 28  2 54 14.9940000  0  5G24G20G17G16G 3
  22321166.8544    9693322.96545   7553234.19961
  19166607.4554  -23898495.32647 -18622191.65463
  20589833.3774  -14442950.83746 -11008318.49461
  19939129.6194  -22949478.18547 -17647288.80263
  20209919.174   -20629633.580 7 -13306527.39322
 92  5 28  2 54 29.9940000  0  5G24G20G17G16G 3
  22326182.471     9719665.677 5   7573760.98021
  19168309.8384  -23889567.27147 -18615234.73263
  20580952.963   -14489611.485 6 -11044677.39321
  19940732.7134  -22941039.83847 -17640713.46863
  20202118.846   -20670630.632 7 -13338473.13522
 92  5 28  2 54 44.9940000  0  5G24G20G17G16G 3
  22331195.9474    9746018.42145   7594295.57461
  19170033.635   -23880494.985 7 -18608165.43623
  20572088.2214  -14536201.48946 -11080981.25261
  19942367.1274  -22932464.35147 -17634031.27263
  20194321.400   -20711603.640 7 -13370400.14222
 92  5 28  2 54 59.9940000  0  5G24G20G17G16G 3
  22336212.1354    9772382.23445   7614838.80461
  19171785.9004  -23871278.06347 -18600983.43263
  20563236.533   -14582723.264 6 -11117231.93721
  19944024.8934  -22923754.30747 -17627244.23463
  20186529.307   -20752551.869 7 -13402307.83922
 92  5 28  2 55 14.9940000  0  5G24G20G17G16G 3
  22341231.1904    9798758.69645   7635391.88961
  19173572.5184  -23861913.46347 -18593686.35163
  20554394.393   -14629173.403 6 -11153426.80921
  19945704.7834  -22914909.30447 -17620352.02663
  20178743.221   -20793472.100 7 -13434193.71722
 92  5 28  2 55 29.9940000  0  5G24G20G17G16G 3
  22346251.6664    9825140.68345   7655949.27061
  19175378.900   -23852406.748 7 -18586278.53423
  20545571.1584  -14675554.17246 -11189567.62761
  19947414.6744  -22905936.45847 -17613360.19863
  20170959.502   -20834369.414 7 -13466061.74122
 92  5 28  2 55 44.9940000  0  5G24G20G17G16G 3
  22351272.8694    9851531.32645   7676513.39461
  19177213.846   -23842755.112 7 -18578757.79523
  20536756.690   -14721858.955 6 -11225649.23421
  19949148.0964  -22896829.96247 -17606264.23063
  20163182.7524  -20875240.92447 -13497909.66362
 92  5 28  2 55 59.9940000  0  5G24G20G17G16G 3
  22356297.5804    9877932.42145   7697085.67061
  19179082.057   -23832957.849 7 -18571123.57623
  20527962.7834  -14768086.30746 -11261670.51061
  19950904.2054  -22887585.36147 -17599060.65463
  20155409.3614  -20916085.43247 -13529736.54262
 92  5 28  2 56 14.9940000  0  5G24G20G17G16G 3
  22361323.3304    9904345.42545   7717667.22161
  19180970.8154  -23823015.74347 -18563376.49263
  20519177.799   -14814238.048 6 -11297632.86321
  19952693.1584  -22878203.01747 -17591749.74163
  20147642.6504  -20956903.26047 -13561542.64262
 92  5 28  2 56 29.9940000  0  5G24G20G17G16G 3
  22366351.932     9930770.577 5   7738258.22421
  19182891.096   -23812929.436 7 -18555517.04923
  20510411.791   -14860316.130 6 -11333537.81921
  19954502.7294  -22868682.92747 -17584331.49263
  20139879.4794  -20997694.90647 -13593328.33762
 92  5 28  2 56 44.9940000  0  5G24G20G17G16G 3
  22371383.900     9957208.693 5   7758859.34121
  19184839.8154  -23802696.95647 -18547543.69963
  20501654.4864  -14906321.53746 -11369386.14861
  19956340.3074  -22859023.81447 -17576804.91763
  20132123.5494  -21038458.07847 -13625091.84262
 92  5 28  2 56 59.9940000  0  5G24G20G17G16G 3
  22376415.463     9983654.264 5   7779466.27321
  19186810.8614  -23792320.37947 -18539458.06663
  20492913.6904  -14952257.31546 -11405180.22661
  19958207.4244  -22849230.33247 -17569173.64063
  20124371.5724  -21079194.24447 -13656834.30462
 92  5 28  2 57 14.9940000  0  5G24G20G17G16G 3
  22381448.416    10010107.926 5   7800079.49121
  19188816.0494  -23781798.78547 -18531259.43263
  20484189.2684  -14998120.52346 -11440917.75161
  19960093.5724  -22839299.27547 -17561435.16663
  20116624.7294  -21119902.12247 -13688554.71962
 92  5 28  2 57 29.9940000  0  5G24G20G17G16G 3
  22386483.815    10036577.008 5   7820704.74621
  19190846.2294  -23771125.91147 -18522942.92063
  20475474.025   -15043904.231 6 -11476593.32321
  19962012.4164  -22829223.04847 -17553583.56063
  20108884.8464  -21160575.47547 -13720248.23462
 92  5 28  2 57 44.9940000  0  5G24G20G17G16G 3
  22391524.8614   10063053.93845   7841336.11261
  19192902.3854  -23760311.11447 -18514515.81663
  20466774.354   -15089617.866 6 -11512214.29921
  19963956.6824  -22819008.73247 -17545624.35362
  20101149.9634  -21201223.20247 -13751921.78062
 92  5 28  2 57 59.9940000  0  5G24G20G17G16G 3
  22396564.940    10089539.813 5   7861974.45121
  19194991.0254  -23749352.63747 -18505976.75363
  20458090.5334  -15135262.11046 -11547781.20561
  19965924.6584  -22808654.11147 -17537555.82463
  20093419.8854  -21241842.88447 -13783573.47662
 92  5 28  2 58 14.9940000  0  5G24G20G17G16G 3
  22401607.025    10116028.167 5   7882614.70021
  19197099.7684  -23738253.92847 -18497328.42063
  20449417.1904  -15180842.96546 -11583298.71361
  19967924.4474  -22798165.63947 -17529382.99263
  20085694.4084  -21282437.84047 -13815205.90562
 92  5 28  2 58 29.9940000  0  5G24G20G17G16G 3
  22406649.8464   10142521.49845   7903258.84961
  19199242.1044  -23727010.77247 -18488567.53163
  20440754.4164  -15226355.16646 -11618762.73161
  19969942.4864  -22787540.96147 -17521104.02862
  20077975.9324  -21323003.49347 -13846815.49962
 92  5 28  2 58 44.9940000  0  5G24G20G17G16G 3
  22411690.7914   10169019.46545   7923906.60061
  19201408.713   -23715622.993 7 -18479693.95023
  20432106.4794  -15271797.60546 -11654172.39261
  19971991.6974  -22776781.36047 -17512719.93263
  20070262.2604  -21363539.35947 -13878401.88162
 92  5 28  2 58 59.9940000  0  5G24G20G17G16G 3
  22416731.744    10195517.471 5   7944554.38921
  19203600.9634  -23704093.87947 -18470710.23663
  20423471.8224  -15317172.04346 -11689529.06461
  19974064.6824  -22765891.88647 -17504234.63362
  20062553.8774  -21404048.37147 -13909967.33562
 92  5 28  2 59 14.9940000  0  5G24G20G17G16G 3
  22421773.822    10222014.432 5   7965201.36821
  19205824.4474  -23692425.80147 -18461618.23563
  20414851.6274  -15362478.47046 -11724832.73061
  19976159.9244  -22754871.61447 -17495647.41763
  20054849.5254  -21444532.79847 -13941513.63862
 92  5 28  2 59 29.9940000  0  5G24G20G17G16G 3
  22426817.7754   10248517.61345   7985853.16561
  19208068.1904  -23680613.47647 -18452413.83863
  20406244.0254  -15407711.78346 -11760079.43261
  19978285.7994  -22743714.94447 -17486953.91363
  20047150.8934  -21484986.72847 -13973036.18162
 92  5 28  2 59 44.9940000  0  5G24G20G17G16G 3
  22431860.408    10275016.238 5   8006501.42321
  19210345.4004  -23668667.84747 -18443105.56463
  20397649.5724  -15452881.10446 -11795276.26961
  19980428.9944  -22732433.19547 -17478162.94762
  20039456.1114  -21525420.74647 -14004543.20162
 92  5 28  2 59 59.9940000  0  5G24G20G17G16G 3
  22436903.510    10301517.729 5   8027151.91621
  19212642.3774  -23656580.64247 -18433686.97163
  20389067.8544  -15497977.42946 -11830416.22361
  19982604.2604  -22721018.41847 -17469268.31962
  20031767.4404  -21565826.29447 -14036028.03962
 92  5 28  3  0 14.9940000  0  5G24G20G17G16G 3
  22441945.752    10328016.935 5   8047800.64121
  19214969.7994  -23644356.61047 -18424161.76863
  20380499.650   -15543004.622 6 -11865502.30521
  19984797.6504  -22709476.86047 -17460274.90162
  20024082.7134  -21606207.48147 -14067493.89562
 92  5 28  3  0 29.9940000  0  5G24G20G17G16G 3
  22446990.1354   10354524.68845   8068456.01661
  19217323.6434  -23631987.20047 -18414523.27563
  20371946.5964  -15587950.81146 -11900525.27961
  19987021.7054  -22697799.40147 -17451175.58062
  20016404.7684  -21646555.80447 -14098934.12862
 92  5 28  3  0 44.9940000  0  5G24G20G17G16G 3
  22452034.2294   10381036.31745   8089114.41861
  19219702.9634  -23619479.76747 -18404777.23263
  20363408.5494  -15632821.27446 -11935489.24661
  19989268.3614  -22685991.70147 -17441974.78163
  20008732.4794  -21686878.03547 -14130354.04662
 92  5 28  3  0 59.9940000  0  5G24G20G17G16G 3
  22457081.682    10407553.941 5   8109777.48921
  19222111.3224  -23606832.10947 -18394921.92563
  20354884.0024  -15677614.33346 -11970392.89361
  19991540.0104  -22674050.18647 -17432669.71063
  20001064.424   -21727171.577 7 -14161751.59822
 92  5 28  3  1 14.9940000  0  5G24G20G17G16G 3
  22462127.5184   10434074.22545   8130442.64061
  19224542.7294  -23594044.84447 -18384957.83363
  20346374.7294  -15722328.24746 -12005234.87761
  19993839.6274  -22661973.42547 -17423259.24762
  19993402.1044  -21767436.58947 -14193126.92362
 92  5 28  3  1 29.9940000  0  5G24G20G17G16G 3
  22467175.0334   10460594.27945   8151107.61961
  19227005.1274  -23581121.30647 -18374887.55963
  20337879.3224  -15766966.95746 -12040018.25961
  19996160.1974  -22649765.89747 -17413746.89563
  19985746.416   -21807676.308 7 -14224482.53122
 92  5 28  3  1 44.9940000  0  5G24G20G17G16G 3
  22472221.315    10487114.443 5   8171772.66021
  19229486.986   -23568058.554 7 -18364708.80423
  20329399.0104  -15811526.44346 -12074739.90661
  19998511.0104  -22637428.43247 -17404133.28763
  19978094.440   -21847887.220 7 -14255815.70122
 92  5 28  3  1 59.9940000  0  5G24G20G17G16G 3
  22477268.9004   10513637.29845   8192439.82061
  19232002.9864  -23554852.82047 -18354418.63363
  20320937.6504  -15856002.62046 -12109396.62861
  20000881.0724  -22624957.17647 -17394415.42963
  19970448.588   -21888065.114 7 -14287123.13222
 92  5 28  3  2 14.9940000  0  5G24G20G17G16G 3
  22482316.1044   10540156.65845   8213104.25361
  19234539.104   -23541510.535 7 -18344022.06123
  20312489.3854  -15900401.66846 -12143993.25861
  20003282.0104  -22612360.32047 -17384599.69862
  19962807.627   -21928216.129 7 -14318409.61722
 92  5 28  3  2 29.9940000  0  4G20G17G16G 3
  19237107.9164  -23528030.49447 -18333518.14663
  20304054.5654  -15944720.73746 -12178527.56661
  20005699.9164  -22599635.75947 -17374684.45562
  19955172.955   -21968338.768 7 -14349673.99222
 92  5 28  3  2 44.9940000  0  4G20G17G16G 3
  19239694.971   -23514414.093 7 -18322907.97723
  20295634.8694  -15988964.27546 -12213003.01861
  20008148.7604  -22586784.76747 -17364670.69962
  19947542.838   -22008433.932 7 -14380916.95622
 92  5 28  3  2 59.9940000  0  4G20G17G16G 3
  19242315.838   -23500661.889 7 -18312191.98923
  20287230.7834  -16033135.44746 -12247422.07461
  20010614.9474  -22573807.91147 -17354558.86462
  19939917.440   -22048501.813 7 -14412138.66322
 92  5 28  3  3 14.9940000  0  4G20G17G16G 3
  19244955.033   -23486772.330 7 -18301368.96923
  20278837.5024  -16077232.58446 -12281783.44461
  20013112.3774  -22560702.49547 -17344346.85862
  19932299.322   -22088540.628 7 -14443337.72822
 92  5 28  3  3 29.9940000  0  4G20G17G16G 3
  19247627.8154  -23472747.15047 -18290440.26663
  20270459.088   -16121258.332 6 -12316089.19521
  20015626.7294  -22547470.20547 -17334035.98262
  19924685.205   -22128551.504 7 -14474515.01822
 92  5 28  3  3 44.9940000  0  4G20G17G16G 3
  19250320.0884  -23458579.40147 -18279400.47463
  20262097.9244  -16165207.97646 -12350335.63961
  20018173.3934  -22534103.66647 -17323620.49462
  19917077.338   -22168527.111 7 -14505664.82522
 92  5 28  3  3 59.9940000  0  4G20G17G16G 3
  19253047.0414  -23444272.10747 -18268251.94563
  20253746.4404  -16209083.49146 -12384524.32461
  20020739.2054  -22520605.76247 -17313102.65062
  19909476.9164  -22208470.16747 -14536789.27062
 92  5 28  3  4 14.9940000  0  4G20G17G16G 3
  19255790.8384  -23429829.48547 -18256997.96663
  20245412.6744  -16252890.52146 -12418659.63661
  20023334.7834  -22506978.15547 -17302483.73462
  19901880.463   -22248384.367 7 -14567891.22722
 92  5 28  3  4 29.9940000  0  4G20G17G16G 3
  19258567.7684  -23415250.36747 -18245637.62063
  20237086.2524  -16296628.85046 -12452741.41261
  20025951.7294  -22493218.68047 -17291762.06362
  19894292.619   -22288268.501 7 -14598969.75822
 92  5 28  3  4 44.9940000  0  4G20G17G16G 3
  19261365.7444  -23400536.56647 -18234172.33263
  20228778.6434  -16340301.83546 -12486772.27561
  20028595.7754  -22479328.19247 -17280938.30862
  19886707.252   -22328123.778 7 -14630025.80122
 92  5 28  3  4 59.9940000  0  4G20G17G16G 3
  19264192.9084  -23385692.17547 -18222605.28563
  20220477.2214  -16383913.80646 -12520755.59461
  20031262.7214  -22465311.72947 -17270016.38962
  19879128.783   -22367953.799 7 -14661062.15822
 92  5 28  3  5 14.9940000  0  4G20G17G16G 3
  19267042.9244  -23370709.08947 -18210930.16063
  20212195.7134  -16427452.65646 -12554681.93261
  20033955.0334  -22451161.38747 -17258990.15062
  19871553.690   -22407750.272 7 -14692072.38422
 92  5 28  3  5 29.9940000  0  4G20G17G16G 3
  19269920.2444  -23355588.49047 -18199147.88363
  20203920.4404  -16470919.51446 -12588552.18161
  20036674.4164  -22436879.27247 -17247861.22662
  19863987.947   -22447513.614 7 -14723056.79122
 92  5 28  3  5 44.9940000  0  4G20G17G16G 3
  19272824.8074  -23340333.42647 -18187260.82963
  20195661.986   -16514317.119 6 -12622368.46521
  20039413.1664  -22422471.30647 -17236634.24962
  19856428.736   -22487246.895 7 -14754017.77222
 92  5 28  3  5 59.9940000  0  4G20G17G16G 3
  19275748.7364  -23324955.65347 -18175278.15863
  20187418.236   -16557653.890 6 -12656137.33922
  20042179.8614  -22407951.79847 -17225320.34962
  19848869.643   -22526960.980 7 -14784963.79522
 92  5 28  3  6 14.9940000  0  4G20G17G16G 3
  19278703.8614  -23309444.45447 -18163191.51963
  20179181.6044  -16600919.44246 -12689850.71562
  20044961.8074  -22393310.18347 -17213911.29562
  19841318.3614  -22566645.26747 -14815886.60162
 92  5 28  3  6 29.9940000  0  4G20G17G16G 3
  19281677.4164  -23293798.45147 -18150999.83963
  20170962.3934  -16644112.79046 -12723507.83762
  20047775.6194  -22378545.25147 -17202406.16562
  19833772.955   -22606297.625 7 -14846784.52622
 92  5 28  3  6 44.9940000  0  4G20G17G16G 3
  19284682.2364  -23278020.73847 -18138705.52763
  20162758.0804  -16687237.08646 -12757111.14662
  20050604.7754  -22363661.21747 -17190808.22062
  19826232.182   -22645920.830 7 -14877659.73622
 92  5 28  3  6 59.9940000  0  4G20G17G16G 3
  19287708.8384  -23262108.53447 -18126306.41463
  20154565.4794  -16730289.13446 -12790658.16462
  20053461.0254  -22348657.82247 -17179117.26362
  19818698.111   -22685511.762 7 -14908509.79522
 92  5 28  3  7 14.9940000  0  4G20G17G16G 3
  19290762.5254  -23246064.28047 -18113804.40363
  20146385.0574  -16773270.52546 -12824150.12362
  20056339.9944  -22333535.52547 -17167333.65662
  19811170.893   -22725072.269 7 -14939336.15322
 92  5 28  3  7 29.9940000  0  4G20G17G16G 3
  19293842.7134  -23229888.45247 -18101199.87863
  20138218.4474  -16816184.10346 -12857589.24862
  20059237.3384  -22318295.55147 -17155458.35662
  19803648.252   -22764602.263 7 -14970138.73122
 92  5 28  3  7 44.9940000  0  4G20G17G16G 3
  19296941.8774  -23213580.66847 -18088492.52663
  20130066.2524  -16859028.74546 -12890974.65561
  20062163.0494  -22302936.10347 -17143489.95662
  19796131.729   -22804101.279 7 -15000917.17322
 92  5 28  3  7 59.9940000  0  4G20G17G16G 3
  19300072.4474  -23197143.51147 -18075684.35963
  20121927.8074  -16901804.63946 -12924306.48262
  20065106.5964  -22287459.17347 -17131430.01362
  19788620.190   -22843571.592 7 -15031673.24422
 92  5 28  3  8 14.9940000  0  4G20G17G16G 3
  19303225.252   -23180575.030 7 -18062773.87223
  20113800.5254  -16944509.93246 -12957583.29762
  20068074.6584  -22271858.44647 -17119273.60762
  19781114.744   -22883010.567 7 -15062404.89922
 92  5 28  3  8 29.9940000  0  4G20G17G16G 3
  19306401.018   -23163874.413 7 -18049760.41823
  20105688.3544  -16987144.15046 -12990804.73162
  20071070.1434  -22256131.27247 -17107018.67062
  19773616.322   -22922416.921 7 -15093111.13122
 92  5 28  3  8 44.9940000  0  4G20G17G16G 3
  19309607.721   -23147041.728 7 -18036644.05923
  20097587.8304  -17029707.22946 -13023970.72962
  20074083.1584  -22240277.51547 -17094665.09762
  19766124.2524  -22961790.23047 -15123791.62162
 92  5 28  3  8 59.9940000  0  4G20G17G16G 3
  19312832.846   -23130079.985 7 -18023427.12823
  20089501.9794  -17072200.35346 -13057082.21961
  20077124.7754  -22224299.75247 -17082214.89562
  19758638.3464  -23001133.22647 -15154448.49462
 92  5 28  3  9 14.9940000  0  4G20G17G16G 3
  19316083.729   -23112992.456 7 -18010112.18223
  20081428.0184  -17114625.16046 -13090140.47562
  20080190.3544  -22208199.22547 -17069669.03362
  19751156.5104  -23040448.73747 -15185083.94962
 92  5 28  3  9 29.9940000  0  4G20G17G16G 3
  19319363.783   -23095776.712 7 -17996697.33423
  20073368.3384  -17156979.04246 -13123143.46662
  20083275.6824  -22191972.30047 -17057024.68162
  19743679.9944  -23079734.03147 -15215695.86562
 92  5 28  3  9 44.9940000  0  4G20G17G16G 3
  19322659.682   -23078432.130 7 -17983182.09023
  20065322.1434  -17199261.05046 -13156090.45262
  20086390.1044  -22175620.06047 -17044282.67862
  19736211.1664  -23118987.87047 -15246283.26762
 92  5 28  3  9 59.9940000  0  4G20G17G16G 3
  19325986.752   -23060957.997 7 -17969565.89523
  20057291.2294  -17241470.07346 -13188980.57362
  20089525.9944  -22159141.04447 -17031441.89162
  19728746.2994  -23158209.15347 -15276845.30062
 92  5 28  3 10 14.9940000  0  4G20G17G16G 3
  19329339.0494  -23043352.28947 -17955847.17663
  20049273.8384  -17283606.85646 -13221814.39262
  20092683.6354  -22142534.85647 -17018502.00662
  19721289.2524  -23197395.52347 -15307380.12662
 92  5 28  3 10 29.9940000  0  4G20G17G16G 3
  19332710.236   -23025620.572 7 -17942030.27123
  20041266.4084  -17325678.58046 -13254597.52562
  20095869.3544  -22125808.67447 -17005468.61862
  19713839.1824  -23236551.89947 -15337891.57862
 92  5 28  3 10 44.9940000  0  4G20G17G16G 3
  19336110.783   -23007756.825 7 -17928110.48423
  20033273.2294  -17367679.97046 -13287325.85162
  20099074.4004  -22108959.35247 -16992339.28062
  19706394.486   -23275671.753 7 -15368374.56622
 92  5 28  3 10 59.9940000  0  4G20G17G16G 3
  19339535.486   -22989767.520 7 -17914092.86223
  20025293.5804  -17409617.01746 -13320004.03562
  20102301.2054  -22091994.19747 -16979119.68762
  19698956.619   -23314761.437 7 -15398834.04522
 92  5 28  3 11 14.9940000  0  4G20G17G16G 3
  19342979.854   -22971649.703 7 -17899975.10023
  20017323.5254  -17451486.34846 -13352629.45862
  20105554.9634  -22074909.22047 -16965806.72162
  19691525.057   -23353817.456 7 -15429267.29122
 92  5 28  3 11 29.9940000  0  4G20G17G16G 3
  19346453.447   -22953405.885 7 -17885759.15623
  20009368.5184  -17493291.26746 -13385204.68462
  20108827.8464  -22057707.97647 -16952403.15862
  19684098.088   -23392841.696 7 -15459675.77722
 92  5 28  3 11 44.9940000  0  4G20G17G16G 3
  19349950.385   -22935035.719 7 -17871444.76323
  20001427.5724  -17535032.03346 -13417729.92162
  20112120.8074  -22040391.51747 -16938909.81862
  19676677.565   -23431833.325 7 -15490058.84722
 92  5 28  3 11 59.9940000  0  4G20G17G16G 3
  19353467.182   -22916537.829 7 -17857030.83723
  19993497.8304  -17576706.23146 -13450203.28862
  20115440.8154  -22022958.37247 -16925325.55262
  19669264.854   -23470790.672 7 -15520415.20622
 92  5 28  3 12 14.9930000  0  4G20G17G16G 3
  19357011.630   -22897919.242 7 -17842522.86623
  19985577.8884  -17618314.45846 -13482625.25362
  20118778.9424  -22005416.94847 -16911656.91562
  19661858.9274  -23509716.46947 -15550746.98862
 92  5 28  3 12 29.9930000  0  4G20G17G16G 3
  19360580.747   -22879174.805 7 -17827916.82523
  19977672.083   -17659856.275 6 -13514995.47322
  20122135.6464  -21987762.19247 -16897899.96062
  19654456.4354  -23548612.81047 -15581055.81662
 92  5 28  3 12 44.9930000  0  4G20G17G16G 3
  19364170.0604  -22860300.66047 -17813209.71263
  19969783.6464  -17701321.11846 -13547305.71262
  20125519.0754  -21969987.50847 -16884049.56362
  19647060.3174  -23587471.57347 -15611335.36462
 92  5 28  3 12 59.9930000  0  4G20G17G16G 3
  19367786.146   -22841296.796 7 -17798401.52123
  19961906.3414  -17742707.68046 -13579554.95362
  20128926.9744  -21952092.77447 -16870105.61762
  19639674.2164  -23626292.11247 -15641585.12462
 92  5 28  3 13 14.9930000  0  4G20G17G16G 3
  19371428.3334  -22822164.81847 -17783493.49663
  19954045.5284  -17784017.40146 -13611744.31062
  20132353.1854  -21934078.75247 -16856068.71462
  19632294.0134  -23665075.75547 -15671806.13762
 92  5 28  3 13 29.9930000  0  4G20G17G16G 3
  19375093.442   -22802911.720 7 -17768491.09623
  19946200.513   -17825255.948 6 -13643878.20122
  20135800.5214  -21915954.45147 -16841945.88162
  19624918.4504  -23703828.89147 -15702003.38062
 92  5 28  3 13 44.9930000  0  5G23G20G17G16G 3
  22327068.716      -66909.115 5
  19378778.8724  -22783528.89647 -17753387.60863
  19938365.427   -17866413.439 6 -13675948.93622
  20139273.6384  -21897711.09847 -16827730.28462
  19617553.2634  -23742542.47947 -15732169.80062
 92  5 28  3 13 59.9930000  0  5G23G20G17G16G 3
  22314342.591     -133786.356 5
  19382490.075   -22764023.583 7 -17738188.67323
  19930551.1304  -17907496.15046 -13707961.40262
  20142768.3174  -21879355.67647 -16813427.35762
  19610190.458   -23781223.512 7 -15762310.85822
 92  5 28  3 14 14.9930000  0  5G23G20G17G16G 3
  22301621.286     -200633.441 5        -0.10431
  19386227.8334  -22744398.46847 -17722896.38963
  19922743.3644  -17948503.42846 -13739915.09562
  20146279.8884  -21860889.62247 -16799038.22862
  19602837.341   -23819873.818 7 -15792427.95622
 92  5 28  3 14 29.9930000  0  5G23G20G17G16G 3
  22288908.1144    -267444.84245    -52060.74161
  19389986.614   -22724648.902 7 -17707507.13123
  19914957.1534  -17989430.77046 -13771806.50262
  20149814.8024  -21842306.49147 -16784557.86662
  19595487.982   -23858488.350 7 -15822517.18522
 92  5 28  3 14 44.9930000  0  5G23G20G17G16G 3
  22276200.2944    -334218.84145   -104092.24461
  19393766.302   -22704774.056 7 -17692020.25323
  19907182.716   -18030280.782 6 -13803637.65522
  20153375.9584  -21823602.57747 -16769983.39062
  19588147.685   -23897066.095 7 -15852577.75122
 92  5 28  3 14 59.9930000  0  5G23G20G17G16G 3
  22263501.013     -400958.071 5   -156096.65521
  19397570.107   -22684777.105 7 -17676438.23023
  19899425.7784  -18071057.39046 -13835411.60562
  20156958.6534  -21804783.41747 -16755319.11062
  19580810.903   -23935609.527 7 -15882611.58122
 92  5 28  3 15 14.9930000  0  5G23G20G17G16G 3
  22250808.2714    -467657.92445   -208070.39261
  19401400.567   -22664657.798 7 -17660760.86723
  19891675.802   -18111761.262 6 -13867128.88522
  20160560.0754  -21785848.67347 -16740564.76662
  19573485.958   -23974118.038 7 -15912618.20222
 92  5 28  3 15 29.9930000  0  5G23G20G17G16G 3
  22238121.6534    -534317.37845   -260012.64161
  19405254.302   -22644414.095 7 -17644986.56923
  19883948.1304  -18152388.27246 -13898786.27162
  20164184.3964  -21766795.05647 -16725717.79162
  19566164.130   -24012589.158 7 -15942595.67822
 92  5 28  3 15 44.9930000  0  5G23G20G17G16G 3
  22225445.5524    -600941.22945   -311927.15261
  19409128.528   -22624048.809 7 -17629117.53323
  19876230.7324  -18192941.29146 -13930385.99462
  20167833.6144  -21747624.35947 -16710779.59062
  19558848.685   -24051025.065 7 -15972545.72022
 92  5 28  3 15 59.9930000  0  5G23G20G17G16G 3
  22212772.271     -667529.302 5   -363813.80221
  19413025.739   -22603558.362 7 -17613150.97023
  19868526.3724  -18233417.01846 -13961925.48362
  20171506.5834  -21728332.14147 -16695746.69262
  19551543.9664  -24089421.80647 -16002465.24962
 92  5 28  3 16 14.9930000  0  5G23G20G17G16G 3
  22200104.732     -734091.208 5   -415680.05521
  19416949.075   -22582947.293 7 -17597090.41323
  19860842.5214  -18273820.74646 -13993408.89062
  20175198.4824  -21708923.99847 -16680623.46862
  19544242.3804  -24127783.52647 -16032357.48862
 92  5 28  3 16 29.9930000  0  5G23G20G17G16G 3
  22187444.521     -800624.259 5   -467523.82921
  19420896.630   -22562213.400 7 -17580934.14923
  19853164.732   -18314151.712 6 -14024835.58522
  20178913.0834  -21689397.42747 -16665407.96162
  19536949.442   -24166107.339 7 -16062220.18322
 92  5 28  3 16 44.9930000  0  5G23G20G17G16G 3
  22174788.247     -867128.484 5   -519345.13921
  19424865.294   -22541358.671 7 -17564683.72823
  19845499.8104  -18354415.41546 -14056209.87262
  20182649.9114  -21669757.85847 -16650104.40462
  19529665.513   -24204394.749 7 -16092054.51823
 92  5 28  3 16 59.9930000  0  5G23G20G17G16G 3
  22162139.0054    -933602.73445   -571143.08561
  19428854.380   -22520382.800 7 -17548338.91023
  19837853.0754  -18394610.52246 -14087530.70362
  20186409.7084  -21650007.17047 -16634714.26362
  19522385.5604  -24242645.06747 -16121859.95062
 92  5 28  3 17 14.9930000  0  5G23G20G17G16G 3
  22149493.107    -1000045.298 5   -622916.34521
  19432868.536   -22499286.634 7 -17531900.35323
  19830220.3884  -18434735.02546 -14118796.51462
  20190190.9274  -21630146.38247 -16619238.33062
  19515112.7084  -24280858.72947 -16151636.81762
 92  5 28  3 17 29.9930000  0  5G23G20G17G16G 3
  22136856.036    -1066454.828 5   -674663.87621
  19436905.958   -22478068.989 7 -17515367.13423
  19822595.911   -18474788.330 6 -14150006.86222
  20193991.3964  -21610172.20747 -16603674.04362
  19507848.8574  -24319033.84347 -16181383.65162
 92  5 28  3 17 44.9930000  0  5G23G20G17G16G 3
  22124223.372    -1132836.097 5   -726389.37521
  19440967.708   -22456734.696 7 -17498743.02323
  19814985.692   -18514775.077 6 -14181165.34622
  20197810.8644  -21590090.65947 -16588026.08762
  19500591.880   -24357174.879 7 -16211103.92523
 92  5 28  3 17 59.9930000  0  5G23G20G17G16G 3
  22111600.458    -1199182.794 5   -778087.94221
  19445051.6924  -22435279.63847 -17482024.80563
  19807389.396   -18554692.910 6 -14212270.12922
  20201652.4424  -21569897.43447 -16572291.11562
  19493340.9974  -24395277.34247 -16240794.14563
 92  5 28  3 18 14.9930000  0  5G23G20G17G16G 3
  22098981.935    -1265492.921 5   -829758.01721
  19449154.2864  -22413705.72147 -17465213.97363
  19799806.825   -18594544.229 6 -14243323.08422
  20205517.0054  -21549595.66747 -16556471.56062
  19486097.1304  -24433342.46547 -16270455.26763
 92  5 28  3 18 29.9930000  0  5G23G20G17G16G 3
  22086370.521    -1331760.232 5   -881394.72721
  19453281.4824  -22392011.67547 -17448309.53263
  19792238.9034  -18634329.32046 -14274324.42562
  20209401.7944  -21529184.79247 -16540566.98762
  19478859.950   -24471368.688 7 -16300086.07823
 92  5 28  3 18 44.9930000  0  5G23G20G17G16G 3
  22073772.1304   -1397978.47545   -932993.19561
  19457433.1384  -22370197.19547 -17431311.24163
  19784680.9114  -18674047.80246 -14305273.86462
  20213307.8414  -21508662.94047 -16524575.93862
  19471630.7164  -24509355.05447 -16329685.83163
 92  5 28  3 18 59.9930000  0  5G23G20G17G16G 3
  22061181.1924   -1464149.67745   -984555.01761
  19461608.3644  -22348265.29247 -17414221.45863
  19777134.700   -18713700.245 6 -14336171.84622
  20217233.4744  -21488031.25247 -16508499.31262
  19464409.9504  -24547304.05647 -16359256.47362
 92  5 28  3 19 14.9930000  0  5G23G20G17G16G 3
  22048596.5834   -1530275.63145  -1036081.59061
  19465805.1694  -22326214.23347 -17397038.82363
  19769601.200   -18753281.617 6 -14367014.45522
  20221179.7084  -21467285.07647 -16492333.46862
  19457196.661   -24585213.470 7 -16388796.26123
 92  5 28  3 19 29.9930000  0  5G23G20G17G16G 3
  22036022.6384   -1596354.58945  -1087571.52761
  19470025.4354  -22304041.50547 -17379761.38263
  19762081.5134  -18792790.99146 -14397800.95262
  20225149.3644  -21446421.15547 -16476075.87362
  19449990.692   -24623080.364 7 -16418302.91722
 92  5 28  3 19 44.9930000  0  5G23G20G17G16G 3
  22023455.153    -1662391.161 5  -1139028.44921
  19474267.0524  -22281750.35247 -17362391.66163
  19754574.677   -18832234.118 6 -14428535.83622
  20229142.0214  -21425444.94347 -16459730.77962
  19442792.544   -24660907.399 7 -16447778.51023
 92  5 28  3 19 59.9930000  0  5G23G20G17G16G 3
  22010896.0834   -1728380.89645  -1190448.85761
  19478530.1224  -22259336.37947 -17344926.23963
  19747083.255   -18871606.882 6 -14459215.89022
  20233156.3724  -21404352.76247 -16443295.31762
  19435603.872   -24698689.530 7 -16477219.11823
 92  5 28  3 20 14.9930000  0  5G23G20G17G16G 3
  21998348.607    -1794323.876 5  -1241832.85221
  19482816.896   -22236801.846 7 -17327366.87423
  19739602.763   -18910910.486 6 -14489842.05222
  20237191.9114  -21383148.66247 -16426772.65162
  19428422.3724  -24736428.88947 -16506626.39963
 92  5 28  3 20 29.9930000  0  5G23G20G17G16G 3
  21985807.614    -1860224.385 5  -1293183.76221
  19487126.9584  -22214152.46247 -17309718.01663
  19732135.9974  -18950148.57346 -14520417.16062
  20241248.1614  -21361838.57347 -16410167.39962
  19421247.396   -24774130.424 7 -16536004.20723
 92  5 28  3 20 44.9930000  0  5G23G20G17G16G 3
  21973275.2394   -1926077.50945  -1344497.73161
  19491461.044   -22191383.529 7 -17291976.00523
  19724683.192   -18989312.514 6 -14550934.49122
  20245324.1534  -21340415.38647 -16393474.00962
  19414081.083   -24811789.004 7 -16565348.54023
 92  5 28  3 20 59.9930000  0  5G23G20G17G16G 3
  21960749.224    -1991891.921 5  -1395781.55021
  19495818.271   -22168500.135 7 -17274144.79923
  19717244.997   -19028405.461 6 -14581396.50622
  20249420.7474  -21318883.86847 -16376696.20462
  19406922.153   -24849409.002 7 -16594662.81123
 92  5 28  3 21 14.9930000  0  5G23G20G17G16G 3
  21948232.028    -2057671.479 5  -1447038.19521
  19500193.607   -22145503.351 7 -17256225.24223
  19709820.700   -19067425.886 6 -14611802.01022
  20253536.8024  -21297246.10447 -16359835.61162
  19399770.630   -24886991.436 7 -16623947.81123
 92  5 28  3 21 29.9930000  0  5G23G20G17G16G 3
  21935720.5524   -2123409.54845  -1498262.52961
  19504592.6144  -22122389.38547 -17238214.37163
  19702410.8804  -19106371.83446 -14642149.47162
  20257674.7714  -21275500.66847 -16342891.12062
  19392626.700   -24924531.569 7 -16653199.85023
 92  5 28  3 21 44.9930000  0  5G23G20G17G16G 3
  21923222.2084   -2189103.63745  -1549452.58361
  19509012.638   -22099159.873 7 -17220113.46423
  19695013.2164  -19145246.63546 -14672441.49262
  20261833.0604  -21253651.33247 -16325865.66762
  19385489.7084  -24962030.75947 -16682419.99063
 92  5 28  3 21 59.9930000  0  5G23G20G17G16G 3
  21910730.4354   -2254752.44245  -1600607.37061
  19513454.161   -22075814.981 7 -17201922.65323
  19687630.091   -19184047.772 6 -14702676.12422
  20266011.5444  -21231697.62047 -16308758.88062
  19378362.153   -24999488.479 7 -16711607.80923
 92  5 28  3 22 14.9930000  0  5G23G20G17G16G 3
  21898246.419    -2320349.473 5  -1651721.78921
  19517918.2714  -22052349.72647 -17183638.05363
  19680260.903   -19222765.520 7 -14732845.77922
  20270211.7784  -21209633.56847 -16291566.11662
  19371244.013   -25036899.297 7 -16740759.08323
 92  5 28  3 22 29.9930000  0  5G23G20G17G16G 3
  21885773.763    -2385903.797 5  -1702802.94221
  19522403.833   -22028774.065 7 -17165267.42222
  19672905.3024  -19261407.65847 -14762956.51162
  20274429.1074  -21187468.91447 -16274294.95462
  19364133.067   -25074272.713 7 -16769881.21023
 92  5 28  3 22 44.9930000  0  5G23G20G17G16G 3
  21873308.325    -2451414.989 5  -1753850.48921
  19526911.7944  -22005084.20147 -17146807.80263
  19665567.6074  -19299971.76247 -14793006.42862
  20278667.6694  -21165196.41647 -16256939.76362
  19357029.044   -25111604.268 7 -16798970.71123
 92  5 28  3 22 59.9930000  0  5G23G20G17G16G 3
  21860847.7474   -2516889.45645  -1804869.41861
  19531441.786   -21981284.064 7 -17128262.25623
  19658245.3644  -19338463.82547 -14823000.21862
  20282925.0284  -21142819.91047 -16239503.52962
  19349930.599   -25148897.552 7 -16828030.40123
 92  5 28  3 23 14.9930000  0  5G23G20G17G16G 3
  21848395.067    -2582324.577 5  -1855857.68121
  19535992.6144  -21957369.70347 -17109627.70063
  19650935.114   -19376881.797 7 -14852936.27622
  20287204.9114  -21120337.28047 -16221984.59562
  19342841.310   -25186148.028 7 -16857056.73123
 92  5 28  3 23 29.9930000  0  5G23G20G17G16G 3
  21835951.1464   -2647715.29745  -1906811.36961
  19540565.5604  -21933340.72147 -17090903.83063
  19643635.591   -19415226.374 7 -14882815.15022
  20291501.6694  -21097749.71147 -16204383.89562
  19335762.513   -25223354.699 7 -16886048.92023
 92  5 28  3 23 44.9930000  0  5G23G20G17G16G 3
  21823518.1694   -2713058.42545  -1957727.96061
  19545160.6614  -21909196.41947 -17072090.10062
  19636351.185   -19453499.840 6 -14912638.60922
  20295819.3414  -21075056.95547 -16186701.22962
  19328691.372   -25260516.225 7 -16915005.93323
 92  5 28  3 23 59.9930000  0  5G23G20G17G16G 3
  21811091.482    -2778359.078 5  -2008611.45321
  19549775.9894  -21884941.76447 -17053190.37963
  19629084.0134  -19491705.78947 -14942409.44562
  20300157.0054  -21052261.12147 -16168938.23862
  19321626.325   -25297637.485 7 -16943931.57323
 92  5 28  3 24 14.9930000  0  5G23G20G17G16G 3
  21798672.0834   -2843616.05645  -2059460.92361
  19554413.591   -21860575.765 7 -17034203.89923
  19621825.9584  -19529841.82247 -14972125.80562
  20304514.5994  -21029360.90647 -16151093.91662
  19314571.114   -25334716.514 7 -16972824.30723
 92  5 28  3 24 29.9930000  0  5G23G20G17G16G 3
  21786262.685    -2908828.421 5  -2110275.63221
  19559072.536   -21836096.794 7 -17015129.38922
  19614580.3414  -19567907.59547 -15001787.41762
  20308891.8494  -21006355.02647 -16133167.25662
  19307524.732   -25371751.430 7 -17001682.66223
 92  5 28  3 24 44.9930000  0  5G23G20G17G16G 3
  21773861.208    -2973997.297 5  -2161056.44421
  19563751.5994  -21811506.89447 -16995968.43963
  19607352.6774  -19605909.41747 -15031399.19662
  20313289.7244  -20983245.52647 -16115159.85362
  19300482.396   -25408743.766 7 -17030507.84023
 92  5 28  3 24 59.9930000  0  5G23G20G17G16G 3
  21761467.5914   -3039126.30545  -2211806.21561
  19568451.7164  -21786810.10047 -16976724.19763
  19600130.2554  -19643851.78847 -15060964.65062
  20317705.0444  -20960036.90247 -16097075.21462
  19293452.825   -25445696.804 7 -17059302.39623
 92  5 28  3 25 14.9930000  0  5G23G20G17G16G 3
  21749081.9664   -3104206.83645  -2262518.19061
  19573172.552   -21762001.576 7 -16957392.89323
  19592921.778   -19681728.586 7 -15090479.01422
  20322141.1774  -20936726.83547 -16078911.53062
  19286428.919   -25482605.334 7 -17088062.27023
 92  5 28  3 25 29.9930000  0  5G23G20G17G16G 3
  21736710.880    -3169236.223 5  -2313190.33321
  19577913.1464  -21737082.56247 -16937975.48962
  19585729.810   -19719539.188 7 -15119941.79722
  20326595.5214  -20913317.54447 -16060670.52462
  19279412.060   -25519469.872 7 -17116787.86923
 92  5 28  3 25 44.9930000  0  5G23G20G17G16G 3
  21724343.7004   -3234217.01145  -2363824.59261
  19582675.0674  -21712054.84547 -16918473.37963
  19578542.9114  -19757285.56747 -15149354.53462
  20331068.6614  -20889810.67147 -16042353.47462
  19272408.388   -25556291.721 7 -17145480.20123
 92  5 28  3 25 59.9930000  0  5G23G20G17G16G 3
  21711987.052    -3299151.754 5  -2414422.98121
  19587459.5444  -21686917.04247 -16898885.49762
  19571376.692   -19794962.808 7 -15178713.39922
  20335561.4824  -20866202.14947 -16023957.22462
  19265407.013   -25593069.091 7 -17174137.87123
 92  5 28  3 26 14.9930000  0  5G23G20G17G16G 3
  21699636.864    -3364046.055 5  -2464989.86121
  19592263.302   -21661673.193 7 -16879214.98022
  19564218.341   -19832573.089 7 -15208020.08722
  20340072.8574  -20842496.29947 -16005485.13162
  19258417.6694  -25629805.62347 -17202763.73163
 92  5 28  3 26 29.9930000  0  5G23G20G17G16G 3
  21687297.364    -3428895.303 5  -2515521.63121
  19597088.294   -21636317.553 7 -16859457.35322
  19557074.5524  -19870109.01247 -15237268.83062
  20344603.3104  -20818688.53147 -15986933.62162
  19251436.028   -25666494.676 7 -17231352.59223
 92  5 28  3 26 44.9930000  0  5G23G20G17G16G 3
  21674963.841    -3493701.482 5  -2566019.84321
  19601934.185   -21610853.261 7 -16839615.06622
  19549946.771   -19907573.464 7 -15266461.88722
  20349153.3884  -20794781.74947 -15968304.96562
  19244462.130   -25703138.801 7 -17259906.44223
 92  5 28  3 26 59.9930000  0  5G23G20G17G16G 3
  21662639.771    -3558462.116 5  -2616482.56221
  19606800.857   -21585278.245 7 -16819686.50123
  19542829.677   -19944962.868 7 -15295596.45822
  20353720.2634  -20770775.30747 -15949598.64862
  19237498.935   -25739735.822 7 -17288423.58123
 92  5 28  3 27 14.9930000  0  5G23G20G17G16G 3
  21650323.669    -3623184.954 5  -2666915.84121
  19611688.513   -21559599.718 7 -16799677.27322
  19535730.1224  -19982282.10346 -15324676.35462
  20358306.5134  -20746675.85247 -15930819.85562
  19230540.919   -25776292.143 7 -17316909.01023
 92  5 28  3 27 29.9930000  0  5G23G20G17G16G 3
  21638017.560    -3687864.797 5  -2717315.61221
  19616595.052   -21533812.647 7 -16779583.47422
  19528639.966   -20019525.292 6 -15353696.99622
  20362912.3414  -20722476.87247 -15911963.50862
  19223593.9744  -25812802.28447 -17345358.46463
 92  5 28  3 27 44.9930000  0  5G23G20G17G16G 3
  21625716.778    -3752502.377 5  -2767682.45321
  19621522.396   -21507917.363 7 -16759405.35223
  19521569.435   -20056692.484 6 -15382658.42322
  20367535.8574  -20698177.48947 -15893028.92262
  19216654.778   -25849266.023 7 -17373771.75423
 92  5 28  3 27 59.9930000  0  5G23G20G17G16G 3
  21613425.505    -3817097.335 5  -2818016.07621
  19626470.669   -21481914.417 7 -16739143.34122
  19514510.575   -20093783.773 7 -15411560.70222
  20372179.1144  -20673774.52747 -15874013.62762
  19209724.442   -25885683.383 7 -17402148.90123
 92  5 28  3 28 14.9930000  0  5G23G20G17G16G 3
  21601141.5284   -3881647.53345  -2868314.82161
  19631438.357   -21455805.848 7 -16718799.02122
  19507464.364   -20130801.737 7 -15440405.84422
  20376843.9974  -20649268.53147 -15854918.04762
  19202804.7634  -25922055.57847 -17430490.86363
 92  5 28  3 28 29.9930000  0  5G23G20G17G16G 3
  21588868.9424   -3946149.15045  -2918575.71861
  19636426.685   -21429590.579 7 -16698371.56022
  19500437.708   -20167745.960 6 -15469193.53022
  20381526.6614  -20624658.17247 -15835741.15562
  19195890.302   -25958381.237 7 -17458796.56123
 92  5 28  3 28 44.9930000  0  5G23G20G17G16G 3
  21576601.489    -4010605.028 5  -2968800.96721
  19641434.685   -21403271.967 7 -16677863.57322
  19493416.872   -20204619.569 6 -15497926.19522
  20386229.7394  -20599946.97247 -15816485.67662
  19188987.396   -25994662.854 7 -17487067.92923
 92  5 28  3 28 59.9930000  0  5G23G20G17G16G 3
  21564344.4274   -4075010.89845  -3018987.24761
  19646462.864   -21376847.318 7 -16657272.96022
  19486415.982   -20241422.460 7 -15526603.76322
  20390951.6614  -20575131.47947 -15797148.93662
  19182091.989   -26030897.388 7 -17515302.61123
 92  5 28  3 29 14.9930000  0  5G23G20G17G16G 3
  21552097.427    -4139370.161 5  -3069137.22321
  19651509.653   -21350318.747 7 -16636601.36622
  19479426.942   -20278158.930 7 -15555229.56222
  20395695.1464  -20550211.35547 -15777730.66062
  19175203.927   -26067086.568 7 -17543501.95523
 92  5 28  3 29 29.9930000  0  5G23G20G17G16G 3
  21539860.185    -4203678.194 5  -3119247.26321
  19656578.825   -21323683.569 7 -16615846.70522
  19472445.146   -20314826.563 7 -15583801.72722
  20400457.9584  -20525182.90947 -15758227.97762
  19168328.747   -26103227.001 7 -17571663.31123
 92  5 28  3 29 44.9930000  0  5G23G20G17G16G 3
  21527632.317    -4267932.857 5  -3169315.72121
  19661667.349   -21296942.202 7 -16595009.30422
  19465483.607   -20351425.476 7 -15612320.34122
  20405241.7944  -20500047.06047 -15738641.60962
  19161459.630   -26139318.796 7 -17599786.76923
 92  5 28  3 29 59.9930000  0  5G23G20G17G16G 3
  21515416.278    -4332136.960 5  -3219344.78621
  19666775.521   -21270096.800 7 -16574090.83422
  19458533.208   -20387958.625 7 -15640787.71422
  20410044.8574  -20474805.62447 -15718972.96362
  19154600.380   -26175363.183 7 -17627873.28623
 92  5 28  3 30 14.9930000  0  5G23G20G17G16G 3
  21503207.357    -4396290.147 5  -3269334.17221
  19671902.7864  -21243146.61547 -16553090.71962
  19451588.591   -20424425.113 6 -15669203.13622
  20414867.5214  -20449459.16847 -15699222.48062
  19147752.833   -26211359.012 7 -17655921.96623
 92  5 28  3 30 29.9930000  0  5G23G20G17G16G 3
  21491007.638    -4460394.109 5  -3319285.20321
  19677052.286   -21216093.004 7 -16532010.00622
  19444664.927   -20460825.527 6 -15697567.08422
  20419710.1534  -20424012.77947 -15679394.13162
  19140909.841   -26247307.028 7 -17683933.38823
 92  5 28  3 30 44.9930000  0  5G23G20G17G16G 3
  21478820.130    -4524451.012 5  -3369199.56621
  19682220.122   -21188938.643 7 -16510850.78422
  19437751.888   -20497161.072 7 -15725880.47022
  20424569.8104  -20398472.40747 -15659492.55262
  19134076.849   -26283209.361 7 -17711909.21223
 92  5 28  3 30 59.9930000  0  5G23G20G17G16G 3
  21466637.997    -4588459.054 5  -3419075.85421
  19687405.880   -21161683.346 7 -16489612.91022
  19430847.185   -20533433.057 7 -15754144.33122
  20429448.0444  -20372837.53047 -15639517.32762
  19127255.466   -26319065.220 7 -17739848.81723
 92  5 28  3 31 14.9930000  0  5G23G20G17G16G 3
  21454466.2864   -4652414.94345  -3468911.49861
  19692613.091   -21134324.544 7 -16468294.38022
  19423956.646   -20569637.858 7 -15782355.84122
  20434344.1534  -20347103.01947 -15619464.47262
  19120443.317   -26354871.550 7 -17767749.83523
 92  5 28  3 31 29.9930000  0  5G23G20G17G16G 3
  21442306.536    -4716318.409 5  -3518706.28621
  19697838.864   -21106862.615 7 -16446895.49422
  19417082.778   -20605770.853 7 -15810511.40722
  20439259.5754  -20321270.46147 -15599335.20962
  19113637.310   -26390627.944 7 -17795611.94223
 92  5 28  3 31 44.9930000  0  5G23G20G17G16G 3
  21430154.7324   -4780172.48445  -3568462.60361
  19703083.669   -21079302.775 6 -16425420.31022
  19410222.364   -20641834.217 7 -15838612.71022
  20444192.7864  -20295347.52447 -15579135.52462
  19106840.138   -26426339.326 7 -17823438.97823
 92  5 28  3 31 59.9930000  0  5G23G20G17G16G 3
  21418015.607    -4843970.447 5  -3618175.18721
  19708349.614   -21051638.704 7 -16403863.90922
  19403371.442   -20677820.569 7 -15866654.00522
  20449143.7004  -20269327.36947 -15558860.08762
  19100055.685   -26461998.675 7 -17851225.47123
 92  5 28  3 32 14.9930000  0  5G23G20G17G16G 3
  21405886.239    -4907715.441 5  -3667846.50321
  19713632.919   -21023875.604 7 -16382230.34222
  19396535.232   -20713735.387 7 -15894639.55822
  20454111.2634  -20243219.58647 -15538516.36562
  19093280.2394  -26497610.58747 -17878975.00463
 92  5 28  3 32 29.9930000  0  5G23G20G17G16G 3
  21393766.349    -4971401.394 5  -3717471.81621
  19718934.427   -20996011.443 7 -16360518.03022
  19389715.763   -20749574.947 7 -15922566.47422
  20459096.3804  -20217025.66947 -15518105.52562
  19086513.3884  -26533172.64247 -17906685.69263
 92  5 28  3 32 44.9930000  0  5G23G20G17G16G 3
  21381658.247    -5035024.057 5  -3767047.79721
  19724256.005   -20968044.419 7 -16338725.55322
  19382912.028   -20785337.843 7 -15950433.64722
  20464097.7554  -20190743.69847 -15497626.07362
  19079754.7244  -26568682.35447 -17934355.58963
 92  5 28  3 32 59.9930000  0  5G23G20G17G16G 3
  21369562.528    -5098585.883 5  -3816576.38521
  19729596.685   -20939974.190 6 -16316852.65822
  19376123.310   -20821024.404 7 -15978241.34022
  20469117.1304  -20164370.81047 -15477075.77962
  19073006.388   -26604138.815 7 -17961983.98923
 92  5 28  3 33 14.9930000  0  5G23G20G17G16G 3
  21357478.903    -5162092.939 5  -3866062.29121
  19734956.333   -20911805.365 6 -16294902.94322
  19369345.677   -20856639.814 7 -16005993.59122
  20474154.0054  -20137911.22347 -15456457.91962
  19066268.536   -26639546.126 7 -17989574.08323
 92  5 28  3 33 29.9930000  0  5G23G20G17G16G 3
  21345402.755    -5225547.056 5  -3915506.95521
  19740335.513   -20883540.191 7 -16272878.14822
  19362580.107   -20892186.267 7 -16033692.10522
  20479204.8724  -20111369.64446 -15435776.17562
  19059540.271   -26674905.871 7 -18017127.11523
 92  5 28  3 33 44.9930000  0  5G23G20G17G16G 3
  21333340.708    -5288941.776 5  -3964905.32521
  19745732.575   -20855175.465 7 -16250775.77922
  19355828.755   -20927662.185 7 -16061335.65622
  20484270.2084  -20084745.65246 -15415030.21262
  19052822.075   -26710214.375 7 -18044640.21923
 92  5 28  3 33 59.9930000  0  5G23G20G17G16G 3
  21321285.341    -5352279.741 5  -4014259.47821
  19751150.614   -20826714.391 7 -16228598.32922
  19349087.817   -20963073.636 7 -16088928.97322
  20489350.1614  -20058041.03846 -15394221.42962
  19046113.0214  -26745474.27047 -18072115.44763
 92  5 28  3 34 14.9930000  0  5G23G20G17G16G 3
  21309245.013    -5415555.777 5  -4063565.37021
  19756586.4584  -20798154.01547 -16206343.49962
  19342361.685   -20998419.633 7 -16116471.29522
  20494448.2084  -20031250.74046 -15373345.87561
  19039413.9034  -26780681.94147 -18099549.98663
 92  5 28  3 34 29.9930000  0  5G23G20G17G16G 3
  21297215.5284   -5478771.10645  -4112823.97161
  19762040.6304  -20769494.91147 -16184011.73662
  19335648.560   -21033700.216 7 -16143962.63722
  20499562.5524  -20004371.90046 -15352401.33062
  19032723.6854  -26815837.42547 -18126943.86363
 92  5 28  3 34 44.9930000  0  5G23G20G17G16G 3
  21285196.700    -5541931.992 5  -4162040.14021
  19767511.349   -20740740.005 7 -16161605.33022
  19328947.388   -21068915.684 7 -16171403.24022
  20504696.5364  -19977399.03346 -15331383.51361
  19026043.9274  -26850942.99147 -18154298.84263
 92  5 28  3 34 59.9930000  0  5G23G20G17G16G 3
  21273186.0054   -5605043.25345  -4211217.65361
  19772999.622   -20711891.591 7 -16139126.06622
  19322258.942   -21104068.940 7
  20509849.1534  -19950331.65046 -15310292.04761
  19019372.1614  -26886000.27547
 92  5 28  3 35 14.9930000  0  5G23G20G17G16G 3
  21261188.4744   -5668101.71845  -4260354.01261
  19778507.3804  -20682947.44047 -16116572.18862
  19315582.247   -21139157.239 7
  20515017.5134  -19923168.25646 -15289125.77462
  19012709.9584  -26921006.50247
 92  5 28  3 35 29.9930000  0  5G23G20G17G16G 3
  21249199.3254   -5731102.87245  -4309445.72661
  19784033.927   -20653907.801 7 -16093943.91522
  19308917.849   -21174179.476 7
  20520203.5364  -19895911.12346 -15267886.45061
  19006058.0134  -26955961.41747
 92  5 28  3 35 44.9930000  0  5G23G20G17G16G 3
  21237222.0444   -5794048.16345  -4358493.90361
  19789579.2944  -20624775.58147 -16071243.49562
  19302267.442   -21209134.979 7
  20525407.9114  -19868560.37946 -15246574.18762
  18999414.9974  -26990867.45347
 92  5 28  3 35 59.9930000  0  5G23G20G17G16G 3
  21225253.8174   -5856938.52845  -4407499.29861
  19795140.3024  -20595551.75647 -16048471.69562
  19295628.560   -21244021.982 7
  20530629.4584  -19841114.84446 -15225188.05961
  18992781.6774  -27025724.87347
 92  5 28  3 36 14.9930000  0  5G23G20G17G16G 3
  21213296.9504   -5919772.01845  -4456460.36161
  19800720.0674  -20566232.05047 -16025625.18562
  19289004.0604  -21278833.89347
  20535871.9584  -19813566.53446 -15203721.84562
  18986158.6144  -27060528.81447
 92  5 28  3 36 29.9930000  0  5G23G20G17G16G 3
  21201350.2394   -5982549.50346  -4505377.78761
  19806316.591   -20536815.182 7 -16002702.96622
  19282394.302   -21313567.710 7
  20541134.7784  -19785916.93446 -15182176.70662
  18979546.6304  -27095277.36547
 92  5 28  3 36 44.9930000  0  5G23G20G17G16G 3
  21189413.208    -6045280.157 6  -4554258.73421
  19811930.411   -20507307.752 7 -15979710.18022
  19275797.528   -21348229.449 7
  20546414.4664  -19758176.71746 -15160560.95361
  18972943.9974  -27129976.42347
 92  5 28  3 36 59.9930000  0  5G23G20G17G16G 3
  21177485.4274   -6107958.27646  -4603098.74461
  19817562.505   -20477707.628 7 -15956645.16422
  19269215.583   -21382817.842 7
  20551710.0604  -19730348.41446 -15138876.56561
  18966350.8414  -27164623.52647
 92  5 28  3 37 14.9930000  0  5G23G20G17G16G 3
  21165569.575    -6170580.630 6  -4651895.29321
  19823214.825   -20448014.370 7 -15933507.57722
  19262647.036   -21417333.931 7
  20557020.3414  -19702434.90546 -15117125.78361
  18959768.0364  -27199217.52247
 92  5 28  3 37 29.9930000  0  5G23G20G17G16G 3
  21153662.5914   -6233145.98945  -4700647.43461
  19828883.958   -20418228.309 7 -15910297.67822
  19256091.325   -21451777.471 7 -16469736.90322
  20562347.4894  -19674434.64146 -15095307.39561
  18953195.4974  -27233758.20947 -18452596.28763
 92  5 28  3 37 44.9930000  0  5G23G20G17G16G 3
  21141767.982    -6295652.154 6  -4749353.45321
  19834571.122   -20388347.135 7 -15887013.66522
  19249550.880   -21486144.948 7 -16496516.73722
  20567694.3964  -19646341.66946 -15073416.76661
  18946634.2164  -27268242.58447 -18479467.21763
 92  5 28  3 37 59.9930000  0  5G23G20G17G16G 3
  21129884.489    -6358099.704 6  -4798013.80021
  19840273.482   -20358371.123 7 -15863655.75022
  19243024.396   -21520437.797 7 -16523238.42222
  20573058.3414  -19618156.44146 -15051454.25761
  18940082.4974  -27302670.34547 -18506294.03363
 92  5 28  3 38 14.9930000  0  5G23G20G17G16G 3
  21118010.083    -6420495.295 5  -4846633.66621
  19845992.950   -20328305.437 7 -15840227.95722
  19236511.692   -21554665.054 7 -16549908.99622
  20578438.9114  -19589887.03346 -15029426.15262
  18933541.028   -27337046.150 7 -18533080.36023
 92  5 28  3 38 29.9930000  0  5G23G20G17G16G 3
  21106149.521    -6482832.610 6  -4895208.11921
  19851733.146   -20298146.476 7 -15816727.48622
  19230012.513   -21588825.117 7 -16576527.21322
  20583834.6074  -19561532.05146 -15007331.37361
  18927009.4274  -27371365.83047 -18559822.95763
 92  5 28  3 38 44.9930000  0  5G23G20G17G16G 3
  21094296.021    -6545112.219 6  -4943737.60521
  19857490.271   -20267898.631 7 -15793157.75022
  19223525.185   -21622922.874 7 -16603096.88022
  20589244.3334  -19533098.47246 -14985175.33961
  18920486.185   -27405633.009 7 -18586524.64423
 92  5 28  3 38 59.9930000  0  5G23G20G17G16G 3
  21082457.528    -6607326.749 5  -4992216.38221
  19863263.7634  -20237558.76147 -15769516.30562
  19217050.747   -21656953.919 7 -16629614.55723
  20594669.4274  -19504580.39146 -14962953.46761
  18913977.021   -27439844.172 7 -18613182.67323
 92  5 28  3 39 14.9930000  0  5G23G20G17G16G 3
  21070630.646    -6669478.705 5  -5040646.39821
  19869054.5524  -20207129.99547 -15745805.58662
  19210587.310   -21690921.598 7 -16656082.85822
  20600113.0914  -19475978.22746 -14940666.06961
  18907476.536   -27474001.796 7 -18639798.98423
 92  5 28  3 39 29.9930000  0  5G23G20G17G16G 3
  21058814.2244   -6731573.76446  -5089032.08661
  19874859.3804  -20176616.10847 -15722028.54162
  19204132.825   -21724828.937 7 -16682504.14522
  20605573.0134  -19447294.50346 -14918315.12161
  18900986.958   -27508109.131 7 -18666376.10623
 92  5 28  3 39 44.9930000  0  5G23G20G17G16G 3
  21047010.700    -6793608.450 6  -5137370.71921
  19880681.841   -20146014.059 7 -15698182.80122
  19197691.599   -21758670.800 7 -16708874.40422
  20611047.7714  -19418529.58446 -14895900.90061
  18894507.591   -27542162.294 7 -18692911.01923
 92  5 28  3 39 59.9930000  0  5G23G20G17G16G 3
  21035215.567    -6855577.147 6  -5185657.94621
  19886523.466   -20115320.696 7 -15674265.91022
  19191263.427   -21792442.331 7 -16735189.85923
  20616535.2784  -19389682.98146 -14873423.03661
  18888039.982   -27576157.714 7 -18719400.94323
 92  5 28  3 40 14.9930000  0  5G23G20G17G16G 3
  21023435.8804   -6917479.85546  -5233893.75061
  19892383.044   -20084536.761 7 -15650278.44222
  19184849.833   -21826145.025 7 -16761451.68023
  20622039.2394  -19360755.63246 -14850882.25361
  18881580.997   -27610095.269 7 -18745845.77723
 92  5 28  3 40 29.9930000  0  5G23G20G17G16G 3
  21011671.185    -6979317.628 6  -5282078.96221
  19898257.7394  -20053666.48947 -15626223.68962
  19178451.567   -21859782.507 7 -16787662.69323
  20627559.0364  -19331750.65346 -14828280.97561
  18875132.0674  -27643978.92847 -18772248.61663
 92  5 28  3 40 44.9930000  0  5G23G20G17G16G 3
  20999916.450    -7041084.972 6  -5330209.28221
  19904147.7164  -20022707.39147 -15602099.72362
  19172066.872   -21893348.869 7 -16813818.28922
  20633094.9194  -19302665.05846 -14805616.88362
  18868693.755   -27677805.385 7 -18798606.88423
 92  5 28  3 40 59.9930000  0  5G23G20G17G16G 3
  20988174.2864   -7102790.37046  -5378291.34161
  19910053.5524  -19991665.52747 -15577911.26862
  19165691.114   -21926847.217 7 -16839920.88222
  20638644.8254  -19273504.64246 -14782894.49061
  18862267.153   -27711579.922 7 -18824924.68423
 92  5 28  3 41 14.9930000  0  5G23G20G17G16G 3
  20976444.583    -7164432.028 6  -5426323.72621
  19915977.6614  -19960536.53747 -15553654.92162
  19159327.692   -21960272.779 7 -16865966.76422
  20644207.8494  -19244262.34946 -14760108.29261
  18855852.528   -27745298.052 7 -18851198.53723
 92  5 28  3 41 29.9930000  0  5G23G20G17G16G 3
  20964726.4824   -7226007.46746  -5474304.52661
  19921920.2944  -19929316.86947 -15529327.91662
  19152980.177   -21993622.751 7 -16891953.74423
  20649787.4504  -19214934.35946 -14737255.31461
  18849448.153   -27778955.230 7 -18877424.89323
 92  5 28  3 41 44.9930000  0  5G23G20G17G16G 3
  20953021.341    -7287517.369 6  -5522234.24321
  19927876.966   -19898010.402 7 -15504933.27722
  19146648.903   -22026899.895 7 -16917883.96622
  20655385.3334  -19185525.53146 -14714339.34961
  18843052.982   -27812554.895 7 -18903606.42723
 92  5 28  3 41 59.9930000  0  5G23G20G17G16G 3
  20941328.3574   -7348963.02546  -5570113.90761
  19933849.3724  -19866619.98447 -15480473.21662
  19140333.107   -22060107.866 7 -16943760.29023
  20660998.2784  -19156038.92946 -14691362.78961
  18836668.591   -27846099.220 7 -18929744.84123
 92  5 28  3 42 14.9920000  0  5G23G20G17G16G 3
  20929646.6494   -7410343.73046  -5617942.95861
  19939839.297   -19835149.024 7 -15455950.40822
  19134025.024   -22093248.968 7 -16969584.50722
  20666622.7034  -19126476.12246 -14668326.83961
  18830296.531   -27879586.760 7 -18955839.00523
 92  5 28  3 42 29.9920000  0  5G23G20G17G16G 3
  20917978.5784   -7471666.53446  -5665726.89561
  19945845.625   -19803589.827 7 -15431358.84022
  19127728.383   -22126324.214 7 -16995357.40823
  20672262.1024  -19096830.43346 -14645226.30861
  18823937.383   -27913017.834 7 -18981889.17223
 92  5 28  3 42 44.9920000  0  5G23G20G17G16G 3
  20906322.3674   -7532925.65146  -5713461.20261
  19951867.375   -19771942.029 7 -15406698.24022
  19121448.125   -22159328.231 7 -17021074.80923
  20677920.4614  -19067104.01246 -14622062.87361
  18817586.820   -27946387.122 7 -19007891.19323
 92  5 28  3 42 59.9920000  0  5G23G20G17G16G 3
  20894673.2664   -7594130.10346  -5761152.91461
  19957903.524   -19740210.396 6 -15381972.31722
  19115183.641   -22192265.777 7 -17046740.41423
  20683593.1024  -19037300.02446 -14598838.99361
  18811245.4144  -27979698.85347 -19033848.35863
 92  5 28  3 43 14.9920000  0  5G23G20G17G16G 3
  20883037.9454   -7655280.87046  -5808802.79661
  19963959.453   -19708394.983 6 -15357181.10922
  19108927.149   -22225140.848 7 -17072357.33222
  20689278.9384  -19007416.36846 -14575553.03561
  18804918.117   -28012952.543 7 -19059760.30123
 92  5 28  3 43 29.9920000  0  5G23G20G17G16G 3
  20871411.6954   -7716377.68746  -5856410.63361
  19970030.883   -19676496.554 6 -15332325.21522
  19102679.859   -22257957.215 7 -17097928.50723
  20694979.5314  -18977454.36146 -14552206.01861
  18798603.024   -28046148.083 7 -19085626.93223
 92  5 28  3 43 44.9920000  0  5G23G20G17G16G 3
  20859796.2424   -7777414.96946  -5903972.08861
  19976116.305   -19644512.410 6 -15307402.52322
  19096445.734   -22290712.829 7 -17123452.34523
  20700696.3994  -18947415.09246 -14528798.80561
  18792297.852   -28079282.216 7 -19111445.71723
 92  5 28  3 43 59.9920000  0  5G23G20G17G16G 3
  20848192.8834   -7838392.56046  -5951487.02361
  19982217.602   -19612442.308 6 -15282412.85422
  19090228.024   -22323405.528 7 -17148927.14823
  20706428.1254  -18917299.32046 -14505331.97861
  18786001.969   -28112354.046 7 -19137215.95223
 92  5 28  3 44 14.9920000  0  5G23G20G17G16G 3
  20836601.109    -7899311.906 6  -5998956.57421
  19988337.977   -19580285.600 6 -15257355.70122
  19084019.219   -22356033.496 7 -17174351.52323
  20712172.6804  -18887104.95646 -14481803.91261
  18779720.289   -28145362.419 7 -19162936.74423
 92  5 28  3 44 29.9920000  0  5G23G20G17G16G 3
  20825018.7114   -7960174.39446  -6046381.82461
  19994473.899   -19548044.948 6 -15232233.13322
  19077819.547   -22388598.016 7 -17199726.45823
  20717933.3444  -18856832.10946 -14458214.68261
  18773453.836   -28178309.325 7 -19188609.64323
 92  5 28  3 44 44.9920000  0  5G23G20G17G16G 3
  20813448.7274   -8020978.32946  -6093761.44361
  20000623.0244  -19515722.72446 -15207047.01062
  19071634.508   -22421099.967 7 -17225052.63523
  20723709.7664  -18826481.88046 -14434565.16461
  18767195.086   -28211196.577 7 -19214236.05723
 92  5 28  3 44 59.9920000  0  5G23G20G17G16G 3
  20801888.8284   -8081723.92546  -6141095.60761
  20006788.297   -19483320.901 6 -15181798.86122
  19065464.211   -22453540.088 7 -17250330.63323
  20729500.4614  -18796053.47846 -14410854.73161
  18760945.414   -28244025.724 7 -19239817.19023
 92  5 28  3 45 14.9920000  0  5G23G20G17G16G 3
  20790340.570    -8142409.308 6  -6188382.84821
  20012971.156   -19450838.615 6 -15156488.00222
  19059302.750   -22485915.801 7 -17275558.44123
  20735304.8674  -18765544.17146 -14387081.25561
  18754710.641   -28276794.817 7 -19265351.52623
 92  5 28  3 45 29.9920000  0  5G23G20G17G16G 3
  20778804.9614   -8203029.05146  -6235618.94761
  20019168.469   -19418274.336 6 -15131113.26222
  19053151.664   -22518222.719 7 -17300732.64423
  20741126.0004  -18734953.35146 -14363244.25761
  18748488.594   -28309501.978 7 -19290837.60123
 92  5 28  3 45 44.9920000  0  5G23G20G17G16G 3
  20767283.6024   -8263579.90946  -6282801.36861
  20025379.1494  -19385628.54346 -15105675.01262
  19047018.477   -22550454.260 7 -17325848.11723
  20746964.094   -18704282.809 6 -14339345.14821
  18742276.063   -28342147.361 7 -19316275.54223
 92  5 28  3 45 59.9920000  0  5G23G20G17G16G 3
  20755771.9694   -8324061.73046  -6329929.99661
  20031608.461   -19352903.844 6 -15080175.26622
  19040903.266   -22582610.565 7 -17350904.94923
  20752814.4064  -18673534.03646 -14315385.07361
  18736071.524   -28374732.395 7 -19341666.45923
 92  5 28  3 46 14.9920000  0  5G23G20G17G16G 3
  20744277.7424   -8384474.29146  -6377004.64761
  20037849.672   -19320100.674 6 -15054614.37922
  19034796.774   -22614692.714 7 -17375904.00223
  20758680.2504  -18642705.12246 -14291362.55261
  18729884.570   -28407257.242 7 -19367010.47923
 92  5 28  3 46 29.9920000  0  5G23G20G17G16G 3
  20732793.0944   -8444814.79746  -6424023.16161
  20044108.234   -19287217.775 6 -15028991.36622
  19028702.461   -22646700.691 7 -17400845.26223
  20764564.461   -18611792.481 6 -14267274.78921
  18723709.070   -28439719.868 7 -19392306.01023
 92  5 28  3 46 44.9920000  0  5G23G20G17G16G 3
  20721324.8364   -8505084.67346  -6470986.63661
  20050377.164   -19254258.391 6 -15003308.74522
  19022629.281   -22678637.050 7 -17425730.71723
  20770461.7974  -18580800.53946 -14243125.23261
  18717540.258   -28472123.020 7 -19417555.20323
 92  5 28  3 46 59.9920000  0  5G23G20G17G16G 3
  20709867.3754   -8565283.64746  -6517894.86761
  20056666.7114  -19221221.95046 -14977566.07862
  19016566.0554  -22710500.22747 -17450559.15063
  20776372.8524  -18549731.90946 -14218915.92161
  18711385.336   -28504465.448 7 -19442757.08223
 92  5 28  3 47 14.9920000  0  5G23G20G17G16G 3
  20698427.0864   -8625409.51346  -6564746.12861
  20062968.6954  -19188106.55846 -14951761.88462
  19010513.2274  -22742287.95847 -17475328.79763
  20782299.727   -18518587.287 6 -14194647.39721
  18705246.359   -28536744.728 7 -19467909.75523
 92  5 28  3 47 29.9920000  0  5G23G20G17G16G 3
  20687000.9064   -8685462.83446  -6611540.85761
  20069282.3444  -19154915.03246 -14925898.37061
  19004480.719   -22774003.698 7 -17500042.34723
  20788241.1494  -18487371.96246 -14170323.77461
  18699112.289   -28568962.754 7 -19493014.69823
 92  5 28  3 47 44.9920000  0  5G23G20G17G16G 3
  20675588.6804   -8745441.43046  -6658277.36361
  20075614.008   -19121647.622 6 -14899975.72421
  18998460.8994  -22805649.82647 -17524701.65463
  20794193.4304  -18456086.77446 -14145945.71061
  18692992.039   -28601119.535 7 -19518071.91523
 92  5 28  3 47 59.9920000  0  5G23G20G17G16G 3
  20664188.2974   -8805344.05546  -6704954.66961
  20081959.274   -19088302.665 6 -14873992.66021
  18992447.117   -22837229.643 7 -17549309.28823
  20800159.9694  -18424730.58246 -14121512.32361
  18686888.750   -28633212.436 7 -19543079.35223
 92  5 28  3 48 14.9920000  0  5G23G20G17G16G 3
  20652801.7114   -8865178.36746  -6751578.75261
  20088318.320   -19054884.023 6 -14847952.17322
  18986450.477   -22868751.166 7 -17573871.49723
  20806140.9304  -18393306.67646 -14097026.17061
  18680790.649   -28665244.786 7 -19568039.59923
 92  5 28  3 48 29.9920000  0  5G23G20G17G16G 3
  20641427.1094   -8924943.32246  -6798148.78761
  20094692.141   -19021389.167 6 -14821852.30421
  18980465.961   -22900210.118 7 -17598384.94623
  20812134.3834  -18361810.11646 -14072483.40461
  18674706.633   -28697213.313 7 -19592950.12623
 92  5 28  3 48 44.9920000  0  5G23G20G17G16G 3
  20630067.1564   -8984641.70246  -6844666.95261
  20101080.602   -18987820.764 6 -14795695.12521
  18974485.914   -22931608.783 7 -17622851.42223
  20818140.227   -18330245.421 6 -14047887.54821
  18668637.578   -28729120.381 7 -19617812.75923
 92  5 28  3 48 59.9920000  0  5G23G20G17G16G 3
  20618719.9454   -9044272.88146  -6891132.74861
  20107482.242   -18954179.073 6 -14769480.83621
  18968525.945   -22962946.525 7 -17647270.42423
  20824159.149   -18298614.857 6 -14023240.37021
  18662576.141   -28760965.630 7 -19642627.22323
 92  5 28  3 49 14.9920000  0  5G23G20G17G16G 3
  20607385.883    -9103831.525 6  -6937542.02821
  20113898.508   -18920461.899 6 -14743207.73221
  18962575.422   -22994224.866 7 -17671643.13923
  20830191.7034  -18266913.55646 -13998538.06361
  18656527.367   -28792745.888 7 -19667391.04623
 92  5 28  3 49 29.9920000  0  5G23G20G17G16G 3
  20596067.6954   -9163317.64946  -6983894.79261
  20120329.070   -18886669.978 6 -14716876.38421
  18956629.930   -23025446.076 7 -17695971.33823
  20836237.9144  -18235140.09146 -13973779.52961
  18650494.906   -28824461.550 7 -19692104.53423
 92  5 28  3 49 44.9920000  0  5G23G20G17G16G 3
  20584760.992    -9222731.608 6  -7030191.32621
  20126774.781   -18852801.804 6 -14690485.61721
  18950701.578   -23056607.297 7 -17720252.79323
  20842297.672   -18203289.823 6 -13948961.14521
  18644470.227   -28856110.283 7 -19716765.87123
 92  5 28  3 49 59.9920000  0  5G23G20G17G16G 3
  20573467.2424   -9282080.24246  -7076436.95861
  20133232.094   -18818863.133 6 -14664039.91821
  18944786.149   -23087712.611 7 -17744490.68623
  20848374.1954  -18171368.37746 -13924087.30861
  18638458.633   -28887697.365 7 -19741379.16123
 92  5 28  3 50 14.9920000  0  5G23G20G17G16G 3
  20562186.055    -9341364.591 6  -7122632.50621
  20139703.750   -18784852.734 6 -14637538.32721
  18938874.578   -23118756.828 7 -17768680.96523
  20854461.0704  -18139375.63946 -13899157.90861
  18632461.680   -28919220.803 7 -19765942.85923
 92  5 28  3 50 29.9920000  0  5G23G20G17G16G 3
  20550916.266    -9400584.283 6  -7168777.66621
  20146190.359   -18750770.560 6 -14610980.81321
  18932979.227   -23149735.644 7 -17792820.28623
  20860561.664   -18107309.465 6 -13874171.29321
  18626474.797   -28950679.879 7 -19790456.41123
 92  5 28  3 50 44.9920000  0  5G23G20G17G16G 3
  20539660.344    -9459732.888 6  -7214867.43621
  20152688.7274  -18716614.79046 -14584365.95561
  18927100.906   -23180646.575 7 -17816906.70923
  20866679.7424  -18075170.28446 -13849127.77661
  18620499.524   -28982072.301 7 -19814918.02423
 92  5 28  3 50 59.9920000  0  5G23G20G17G16G 3
  20528418.164    -9518813.351 6  -7260904.10821
  20159201.766   -18682391.157 6 -14557698.21421
  18921228.063   -23211494.942 7 -17840944.37823
  20872807.7424  -18042966.80146 -13824034.16161
  18614539.766   -29013403.077 7 -19839331.59423
 92  5 28  3 51 14.9920000  0  5G23G20G17G16G 3
  20517189.727    -9577824.513 6  -7306886.78321
  20165728.594   -18648100.044 6 -14530977.89121
  18915367.617   -23242281.715 7 -17864934.06023
  20878946.7504  -18010697.44746 -13798889.22061
  18608590.125   -29044671.994 7 -19863696.96523
 92  5 28  3 51 29.9920000  0  5G23G20G17G16G 3
  20505973.227    -9636763.043 6  -7352812.86021
  20172267.063   -18613737.280 6 -14504201.73021
  18909526.055   -23273001.097 7 -17888871.22223
  20885102.4064  -17978358.39646 -13773689.96061
  18602648.789   -29075874.308 7 -19888010.44223
 92  5 28  3 51 44.9920000  0  5G23G20G17G16G 3
  20494770.250    -9695635.291 6  -7398687.28821
  20178818.375   -18579304.359 6 -14477370.90821
  18903692.461   -23303649.598 7 -17912753.15523
  20891268.820   -17945954.286 6 -13748440.01621
  18596725.695   -29107010.824 7 -19912272.64723
 92  5 28  3 51 59.9920000  0  5G23G20G17G16G 3
  20483579.805    -9754438.211 6  -7444507.69921
  20185385.774   -18544798.865 6 -14450483.53321
  18897871.781   -23334223.505 7 -17936576.95823
  20897446.9924  -17913483.78246 -13723138.33461
  18590815.422   -29138078.610 7 -19936481.28923
 92  5 28  3 52 14.9920000  0  5G23G20G17G16G 3
  20472404.453    -9813171.411 6  -7490273.77821
  20191964.399   -18510222.991 6 -14423541.31821
  18892069.938   -23364728.504 7 -17960347.07423
  20903638.5944  -17880949.73546 -13697787.13861
  18584913.539   -29169078.934 7 -19960637.36323
 92  5 28  3 52 29.9920000  0  5G23G20G17G16G 3
  20461239.828    -9871832.457 6  -7535983.63421
  20198557.086   -18475576.392 6 -14396543.99721
  18886277.086   -23395165.996 7 -17984064.58423
  20909842.852   -17848349.590 6 -13672384.43321
  18579028.024   -29200011.143 7 -19984740.36923
 92  5 28  3 52 44.9920000  0  5G23G20G17G16G 3
  20450092.649    -9930422.213 6  -7581637.94221
  20205163.266   -18440863.900 6 -14369495.32021
  18880493.383   -23425543.420 7 -18007735.28823
  20916055.5554  -17815688.41846 -13646934.18261
  18573156.516   -29230879.406 7 -20008793.54323
 92  5 28  3 52 59.9920000  0  5G23G20G17G16G 3
  20438957.399    -9988936.513 6  -7627233.45221
  20211782.484   -18406079.277 6 -14342390.43921
  18874729.141   -23455854.052 7 -18031353.94623
  20922284.672   -17782961.706 6 -13621432.86621
  18567292.570   -29261676.735 7 -20032791.44623
 92  5 28  3 53 14.9920000  0  5G23G20G17G16G 3
  20427835.938   -10047378.625 6  -7672772.71521
  20218415.117   -18371225.146 6 -14315231.38921
  18868973.578   -23486101.316 7 -18054923.23023
  20928524.649   -17750170.970 6 -13595881.65621
  18561445.703   -29292405.027 7 -20056735.55723
 92  5 28  3 53 29.9920000  0  5G23G20G17G16G 3
  20416726.899   -10105750.847 6  -7718257.51621
  20225061.250   -18336303.157 6 -14288019.46621
  18863226.344   -23516285.749 7 -18078443.54723
  20934776.3364  -17717317.07146 -13570281.22361
  18555612.852   -29323065.361 7 -20080626.70523
 92  5 28  3 53 44.9920000  0  5G23G20G17G16G 3
  20405633.180   -10164054.116 6  -7763688.58921
  20231719.0554  -18301313.51646 -14260754.83861
  18857496.609   -23546403.940 7 -18101912.25523
  20941040.4454  -17684402.87446 -13544633.80361
  18549790.047   -29353657.083 7 -20104464.40023
 92  5 28  3 53 59.9920000  0  5G23G20G17G16G 3
  20394552.430   -10222285.770 6  -7809063.85321
  20238390.3284  -18266255.06946 -14233436.60261
  18851781.039   -23576455.718 7 -18125329.20523
  20947315.3444  -17651425.04946 -13518936.81261
  18543980.7894  -29384178.62447 -20128247.40963
 92  5 28  3 54 14.9920000  0  5G23G20G17G16G 3
  20383484.852   -10280441.869 6  -7854380.24721
  20245074.4844  -18231129.80446 -14206066.29761
  18846070.180   -23606443.990 7 -18148696.67223
  20953601.7114  -17618383.91446 -13493190.48461
  18538188.6644  -29414631.26547 -20151976.72863
 92  5 28  3 54 29.9920000  0  5G23G20G17G16G 3
  20372432.219   -10338523.497 6  -7899638.61521
  20251770.688   -18195939.326 6 -14178645.17521
  18840375.711   -23636368.457 7 -18172014.41923
  20959902.492   -17585280.529 6 -13467395.65321
  18532406.313   -29445016.243 7 -20175653.32123
 92  5 28  3 54 44.9920000  0  5G23G20G17G16G 3
  20361394.242   -10396529.903 6  -7944838.36521
  20258479.2034  -18160683.51546 -14151173.14261
  18834698.008   -23666224.337 7 -18195278.72623
  20966213.031   -17552114.935 6 -13441552.35221
  18526635.1724  -29475332.49548 -20199276.36263
 92  5 28  3 54 59.9920000  0  5G23G20G17G16G 3
  20350370.266   -10454463.402 6  -7989981.30121
  20265201.297   -18125364.329 6 -14123651.74321
  18829027.492   -23696011.752 7 -18218489.68023
  20972535.586   -17518889.025 6 -13415662.04221
  18520880.758   -29505581.628 8 -20222847.10423
 92  5 28  3 55 14.9920000  0  5G23G20G17G16G 3
  20339360.250   -10512320.425 6  -8035064.65521
  20271934.1884  -18089980.09846 -14096079.65461
  18823370.820   -23725728.330 7 -18241645.43723
  20978872.461   -17485598.576 6 -13389721.44821
  18515138.977   -29535760.951 8 -20246363.44523
 92  5 28  3 55 29.9920000  0  5G23G20G17G16G 3
  20328364.078   -10570098.345 6  -8080086.36321
  20278679.7744  -18054532.73046 -14068458.35961
  18817732.352   -23755376.742 7 -18264748.08123
  20985217.7344  -17452245.01946 -13363731.67361
  18509405.2194  -29565872.11748 -20269826.68263
 92  5 28  3 55 44.9920000  0  5G23G20G17G16G 3
  20317386.305   -10627794.743 6  -8125044.54421
  20285438.2974  -18019019.31146 -14040785.61161
  18812104.430   -23784953.133 7 -18287794.60323
  20991578.516   -17418822.822 6 -13337688.41621
  18503690.281   -29595911.184 8 -20293233.73123
 92  5 28  3 55 59.9920000  0  5G23G20G17G16G 3
  20306421.453   -10685410.665 6  -8169940.02221
  20292206.5944  -17983441.51246 -14013062.68361
  18806484.664   -23814460.260 7 -18310787.15223
  20997951.9144  -17385331.15246 -13311591.01961
  18497990.328   -29625879.425 8 -20316585.59723
 92  5 28  3 56 14.9920000  0  5G23G20G17G16G 3
  20295474.938   -10742943.973 6  -8214771.12421
  20298989.8674  -17947800.71046 -13985290.66161
  18800885.453   -23843901.178 7 -18333728.10923
  21004337.852   -17351767.930 6 -13285437.87221
  18492297.891   -29655777.449 8 -20339882.74523
 92  5 28  3 56 29.9920000  0  5G23G20G17G16G 3
  20284542.086   -10800390.761 6  -8259534.81121
  20305784.7114  -17912094.02646 -13957467.30461
  18795298.641   -23873271.519 7 -18356614.06923
  21010738.9144  -17318130.31546 -13259226.75461
  18486622.016   -29685601.882 8 -20363122.55023
 92  5 28  3 56 44.9920000  0  5G23G20G17G16G 3
  20273626.195   -10857756.341 6  -8304235.21321
  20312592.8364  -17876324.07446 -13929594.64561
  18789718.6174  -23902574.25147 -18379447.35563
  21017154.578   -17284420.812 6 -13232959.62921
  18480962.899   -29715354.553 8 -20386306.43223
 92  5 28  3 56 59.9920000  0  5G23G20G17G16G 3
  20262723.422   -10915044.619 6  -8348875.38721
  20319409.844   -17840495.581 6 -13901676.36321
  18784153.274   -23931816.388 7 -18402233.42223
  21023580.914   -17250644.273 6 -13206640.26021
  18475314.156   -29745039.805 8 -20409437.78123
 92  5 28  3 57 14.9920000  0  5G23G20G17G16G 3
  20251838.305   -10972252.763 6  -8393453.11721
  20326240.477   -17804606.370 6 -13873710.77121
  18778604.649   -23960997.375 7 -18424971.83623
  21030021.5634  -17216800.12546 -13180268.21261
  18469675.836   -29774654.410 8 -20432514.08323
 92  5 28  3 57 29.9920000  0  5G23G20G17G16G 3
  20240967.906   -11029378.402 6  -8437966.55321
  20333079.4384  -17768653.50546 -13845695.57861
  18773062.3674  -23990114.78847 -18447660.71663
  21036475.9144  -17182887.07546 -13153842.46961
  18464055.180   -29804195.048 8 -20455532.74923
 92  5 28  3 57 44.9920000  0  5G23G20G17G16G 3
  20230109.750   -11086430.150 6  -8482422.41621
  20339933.258   -17732641.162 6 -13817634.03521
  18767529.227   -24019170.967 7 -18470301.88323
  21042939.641   -17148909.111 6 -13127366.15221
  18458449.750   -29833665.120 8 -20478496.42523
 92  5 28  3 57 59.9920000  0  5G23G20G17G16G 3
  20219265.508   -11143412.180 6  -8526823.95321
  20346797.2194  -17696571.54046 -13789527.86061
  18762012.875   -24048167.530 7 -18492896.59723
  21049418.164   -17114868.132 6 -13100840.73121
  18452853.055   -29863066.279 8 -20501406.40723
 92  5 28  3 58 14.9920000  0  5G23G20G17G16G 3
  20208436.774   -11200316.123 6  -8571164.64121
  20353673.274   -17660439.540 6 -13761373.07421
  18756511.219   -24077099.301 7 -18515440.81923
  21055909.227   -17080762.078 6 -13074264.59521
  18447270.727   -29892392.826 8 -20524258.24423
 92  5 28  3 58 29.9920000  0  5G23G20G17G16G 3
  20197624.875   -11257144.649 6  -8615446.56521
  20360559.195   -17624247.890 6 -13733171.80621
  18751015.734   -24105969.292 7 -18537936.90223
  21062409.500   -17046598.982 6 -13047644.01821
  18441705.258   -29921646.849 8 -20547053.57523
 92  5 28  3 58 44.9920000  0  5G23G20G17G16G 3
  20186824.930   -11313902.976 6  -8659673.78321
  20367459.016   -17587998.830 6 -13704925.80721
  18745528.820   -24134781.426 7 -18560387.89923
  21068920.000   -17012386.966 6 -13020985.31521
  18436154.399   -29950829.912 8 -20569793.61023
 92  5 28  3 58 59.9920000  0  5G23G20G17G16G 3
  20176037.875   -11370588.605 6  -8703844.35821
  20374367.6884  -17551688.61346 -13676632.16261
  18740059.070   -24163533.059 7 -18582791.75323
  21075441.047   -16978122.756 6 -12994285.95121
  18430613.922   -29979937.596 7 -20592474.90823
 92  5 28  3 59 14.9920000  0  5G23G20G17G16G 3
  20165263.149   -11427200.946 6  -8747957.82221
  20381289.0084  -17515316.78946 -13648290.50461
  18734604.219   -24192224.224 7 -18605148.49223
  21081970.8204  -16943806.77646 -12967546.23661
  18425086.406   -30008968.867 8 -20615096.66623
 92  5 28  3 59 29.9920000  0  5G23G20G17G16G 3
  20154502.203   -11483744.177 6  -8792017.43821
  20388222.4224  -17478888.94346 -13619905.20261
  18729154.438   -24220858.696 7 -18627461.04923
  21088508.3754  -16909444.93546 -12940770.78961
  18419576.414   -30037928.476 8 -20637662.58123
 92  5 28  3 59 44.9920000  0  5G23G20G17G16G 3
  20143757.172   -11540216.120 6  -8836021.50221
  20395163.5944  -17442402.73146 -13591474.41861
  18723713.102   -24249431.354 7 -18649725.44423
  21095058.297   -16875034.239 6 -12913957.27321
  18414081.977   -30066813.674 8 -20660170.51023
 92  5 28  3 59 59.9920000  0  5G23G20G17G16G 3
  20133025.305   -11596613.686 6  -8879967.61121
  20402117.8134  -17405858.15546 -13562998.15761
  18718286.102   -24277942.919 7 -18671942.23323
  21101614.7114  -16840574.50046 -12887105.53761
  18408600.742   -30095623.681 8 -20682619.84723
 92  5 28  4  0 14.9920000  0  5G23G20G17G16G 3
  20122308.609   -11652929.795 6  -8923850.24721
  20409083.297   -17369253.677 6 -13534475.21721
  18712874.524   -24306391.446 7 -18694109.90123
  21108180.672   -16806067.052 6 -12860216.63321
  18403131.156   -30124356.364 8 -20705008.93623
 92  5 28  4  0 29.9920000  0  5G23G20G17G16G 3
  20111605.406   -11709165.882 6  -8967670.52522
  20416060.4144  -17332591.73946 -13505907.50961
  18707476.602   -24334777.708 7 -18716229.04623
  21114757.7744  -16771515.09346 -12833293.03461
  18397676.219   -30153013.457 8 -20727339.12023
 92  5 28  4  0 44.9920000  0  5G23G20G17G16G 3
  20100918.227   -11765327.897 6  -9011433.08822
  20423048.8754  -17295875.34946 -13477297.37461
  18702086.305   -24363103.213 7 -18738300.85023
  21121340.7504  -16736918.18546 -12806334.41661
  18392236.445   -30181597.238 8 -20749612.17823
 92  5 28  4  0 59.9920000  0  5G23G20G17G16G 3
  20090246.141   -11821417.348 6  -9055139.11221
  20430044.734   -17259104.749 6 -13448644.99621
  18696706.000   -24391366.554 7 -18760324.21623
  21127934.2114  -16702270.50946 -12779336.23161
  18386813.258   -30210107.394 8 -20771827.86823
 92  5 28  4  1 14.9920000  0  5G23G20G17G16G 3
  20079586.445   -11877430.473 6  -9098785.65522
  20437051.9694  -17222279.02846 -13419949.67761
  18691337.813   -24419563.450 7 -18782295.80323
  21134538.1564  -16667567.54246 -12752294.97461
  18381403.406   -30238542.442 8 -20793985.02823
 92  5 28  4  1 29.9920000  0  5G23G20G17G16G 3
  20068942.508   -11933368.333 6  -9142373.55622
  20444070.0864  -17185402.62546 -13391214.84161
  18685983.516   -24447696.575 7 -18804217.70123
  21141150.2034  -16632813.37646 -12725213.81161
  18376006.789   -30266906.062 8 -20816086.53123
 92  5 28  4  1 44.9920000  0  5G23G20G17G16G 3
  20058311.242   -11989230.024 6  -9185902.09822
  20451096.3754  -17148475.28846 -13362440.32361
  18680643.953   -24475764.181 7 -18826088.54423
  21147775.7584  -16598005.72946 -12698090.97461
  18370621.406   -30295197.537 8 -20838131.81923
 92  5 28  4  1 59.9920000  0  5G23G20G17G16G 3
  20047696.7424  -12045010.93646  -9229367.70362
  20458134.8204  -17111493.07246 -13333623.04261
  18675317.984   -24503763.113 7 -18847905.86923
  21154409.1094  -16563138.15346 -12670921.44261
  18365250.781   -30323412.085 8 -20860117.16523
 92  5 28  4  2 14.9920000  0  5G23G20G17G16G 3
  20037096.8364  -12100713.50546  -9272772.26462
  20465182.0474  -17074458.77146 -13304765.18361
  18670004.274   -24531696.840 7 -18869672.39223
  21161056.5084  -16528212.50846 -12643706.65661
  18359895.000   -30351551.937 8 -20882044.31023
 92  5 28  4  2 29.9920000  0  5G23G20G17G16G 3
  20026512.211   -12156339.793 6  -9316117.38521
  20472238.633   -17037372.758 6 -13275867.03921
  18664700.961   -24559563.835 7 -18891386.91423
  21167714.7424  -16493226.05346 -12616444.49261
  18354555.180   -30379616.803 8 -20903913.02223
 92  5 28  4  2 44.9920000  0  5G23G20G17G16G 3
  20015941.6254  -12211889.46746  -9359402.80761
  20479308.195   -17000232.510 6 -13246926.63021
  18659409.672   -24587364.026 7 -18913049.38323
  21174383.1174  -16458173.73846 -12589131.00461
  18349230.242   -30407603.631 8 -20925720.92323
 92  5 28  4  2 59.9920000  0  5G23G20G17G16G 3
  20005385.1334  -12267361.31446  -9402627.57761
  20486384.4774  -16963038.64046 -13217944.43461
  18654129.859   -24615098.096 7 -18934660.33023
  21181067.1174  -16423055.48746 -12561766.13561
  18343920.375   -30435512.143 8 -20947467.80123
 92  5 28  4  3 14.9920000  0  5G23G20G17G16G 3
  19994845.3834  -12322750.02446  -9445787.57462
  20493472.1494  -16925791.71246 -13188920.88861
  18648863.461   -24642765.920 7 -18956219.65523
  21187762.328   -16387875.629 6 -12534353.27021
  18338625.656   -30463342.371 8 -20969153.68023
 92  5 28  4  3 29.9920000  0  5G23G20G17G16G 3
  19984321.859   -12378048.259 6  -9488877.06922
  20500571.1094  -16888489.22046 -13159854.03961
  18643611.008   -24670364.354 7 -18977724.91723
  21194467.1724  -16352634.13246 -12506892.37461
  18333345.1954  -30491091.13148 -20990776.08263
 92  5 28  4  3 44.9920000  0  5G23G20G17G16G 3
  19973816.1334  -12433260.75946  -9531899.75762
  20507679.7504  -16851135.66646 -13130747.40561
  18638372.320   -24697899.219 7 -18999180.64223
  21201184.8754  -16317335.12546 -12479386.65961
  18328079.422   -30518762.326 8 -21012338.03623
 92  5 28  4  3 59.9920000  0  5G23G20G17G16G 3
  19963326.0554  -12488386.78746  -9574855.06862
  20514796.8834  -16813730.45246 -13101600.52861
  18633145.672   -24725368.461 7 -19020585.22623
  21207913.031   -16281978.714 6 -12451836.22521
  18322828.1804  -30546354.63348 -21033838.52563
 92  5 28  4  4 14.9920000  0  5G23G20G17G16G 3
  19952851.4924  -12543426.21346  -9617742.89362
  20521925.633   -16776273.154 6 -13072413.07221
  18627933.141   -24752771.473 7 -19041938.20423
  21214651.2114  -16246566.62646 -12424242.40261
  18317591.461   -30573867.005 8 -21055276.72123
 92  5 28  4  4 29.9920000  0  5G23G20G17G16G 3
  19942393.6174  -12598381.55246  -9660565.20162
  20529062.578   -16738766.349 6 -13043187.03521
  18622730.328   -24780111.049 7
  21221400.016   -16211103.239 6 -12396608.60621
  18312370.016   -30601301.348 8
 92  5 28  4  4 44.9920000  0  5G23G20G17G16G 3
  19931952.2974  -12653254.99846  -9703323.69362
  20536208.984   -16701212.620 6 -13013924.43321
  18617540.750   -24807388.753 7
  21228158.2504  -16175594.53746 -12368939.49061
  18307163.516   -30628659.528 8
 92  5 28  4  4 59.9920000  0  5G23G20G17G16G 3
  19921526.3054  -12708041.32146  -9746014.30562
  20543365.274   -16663608.362 6 -12984622.46321
  18612363.375   -24834598.449 7
  21234922.2664  -16140039.73646 -12341234.46261
  18301972.508   -30655937.697 8
 92  5 28  4  5 14.9920000  0  5G23G20G17G16G 3
  19911117.6094  -12762740.07246  -9788636.67262
  20550530.367   -16625956.226 6 -12955283.18021
  18607198.922   -24861742.077 7
  21241697.117   -16104441.132 6 -12313495.30221
  18296796.359   -30683137.428 8
 92  5 28  4  5 29.9920000  0  5G23G20G17G16G 3
  19900725.9064  -12817345.38446  -9831186.23462
  20557705.758   -16588249.506 6 -12925901.36121
  18602048.227   -24888811.631 7
  21248481.6564  -16068791.88046 -12285716.67261
  18291636.195   -30710251.664 8
 92  5 28  4  5 44.9920000  0  5G23G20G17G16G 3
  19890351.3994  -12871867.68646  -9873671.11162
  20564890.0244  -16550494.48746 -12896481.91361
  18596909.164   -24915813.502 7
  21255273.7424  -16033095.53246 -12257901.35161
  18286492.195   -30737285.832 8
 92  5 28  4  5 59.9920000  0  5G23G20G17G16G 3
  19879991.1954  -12926313.69946  -9916096.54562
  20572081.680   -16512694.868 6 -12867027.70621
  18591783.617   -24942750.104 7
  21262075.8134  -15997354.96446 -12230051.57161
  18281362.727   -30764242.949 8
 92  5 28  4  6 14.9920000  0  5G23G20G17G16G 3
  19869643.7424  -12980682.98746  -9958462.19262
  20579282.2034  -16474850.60546 -12837538.71261
  18586668.7114  -24969620.67247
  21268885.0314  -15961571.74446 -12202168.54061
  18276247.414   -30791122.419 8
 92  5 28  4  6 29.9920000  0  5G23G20G17G16G 3
  19859313.4304  -13034969.53046 -10000763.36462
  20586495.8204  -16436956.60746 -12808010.95461
  18581570.0394  -24996421.29347
  21275702.4694  -15925739.10946 -12174247.01361
  18271147.774   -30817918.678 8
 92  5 28  4  6 44.9920000  0  5G23G20G17G16G 3
  19848999.5474  -13089172.34146 -10042999.29162
  20593714.9144  -16399016.12646 -12778446.98361
  18576483.094   -25023153.977 7
  21282531.3674  -15889859.09246 -12146288.56361
  18266064.649   -30844634.192 8
 92  5 28  4  6 59.9920000  0  5G23G20G17G16G 3
  19838700.5864  -13143290.51246 -10085169.26262
  20600942.7344  -16361030.03646 -12748847.46561
  18571408.1954  -25049819.20947
  21289368.2814  -15853931.77146 -12118293.26361
  18260996.203   -30871268.698 8
 92  5 28  4  7 14.9920000  0  5G23G20G17G16G 3
  19828419.4844  -13197322.42346 -10127272.02462
  20608181.781   -16322998.182 6 -12719212.29121
  18566345.992   -25076420.685 7
  21296212.391   -15817955.380 6 -12090259.72821
  18255943.602   -30897821.971 8
 92  5 28  4  7 29.9920000  0  5G23G20G17G16G 3
  19818153.2424  -13251268.14846 -10169307.62462
  20615426.9064  -16284918.90246 -12689540.16661
  18561295.649   -25102957.612 7
  21303068.9454  -15781927.65146 -12062186.17861
  18250905.992   -30924291.619 8
 92  5 28  4  7 44.9920000  0  5G23G20G17G16G 3
  19807904.1254  -13305133.06646 -10211280.25562
  20622680.9844  -16246797.20746 -12659834.98161
  18556256.844   -25129434.360 7 -19335441.49723
  21309934.4064  -15745854.45046 -12034077.20161
  18245884.477   -30950681.954 8 -21348898.60223
 92  5 28  4  7 59.9920000  0  5G23G20G17G16G 3
  19797668.7814  -13358917.46346 -10253190.14262
  20629942.9144  -16208634.99446 -12630098.23461
  18551227.438   -25155855.130 7 -19356029.09323
  21316806.5474  -15709736.96446 -12005933.71461
  18240877.938   -30976994.210 8 -21369401.64623
 92  5 28  4  8 14.9920000  0  5G23G20G17G16G 3
  19787449.8364  -13412613.93246 -10295031.51762
  20637213.9144  -16170427.61746 -12600326.29861
  18546209.930   -25182217.002 7 -19376570.79523
  21323688.1334  -15673574.08846 -11977754.85961
  18235888.6094  -31003223.05448 -21389839.69863
 92  5 28  4  8 29.9920000  0  5G23G20G17G16G 3
  19777247.578   -13466225.370 6 -10336806.63422
  20644490.859   -16132179.614 6 -12570522.70021
  18541203.563   -25208525.407 7 -19397070.83623
  21330578.359   -15637372.023 6 -11949545.47121
  18230913.3364  -31029372.41448 -21410215.81663
 92  5 28  4  8 44.9920000  0  5G23G20G17G16G 3
  19767063.0864  -13519750.86746 -10378514.78562
  20651778.9454  -16093888.47146 -12540685.47461
  18536206.516   -25234778.985 7 -19417528.15423
  21337475.227   -15601127.256 6 -11921302.81521
  18225953.5474  -31055439.15948 -21430527.55763
 92  5 28  4  8 59.9920000  0  5G23G20G17G16G 3
  19756893.3754  -13573195.67146 -10420160.05762
  20659072.6024  -16055558.26346 -12510817.81361
  18531222.719   -25260980.484 7 -19437944.88823
  21344379.375   -15564845.951 6 -11893031.68821
  18221006.9064  -31081426.71848 -21450777.59963
 92  5 28  4  9 14.9920000  0  5G23G20G17G16G 3
  19746737.7814  -13626558.83746 -10461741.71462
  20666374.6724  -16017183.60046 -12480915.51361
  18526249.438   -25287125.911 7 -19458317.93223
  21351290.406   -15528522.379 6 -11864727.63121
  18216075.8284  -31107329.03748 -21470961.21663
 92  5 28  4  9 29.9920000  0  5G23G20G17G16G 3
  19736597.8594  -13679842.94746 -10503261.76862
  20673686.531   -15978765.641 6 -12450979.47721
  18521285.758   -25313213.652 7 -19478646.02123
  21358210.3524  -15492156.36946 -11836390.49661
  18211162.453   -31133146.686 8 -21491078.85223
 92  5 28  4  9 44.9920000  0  5G23G20G17G16G 3
  19726475.5084  -13733046.36546 -10544718.95062
  20681006.6174  -15940304.96046 -12421010.15261
  18516331.149   -25339241.196 7 -19498927.21223
  21365139.813   -15455745.854 6 -11808018.67421
  18206266.3754  -31158879.44448 -21511130.34163
 92  5 28  4  9 59.9920000  0  5G23G20G17G16G 3
  19716366.1564  -13786166.83146 -10586111.49162
  20688332.4924  -15901801.73446 -12391007.68061
  18511386.297   -25365211.471 7 -19519163.77723
  21372077.2814  -15419292.57446 -11779613.53261
  18201388.6644  -31184526.94048 -21531115.39363
 92  5 28  4 10 14.9920000  0  5G23G20G17G16G 3
  19706273.2664  -13839205.03746 -10627439.93562
  20695668.445   -15863258.025 6 -12360973.66521
  18506455.297   -25391127.420 7 -19539358.00823
  21379020.4614  -15382800.10546 -11751177.85361
  18196523.5634  -31210090.48148 -21551035.02663
 92  5 28  4 10 29.9920000  0  5G23G20G17G16G 3
  19696195.6804  -13892159.79646 -10668703.35162
  20703009.844   -15824674.536 6 -12330908.64321
  18501538.563   -25416987.213 7 -19559508.48223
  21385972.2194  -15346269.29546 -11722712.29461
  18191672.6334  -31235570.33848 -21570889.44863
 92  5 28  4 10 44.9920000  0  5G23G20G17G16G 3
  19686134.9774  -13945031.87346 -10709902.34562
  20710358.3834  -15786053.36946 -12300814.27261
  18496627.172   -25442791.669 7 -19579615.83823
  21392932.094   -15309697.521 6 -11694214.82821
  18186839.0084  -31260967.88848 -21590679.73963
 92  5 28  4 10 59.9920000  0  5G23G20G17G16G 3
  19676090.0634  -13997811.51846 -10751029.31162
  20717717.594   -15747387.999 6 -12270685.44821
  18491724.750   -25468532.810 7 -19599673.85623
  21399900.102   -15273076.509 6 -11665678.99121
  18182026.094   -31286275.790 8 -21610400.17023
 92  5 28  4 11 14.9920000  0  5G23G20G17G16G 3
  19666063.9694  -14050500.89946 -10792085.94562
  20725082.8204  -15708682.61246 -12240525.44161
  18486839.992   -25494214.087 7 -19619685.22623
  21406877.5314  -15236410.94946 -11637108.43761
  18177225.8364  -31311497.67548 -21630053.57763
 92  5 28  4 11 29.9920000  0  5G23G20G17G16G 3
  19656055.7504  -14103097.33846 -10833070.15662
  20732453.3994  -15669938.45546 -12210335.21361
  18481966.203   -25519835.634 7 -19639650.05123
  21413863.5314  -15199698.64146 -11608501.46861
  18172439.9144  -31336634.14448 -21649640.42863
 92  5 28  4 11 44.9920000  0  5G23G20G17G16G 3
  19646064.899   -14155594.421 6 -10873976.94622
  20739833.4844  -15631155.04946 -12180114.40961
  18477098.047   -25545395.034 7 -19659566.44823
  21420858.6094  -15162938.64846 -11579857.34861
  18167675.899   -31361684.105 8 -21669159.86523
 92  5 28  4 11 59.9920000  0  5G23G20G17G16G 3
  19636095.2974  -14207994.10846 -10914807.84262
  20747219.313   -15592336.643 6 -12149866.32721
  18472246.805   -25570898.415 7 -19679439.20323
  21427862.289   -15126137.151 6 -11551180.87421
  18162924.539   -31386651.114 8 -21688614.66423
 92  5 28  4 12 14.9920000  0  5G23G20G17G16G 3
  19626141.602   -14260293.328 6 -10955560.45322
  20754613.8914  -15553477.82446 -12119586.76661
  18467408.5394  -25596338.73947 -19699262.81763
  21434874.3914  -15089290.54746 -11522469.26561
  18158187.0244  -31411529.01348 -21708000.02863
 92  5 28  4 12 29.9920000  0  5G23G20G17G16G 3
  19616208.5784  -14312494.65346 -10996236.78362
  20762018.5474  -15514579.56646 -12089276.47661
  18462575.0944  -25621712.40547 -19719034.49463
  21441894.1804  -15052397.52046 -11493721.49961
  18153473.633   -31436318.300 7 -21727316.34523
 92  5 28  4 12 44.9920000  0  5G23G20G17G16G 3
  19606292.4064  -14364606.83446 -11036843.64962
  20769428.406   -15475647.855 6 -12058940.11621
  18457762.945   -25647023.891 7 -19738757.72223
  21448923.4144  -15015461.19746 -11464939.97561
  18148769.867   -31461024.441 8 -21746567.87123
 92  5 28  4 12 59.9920000  0  5G23G20G17G16G 3
  19596393.7424  -14416623.62246 -11077376.18162
  20776842.883   -15436676.842 6 -12028573.13721
  18452957.4224  -25672265.34647 -19758426.37663
  21455962.367   -14978475.059 5 -11436119.67921
  18144086.4694  -31485640.51347 -21765749.21663
 92  5 28  4 13 14.9920000  0  5G23G20G17G16G 3
  19586511.0864  -14468549.84946 -11117838.14862
  20784264.7274  -15397671.13646 -11998179.10761
  18448166.3754  -25697441.49847 -19778044.14663
  21463008.9694  -14941447.63846 -11407267.22061
  18139419.2504  -31510170.86848 -21784863.76863
 92  5 28  4 13 29.9920000  0  5G23G20G17G16G 3
  19576648.000   -14520382.510 6 -11158227.20822
  20791695.6804  -15358627.25146 -11967755.33561
  18443391.4844  -25722548.86347 -19797608.31563
  21470062.039   -14904374.505 6 -11378379.05521
  18134765.7194  -31534611.22348 -21803908.18663
 92  5 28  4 13 44.9920000  0  5G23G20G17G16G 3
  19566802.6954  -14572122.87946 -11198544.35262
  20799132.3054  -15319546.33746 -11937302.70861
  18438622.3834  -25747590.39147 -19817121.18663
  21477125.6564  -14867257.61845 -11349456.78061
  18130135.9774  -31558962.20048 -21822882.96863
 92  5 28  4 13 59.9910000  0  5G23G20G17G16G 3
  19556974.097   -14623770.040 6 -11238788.86722
  20806574.4414  -15280430.00346 -11906822.48061
  18433873.526   -25772566.542 7 -19836583.10823
  21484196.7764  -14830102.46546 -11320504.63961
  18125516.0734  -31583220.43748 -21841785.47963
 92  5 28  4 14 14.9910000  0  5G23G20G17G16G 3
  19547161.4414  -14675342.77246 -11278975.38462
  20814026.0264  -15241278.94146 -11876315.19061
  18429126.0424  -25797486.56247 -19856001.29563
  21491273.7694  -14792909.74846 -11291523.21861
  18120919.823   -31607394.413 8 -21860622.33123
 92  5 28  4 14 29.9910000  0  5G23G20G17G16G 3
  19537360.8084  -14726838.51946 -11319101.91162
  20821480.7304  -15202097.68646 -11845784.37261
  18424401.2144  -25822349.27247 -19875374.82963
  21498356.9954  -14755682.85146 -11262515.23861
  18116331.2614  -31631483.83948 -21879393.30263
 92  5 28  4 14 44.9910000  0  5G23G20G17G16G 3
  19527577.4254  -14778252.55746 -11359164.77662
  20828943.8314  -15162884.29846 -11815228.51761
  18419675.7224  -25847154.57147 -19894703.62663
  21505448.9254  -14718418.49345 -11233478.08761
  18111767.8084  -31655486.12948 -21898096.37963
 92  5 28  4 14 59.9910000  0  5G23G20G17G16G 3
  19517809.253   -14829580.469 6 -11399160.52422
  20836411.8554  -15123636.92246 -11784646.18161
  18414971.1514  -25871901.77847 -19913987.15663
  21512548.237   -14681115.284 5 -11204410.66721
  18107213.6674  -31679398.54448 -21916729.42163
 92  5 28  4 15 14.9910000  0  5G23G20G17G16G 3
  19508057.628   -14880823.910 6 -11439090.45522
  20843887.5894  -15084357.14946 -11754038.60661
  18410268.0894  -25896593.45247 -19933227.41363
  21519652.4484  -14643778.29145 -11175316.90461
  18102684.066   -31703222.373 8 -21935293.42523
 92  5 28  4 15 29.9910000  0  5G23G20G17G16G 3
  19498322.362   -14931986.604 6 -11478957.46722
  20851369.292   -15045046.307 6 -11723406.82721
  18405582.081   -25921232.267 7 -19952426.47624
  21526763.808   -14606407.569 5 -11146196.86421
  18098165.1594  -31726958.07348 -21953788.76663
 92  5 28  4 15 44.9910000  0  5G23G20G17G16G 3
  19488602.011   -14983068.103 6 -11518761.20722
  20858855.0734  -15005705.01846 -11692751.31561
  18400903.800   -25945817.880 7 -19971584.08123
  21533882.167   -14569002.112 5 -11117049.76921
  18093664.8624  -31750605.73548 -21972215.51563
 92  5 28  4 15 59.9910000  0  5G23G20G17G16G 3
  19478898.933   -15034063.407 6 -11558497.78322
  20866346.1444  -14966328.27646 -11662068.17661
  18396232.941   -25970343.767 7 -19990695.14824
  21541007.8864  -14531558.61045 -11087873.00761
  18089184.6984  -31774159.64648 -21990569.21063
 92  5 28  4 16 14.9910000  0  5G23G20G17G16G 3
  19469209.034   -15084980.507 6 -11598173.42222
  20873846.2764  -14926925.87746 -11631365.03961
  18391580.105   -25994814.973 7 -20009763.60224
  21548137.6054  -14494084.92045 -11058672.73761
  18084715.612   -31797629.067 8 -22008857.06323
 92  5 28  4 16 29.9910000  0  5G23G20G17G16G 3
  19459535.909   -15135810.144 6 -11637780.90822
  20881348.6364  -14887494.76346 -11600639.52861
  18386934.144   -26019224.313 7 -20028783.85124
  21555275.5974  -14456576.72445 -11029445.57361
  18080267.6834  -31821010.41148 -22027076.27963
 92  5 28  4 16 44.9910000  0  5G23G20G17G16G 3
  19449880.378   -15186546.972 6 -11677316.07722
  20888858.6514  -14848033.36646 -11569890.43361
  18382298.456   -26043570.585 7 -20047754.94823
  21562420.0034  -14419032.89745 -11000190.64361
  18075837.6054  -31844301.16748 -22045224.91663
 92  5 28  4 16 59.9910000  0  5G23G20G17G16G 3
  19440244.300   -15237190.860 6 -11716778.82422
  20896374.0264  -14808541.00146 -11539117.19661
  18377681.019   -26067852.562 7 -20066675.94723
  21569569.4094  -14381452.73845 -10970907.39361
  18071420.0264  -31867500.40247 -22063302.23563
 92  5 28  4 17 14.9910000  0  5G23G20G17G16G 3
  19430624.214   -15287742.445 6 -11756169.64422
  20903894.6754  -14769016.67746 -11508319.06561
  18373074.050   -26092069.034 7 -20085545.90123
  21576729.331   -14343835.259 5 -10941595.08021
  18067022.2144  -31890606.18747 -22081306.73563
 92  5 28  4 17 29.9910000  0  5G23G20G17G16G 3
  19421022.933   -15338203.736 6 -11795490.10722
  20911419.4564  -14729462.89246 -11477497.96661
  18368474.136   -26116223.827 7 -20104367.79723
  21583894.8474  -14306180.23945 -10912253.53361
  18062646.5584  -31913620.49347 -22099239.95163
 92  5 28  4 17 44.9910000  0  5G23G20G17G16G 3
  19411436.972   -15388573.726 7 -11834739.43422
  20918953.8234  -14689880.84646 -11446654.85161
  18363888.050   -26140317.111 7 -20123141.76824
  21591068.0114  -14268487.77445 -10882882.80261
  18058283.550   -31936543.663 7 -22117102.15023
 92  5 28  4 17 59.9910000  0  5G23G20G17G16G 3
  19401868.339   -15438852.484 7 -11873917.66222
  20926491.2454  -14650272.38746 -11415791.15461
  18359317.9334  -26164348.27747 -20141867.34563
  21598247.667   -14230762.689 5 -10853486.64021
  18053936.4954  -31959377.10548 -22134894.43263
 92  5 28  4 18 14.9910000  0  5G23G20G17G16G 3
  19392319.151   -15489038.982 7 -11913023.99922
  20934033.448   -14610636.335 6 -11384905.96621
  18354759.097   -26188315.876 7 -20160543.37824
  21605430.917   -14193003.249 5 -10824063.72121
  18049607.7064  -31982118.95448 -22152615.34663
 92  5 28  4 18 29.9910000  0  5G23G20G17G16G 3
  19382786.401   -15539134.806 6 -11952059.68522
  20941580.0344  -14570974.91746 -11354001.00261
  18350207.995   -26212221.952 7 -20179171.47524
  21612622.0974  -14155211.92445 -10794615.96961
  18045299.1984  -32004770.73248 -22170266.07663
 92  5 28  4 18 44.9910000  0  5G23G20G17G16G 3
  19373270.112   -15589139.791 6 -11991024.58522
  20949133.191   -14531286.307 6 -11323074.85221
  18345668.011   -26236068.761 7 -20197753.38624
  21619820.8314  -14117387.56945 -10765142.48361
  18041007.5894  -32027329.99448 -22187844.71963
